[[{"header":{"parameterUnit":"m.s-1","parameterCategory":1,"la1":30.6,"la2":28.766,"lo1":-90.7593,"lo2":-88.6598,"dy":0.0162,"dx":0.0183,"nx":116,"ny":114,"refTime":"2024-03-26T06:00:00:Z","depth":0,"parameterNumber":2,"parameterNumberName":"U-component_of_WINDS"},"data":[0.0,0.0,0.0,0.0,0.0,0.0,0.0,0.0,0.0,0.0,0.0,0.0,0.0,0.0,0.0,0.0,0.0,0.0,0.0,0.0,0.0,0.0,0.0,0.0,0.0,0.0,0.0,0.0,0.0,0.0,0.0,0.0,0.0,0.0,0.0,0.0,0.0,0.0,0.0,0.0,0.0,0.0,0.0,0.0,0.0,0.0,0.0,0.0,0.0,0.0,0.0,0.0,0.0,0.0,0.0,0.0,0.0,0.0,0.0,0.0,0.0,0.0,0.0,0.0,0.0,0.0,0.0,0.0,0.0,0.0,0.0,0.0,0.0,0.0,0.0,0.0,0.0,0.0,0.0,0.0,0.0,0.0,0.0,0.0,0.0,0.0,0.0,0.0,0.0,0.0,0.0,0.0,0.0,0.0,0.0,0.0,0.0,0.0,0.0,0.0,0.0,0.0,0.0,0.0,0.0,0.0,0.0,0.0,0.0,0.0,0.0,0.0,0.0,0.0,0.0,0.0,0.0,0.0,0.0,0.0,0.0,0.0,0.0,0.0,0.0,0.0,0.0,0.0,0.0,0.0,0.0,0.0,0.0,0.0,0.0,0.0,0.0,0.0,0.0,0.0,0.0,0.0,0.0,0.0,0.0,0.0,0.0,0.0,0.0,0.0,0.0,0.0,0.0,0.0,0.0,0.0,0.0,0.0,0.0,0.0,0.0,0.0,0.0,0.0,0.0,0.0,0.0,0.0,0.0,0.0,0.0,0.0,0.0,0.0,0.0,0.0,0.0,0.0,0.0,0.0,0.0,0.0,0.0,0.0,0.0,0.0,0.0,0.0,0.0,0.0,0.0,0.0,0.0,0.0,0.0,0.0,0.0,0.0,0.0,0.0,0.0,0.0,0.0,0.0,0.0,0.0,0.0,0.0,0.0,0.0,0.0,0.0,0.0,0.0,0.0,0.0,0.0,0.0,0.0,0.0,0.0,0.0,0.0,0.0,0.0,0.0,0.0,0.0,0.0,0.0,0.0,0.0,0.0,0.0,0.0,0.0,0.0,0.0,0.0,0.0,0.0,0.0,0.0,0.0,0.0,0.0,0.0,0.0,0.0,0.0,0.0,0.0,0.0,0.0,0.0,0.0,0.0,0.0,0.0,0.0,0.0,0.0,0.0,0.0,0.0,0.0,0.0,0.0,0.0,0.0,0.0,0.0,0.0,0.0,0.0,0.0,0.0,0.0,0.0,0.0,0.0,0.0,0.0,0.0,0.0,0.0,0.0,0.0,0.0,0.0,0.0,0.0,0.0,0.0,0.0,0.0,0.0,0.0,0.0,0.0,0.0,0.0,0.0,0.0,0.0,0.0,0.0,0.0,0.0,0.0,0.0,0.0,0.0,0.0,0.0,0.0,0.0,0.0,0.0,0.0,0.0,0.0,0.0,0.0,0.0,0.0,0.0,0.0,0.0,0.0,0.0,0.0,0.0,0.0,0.0,0.0,0.0,0.0,0.0,0.0,0.0,0.0,0.0,0.0,0.0,0.0,0.0,0.0,0.0,0.0,0.0,0.0,0.0,0.0,0.0,0.0,0.0,0.0,0.0,0.0,0.0,0.0,0.0,0.0,0.0,0.0,0.0,0.0,0.0,0.0,0.0,0.0,0.0,0.0,0.0,0.0,0.0,0.0,0.0,0.0,0.0,0.0,0.0,0.0,0.0,0.0,0.0,0.0,0.0,0.0,0.0,0.0,0.0,0.0,0.0,0.0,0.0,0.0,0.0,0.0,0.0,0.0,0.0,0.0,0.0,0.0,0.0,0.0,0.0,0.0,0.0,0.0,0.0,0.0,0.0,0.0,0.0,0.0,0.0,0.0,0.0,0.0,0.0,0.0,0.0,0.0,0.0,0.0,0.0,0.0,0.0,0.0,0.0,0.0,0.0,0.0,0.0,0.0,0.0,0.0,0.0,0.0,0.0,0.0,0.0,0.0,0.0,0.0,0.0,0.0,0.0,0.0,0.0,0.0,0.0,0.0,0.0,0.0,0.0,0.0,0.0,0.0,0.0,0.0,0.0,0.0,0.0,0.0,0.0,0.0,0.0,0.0,0.0,0.0,0.0,0.0,0.0,0.0,0.0,0.0,0.0,0.0,0.0,0.0,0.0,0.0,0.0,0.0,0.0,0.0,0.0,0.0,0.0,0.0,0.0,0.0,0.0,0.0,0.0,0.0,0.0,0.0,0.0,0.0,0.0,0.0,0.0,0.0,0.0,0.0,0.0,0.0,0.0,0.0,0.0,0.0,0.0,0.0,0.0,0.0,0.0,0.0,0.0,0.0,0.0,0.0,0.0,0.0,0.0,0.0,0.0,0.0,0.0,0.0,0.0,0.0,0.0,0.0,0.0,0.0,0.0,0.0,0.0,0.0,0.0,0.0,0.0,0.0,0.0,0.0,0.0,0.0,0.0,0.0,0.0,0.0,0.0,0.0,0.0,0.0,0.0,0.0,0.0,0.0,0.0,0.0,0.0,0.0,0.0,0.0,0.0,0.0,0.0,0.0,0.0,0.0,0.0,0.0,0.0,0.0,0.0,0.0,0.0,0.0,0.0,0.0,0.0,0.0,0.0,0.0,0.0,0.0,0.0,0.0,0.0,0.0,0.0,0.0,0.0,0.0,0.0,0.0,0.0,0.0,0.0,0.0,0.0,0.0,0.0,0.0,0.0,0.0,0.0,0.0,0.0,0.0,0.0,0.0,0.0,0.0,0.0,0.0,0.0,0.0,0.0,0.0,0.0,0.0,0.0,0.0,0.0,0.0,0.0,0.0,0.0,0.0,0.0,0.0,0.0,0.0,0.0,0.0,0.0,0.0,0.0,0.0,0.0,0.0,0.0,0.0,0.0,0.0,0.0,0.0,0.0,0.0,0.0,0.0,0.0,0.0,0.0,0.0,0.0,0.0,0.0,0.0,0.0,0.0,0.0,0.0,0.0,0.0,0.0,0.0,0.0,0.0,0.0,0.0,0.0,0.0,0.0,0.0,0.0,0.0,0.0,0.0,0.0,0.0,0.0,0.0,0.0,0.0,0.0,0.0,0.0,0.0,0.0,0.0,0.0,0.0,0.0,0.0,0.0,0.0,0.0,0.0,0.0,0.0,0.0,0.0,0.0,0.0,0.0,0.0,0.0,0.0,0.0,0.0,0.0,0.0,0.0,0.0,0.0,0.0,0.0,0.0,0.0,0.0,0.0,0.0,0.0,0.0,0.0,0.0,0.0,0.0,0.0,0.0,0.0,0.0,0.0,0.0,0.0,0.0,0.0,0.0,0.0,0.0,0.0,0.0,0.0,0.0,0.0,0.0,0.0,0.0,0.0,0.0,0.0,0.0,0.0,0.0,0.0,0.0,0.0,0.0,0.0,0.0,0.0,0.0,0.0,0.0,0.0,0.0,0.0,0.0,0.0,0.0,0.0,0.0,0.0,0.0,0.0,0.0,0.0,0.0,0.0,0.0,0.0,0.0,0.0,0.0,0.0,0.0,0.0,0.0,0.0,0.0,0.0,0.0,0.0,0.0,0.0,0.0,0.0,0.0,0.0,0.0,0.0,0.0,0.0,0.0,0.0,0.0,0.0,0.0,0.0,0.0,0.0,0.0,0.0,0.0,0.0,0.0,0.0,0.0,0.0,0.0,0.0,0.0,0.0,0.0,0.0,0.0,0.0,0.0,0.0,0.0,0.0,0.0,0.0,0.0,0.0,0.0,0.0,0.0,0.0,0.0,0.0,0.0,0.0,0.0,0.0,0.0,0.0,0.0,0.0,0.0,0.0,0.0,0.0,0.0,0.0,0.0,0.0,0.0,0.0,0.0,0.0,0.0,0.0,0.0,0.0,0.0,0.0,0.0,0.0,0.0,0.0,0.0,0.0,0.0,0.0,0.0,0.0,0.0,0.0,0.0,0.0,0.0,0.0,0.0,0.0,0.0,0.0,0.0,0.0,0.0,0.0,0.0,0.0,0.0,0.0,0.0,0.0,0.0,0.0,0.0,0.0,0.0,0.0,0.0,0.0,0.0,0.0,0.0,0.0,0.0,0.0,0.0,0.0,0.0,0.0,0.0,0.0,0.0,0.0,0.0,0.0,0.0,0.0,0.0,0.0,0.0,0.0,0.0,0.0,0.0,0.0,0.0,0.0,0.0,0.0,0.0,0.0,0.0,0.0,0.0,0.0,0.0,0.0,0.0,0.0,0.0,0.0,0.0,0.0,0.0,0.0,0.0,0.0,0.0,0.0,0.0,0.0,0.0,0.0,0.0,0.0,0.0,0.0,0.0,0.0,0.0,0.0,0.0,0.0,0.0,0.0,0.0,0.0,0.0,0.0,0.0,0.0,0.0,0.0,0.0,0.0,0.0,0.0,0.0,0.0,0.0,0.0,0.0,0.0,0.0,0.0,0.0,0.0,0.0,0.0,0.0,0.0,0.0,0.0,0.0,0.0,0.0,0.0,0.0,0.0,0.0,0.0,0.0,0.0,0.0,0.0,0.0,0.0,0.0,0.0,0.0,0.0,0.0,0.0,0.0,0.0,0.0,0.0,0.0,0.0,0.0,0.0,0.0,0.0,0.0,0.0,0.0,0.0,0.0,0.0,0.0,0.0,0.0,0.0,0.0,0.0,0.0,0.0,0.0,0.0,0.0,0.0,0.0,0.0,0.0,0.0,0.0,0.0,0.0,0.0,0.0,0.0,0.0,0.0,0.0,0.0,0.0,0.0,0.0,0.0,0.0,0.0,0.0,0.0,0.0,0.0,0.0,0.0,0.0,0.0,0.0,0.0,0.0,0.0,0.0,0.0,0.0,0.0,0.0,0.0,0.0,0.0,0.0,0.0,0.0,0.0,0.0,0.0,0.0,0.0,0.0,0.0,0.0,0.0,0.0,0.0,0.0,0.0,0.0,0.0,0.0,0.0,0.0,0.0,0.0,0.0,0.0,0.0,0.0,0.0,0.0,0.0,0.0,0.0,0.0,0.0,0.0,0.0,0.0,0.0,0.0,0.0,0.0,0.0,0.0,0.0,0.0,0.0,0.0,0.0,0.0,0.0,0.0,0.0,0.0,0.0,0.0,0.0,0.0,0.0,0.0,0.0,0.0,0.0,0.0,0.0,0.0,0.0,0.0,0.0,0.0,0.0,0.0,0.0,0.0,0.0,0.0,0.0,0.0,0.0,0.0,0.0,0.0,0.0,0.0,0.0,0.0,0.0,0.0,0.0,0.0,0.0,0.0,0.0,0.0,0.0,0.0,0.0,0.0,0.0,0.0,0.0,0.0,0.0,0.0,0.0,0.0,0.0,0.0,0.0,0.0,0.0,0.0,0.0,0.0,0.0,0.0,0.0,0.0,0.0,0.0,0.0,0.0,0.0,0.0,0.0,0.0,0.0,0.0,0.0,0.0,0.0,0.0,0.0,0.0,0.0,0.0,0.0,0.0,0.0,0.0,0.0,0.0,0.0,0.0,0.0,0.0,0.0,0.0,0.0,0.0,0.0,0.0,0.0,0.0,0.0,0.0,0.0,0.0,0.0,0.0,0.0,0.0,0.0,0.0,0.0,0.0,0.0,0.0,0.0,0.0,0.0,0.0,0.0,0.0,0.0,0.0,0.0,0.0,0.0,0.0,0.0,0.0,0.0,0.0,0.0,0.0,0.0,0.0,0.0,0.0,0.0,0.0,0.0,0.0,0.0,0.0,0.0,0.0,0.0,0.0,0.0,0.0,0.0,0.0,0.0,0.0,0.0,0.0,0.0,0.0,0.0,0.0,0.0,0.0,0.0,0.0,0.0,0.0,0.0,0.0,0.0,0.0,0.0,0.0,0.0,0.0,0.0,0.0,0.0,0.0,0.0,0.0,0.0,0.0,0.0,0.0,0.0,0.0,0.0,0.0,0.0,0.0,0.0,0.0,0.0,0.0,0.0,0.0,0.0,0.0,0.0,0.0,0.0,0.0,0.0,0.0,0.0,0.0,0.0,0.0,0.0,0.0,0.0,0.0,0.0,0.0,0.0,0.0,0.0,0.0,0.0,0.0,0.0,0.0,0.0,0.0,0.0,0.0,0.0,0.0,0.0,0.0,0.0,0.0,0.0,0.0,4.7036,0.0,0.0,0.0,0.0,0.0,0.0,0.0,0.0,0.0,0.0,0.0,0.0,0.0,0.0,0.0,0.0,0.0,0.0,0.0,0.0,0.0,0.0,0.0,0.0,3.9277,3.9822,4.1089,4.117,4.1547,4.2512,0.0,0.0,0.0,0.0,0.0,4.4407,4.4418,4.4873,4.5789,4.5431,4.5939,4.726,4.7696,4.7033,4.5507,0.0,0.0,0.0,0.0,0.0,0.0,0.0,0.0,0.0,0.0,0.0,0.0,0.0,0.0,0.0,0.0,0.0,0.0,0.0,0.0,0.0,0.0,0.0,0.0,0.0,0.0,0.0,0.0,0.0,0.0,0.0,0.0,0.0,0.0,0.0,0.0,0.0,0.0,0.0,0.0,0.0,0.0,0.0,0.0,0.0,0.0,0.0,0.0,0.0,0.0,0.0,0.0,0.0,0.0,0.0,0.0,0.0,0.0,0.0,0.0,0.0,0.0,0.0,0.0,0.0,0.0,0.0,0.0,0.0,0.0,0.0,4.8844,0.0,0.0,0.0,0.0,0.0,0.0,0.0,0.0,0.0,0.0,0.0,0.0,0.0,0.0,0.0,0.0,0.0,0.0,0.0,0.0,0.0,3.7661,3.9546,3.9738,4.0391,4.2048,4.2092,4.2497,4.3549,4.4098,0.0,0.0,4.5415,4.5802,4.5802,4.5984,4.6356,4.6999,4.7058,4.8514,5.1258,5.2429,5.0984,4.7506,4.8226,0.0,0.0,0.0,0.0,0.0,0.0,0.0,0.0,0.0,0.0,0.0,0.0,0.0,0.0,0.0,0.0,0.0,0.0,0.0,0.0,0.0,0.0,0.0,0.0,0.0,0.0,0.0,0.0,0.0,0.0,0.0,0.0,0.0,0.0,0.0,0.0,0.0,0.0,0.0,0.0,0.0,0.0,0.0,0.0,0.0,0.0,0.0,0.0,0.0,0.0,0.0,0.0,0.0,0.0,0.0,0.0,0.0,0.0,0.0,0.0,0.0,0.0,0.0,5.9881,6.1074,6.2142,6.2275,6.2359,6.2089,5.7138,5.3475,5.0971,0.0,0.0,0.0,0.0,0.0,0.0,0.0,0.0,0.0,0.0,0.0,0.0,0.0,0.0,0.0,0.0,0.0,0.0,0.0,0.0,3.8777,4.12,4.147,4.1879,4.2937,4.304,4.3453,4.4443,4.4616,4.4955,4.5664,4.582,4.5897,4.5897,4.6726,4.6894,4.624,4.997,5.3162,5.5786,5.8128,5.8519,5.6996,5.1284,5.0738,5.3787,0.0,0.0,0.0,0.0,0.0,0.0,0.0,0.0,0.0,0.0,0.0,0.0,0.0,0.0,0.0,0.0,0.0,0.0,0.0,0.0,0.0,0.0,0.0,0.0,0.0,0.0,0.0,0.0,0.0,0.0,0.0,0.0,0.0,0.0,0.0,0.0,0.0,0.0,0.0,0.0,0.0,4.2583,4.3484,0.0,0.0,0.0,0.0,0.0,0.0,0.0,0.0,0.0,0.0,0.0,0.0,0.0,5.7776,5.9451,6.3329,6.508,6.4748,6.7795,6.8614,6.7438,6.8164,6.8552,6.8487,6.7714,0.0,5.6967,5.4842,0.0,0.0,0.0,0.0,0.0,0.0,0.0,0.0,0.0,0.0,0.0,0.0,0.0,0.0,0.0,0.0,0.0,0.0,0.0,0.0,0.0,4.3641,4.5183,4.6183,4.8882,4.9731,4.7866,4.8963,4.8613,4.6122,4.6005,4.6005,4.6005,4.6941,4.8638,5.1179,5.6587,6.0276,6.2384,6.4492,6.5507,6.539,6.0393,5.684,5.4381,5.1648,0.0,0.0,0.0,0.0,0.0,0.0,0.0,0.0,0.0,0.0,0.0,0.0,0.0,0.0,0.0,0.0,0.0,0.0,0.0,0.0,0.0,0.0,0.0,0.0,0.0,0.0,0.0,0.0,0.0,0.0,0.0,0.0,0.0,0.0,0.0,0.0,0.0,0.0,0.0,4.4057,4.609,4.3094,4.6414,4.8048,0.0,0.0,0.0,0.0,0.0,0.0,0.0,0.0,0.0,5.8102,6.0558,6.2872,6.5077,6.741,6.9102,7.019,7.2121,7.2908,7.2694,7.3552,7.4196,7.4687,7.5157,7.2669,6.7829,6.2406,5.9107,5.7157,0.0,0.0,0.0,0.0,5.2839,5.3801,0.0,0.0,0.0,0.0,0.0,0.0,0.0,0.0,0.0,0.0,0.0,0.0,4.3647,4.6629,4.9232,5.1179,5.4537,5.5295,5.2269,5.2278,5.0797,4.7294,4.6515,4.6242,4.6476,4.8431,5.2058,5.7453,6.3149,6.7029,6.9137,7.0894,7.2065,7.2534,6.9489,6.4453,5.8089,5.5201,5.3014,5.1219,0.0,0.0,0.0,0.0,0.0,0.0,0.0,0.0,0.0,0.0,0.0,0.0,0.0,0.0,0.0,0.0,0.0,0.0,0.0,0.0,0.0,0.0,0.0,0.0,0.0,0.0,0.0,0.0,0.0,0.0,0.0,0.0,0.0,0.0,0.0,0.0,0.0,4.6819,4.8817,4.3304,4.8561,5.0966,0.0,0.0,0.0,0.0,0.0,0.0,5.629,5.8276,6.085,6.4243,6.6419,6.8628,7.0968,7.2293,7.3868,7.5756,7.6555,7.7201,7.7654,7.8269,7.8915,7.9492,8.0145,7.9345,7.7054,6.9833,6.5257,6.2472,5.9682,5.8137,5.7426,5.7351,5.7495,5.7988,0.0,0.0,0.0,0.0,0.0,0.0,0.0,0.0,0.0,0.0,0.0,4.1944,4.8502,5.0945,5.3867,5.8126,5.797,5.757,5.7426,5.2151,4.9302,4.9887,4.7584,4.6687,4.7506,5.2386,5.7855,6.3828,6.8239,7.2065,7.5384,7.714,7.796,7.7921,7.6086,7.3275,6.9333,6.1056,5.7933,5.8124,5.3,0.0,0.0,0.0,0.0,0.0,0.0,0.0,0.0,0.0,0.0,0.0,0.0,0.0,0.0,0.0,0.0,0.0,0.0,0.0,0.0,0.0,0.0,0.0,0.0,0.0,0.0,0.0,0.0,0.0,0.0,0.0,0.0,0.0,0.0,0.0,0.0,0.0,0.0,4.5851,5.2781,0.0,0.0,0.0,0.0,5.4181,5.6464,5.8963,6.1559,6.4091,6.6995,7.0374,7.3714,7.6248,7.7962,8.0439,8.1739,8.1893,8.2771,8.2771,8.197,8.2047,8.2086,8.2124,8.2183,8.2079,8.1502,7.5526,7.1084,6.7691,6.4277,6.3916,6.5033,6.2651,6.2251,6.2847,0.0,0.0,0.0,0.0,0.0,3.4375,3.5311,3.6632,3.7954,3.9161,4.2265,4.6358,5.1668,5.6329,6.0659,6.4502,6.5601,6.4905,6.2149,5.7348,5.4264,5.3483,5.0438,5.0711,5.4927,5.8441,6.3204,6.9255,7.3549,7.6867,7.917,8.0341,8.0927,8.0849,7.9678,7.8155,7.593,6.7264,6.2189,5.9495,5.425,5.143,0.0,0.0,0.0,0.0,0.0,0.0,0.0,0.0,0.0,0.0,0.0,0.0,0.0,0.0,0.0,0.0,0.0,0.0,0.0,0.0,0.0,0.0,0.0,0.0,0.0,0.0,0.0,0.0,0.0,0.0,0.0,0.0,0.0,0.0,0.0,0.0,0.0,5.3925,5.9738,0.0,5.7559,5.8508,5.984,6.0949,6.2858,6.5538,6.9256,7.1324,7.3974,7.7339,7.9153,8.0581,8.1766,8.322,8.3682,8.3138,8.4016,8.4286,8.3978,8.3394,8.3734,8.4728,8.4209,8.3682,8.2957,8.0876,7.7339,7.3005,7.0162,6.8751,6.8301,6.7918,6.762,6.7554,0.0,0.0,0.0,0.0,3.2929,3.3646,3.4812,3.644,3.8099,3.9595,4.4331,4.9714,5.5278,6.137,6.6688,7.0771,7.1128,6.9801,6.6678,6.0471,5.645,5.5357,5.3366,5.4693,5.9846,6.3945,6.8708,7.4173,7.7882,8.0615,8.2293,8.2879,8.3152,8.3113,8.2528,8.1786,8.0576,7.4251,6.8435,6.3008,5.8128,5.6181,5.5591,0.0,0.0,0.0,0.0,0.0,0.0,0.0,0.0,0.0,0.0,0.0,0.0,0.0,0.0,0.0,0.0,0.0,0.0,0.0,0.0,0.0,0.0,0.0,0.0,0.0,0.0,0.0,0.0,0.0,0.0,0.0,0.0,0.0,0.0,0.0,6.1174,6.0065,6.5705,6.8027,6.377,6.4653,6.5961,6.7099,6.8992,7.1747,7.5434,7.6939,7.9006,8.183,8.2759,8.3418,8.4028,8.4873,8.5027,8.445,8.533,8.5445,8.4907,8.4593,8.4895,8.5658,8.5132,8.4566,8.4028,8.374,8.1439,7.7892,7.5664,7.3914,7.2732,7.3261,7.2946,7.2361,0.0,0.0,0.0,3.1352,3.1623,3.2199,3.393,3.5633,3.769,4.0397,4.5393,5.1687,5.9529,6.5875,7.1675,7.6828,7.4056,7.1636,7.0777,6.1017,5.5279,5.5357,5.6294,5.848,6.2032,6.8708,7.4251,7.8585,8.1161,8.3269,8.487,8.487,8.487,8.487,8.487,8.4401,8.3504,8.1903,7.6828,6.9489,6.4999,6.3134,6.2322,0.0,0.0,0.0,0.0,0.0,0.0,0.0,0.0,0.0,0.0,0.0,0.0,0.0,0.0,0.0,0.0,0.0,0.0,0.0,0.0,0.0,0.0,0.0,0.0,0.0,0.0,0.0,0.0,0.0,0.0,0.0,0.0,0.0,5.4541,6.1166,6.541,6.3909,7.0355,7.2663,6.6978,7.0085,7.2524,7.2517,7.4842,7.74,7.9862,8.0817,8.204,8.3682,8.4527,8.4983,8.4945,8.5747,8.6137,8.6103,8.6983,8.656,8.506,8.5766,8.5723,8.5022,8.4983,8.4945,8.483,8.3978,8.3093,8.2138,8.0484,7.93,7.8608,7.86,7.8062,7.713,0.0,0.0,2.8679,3.0381,3.1188,3.2161,3.3851,3.5595,3.7872,4.1209,4.8405,5.595,6.3202,7.0011,7.5891,8.0459,7.5423,7.1636,7.0777,6.0432,5.4927,5.6177,6.0041,6.4921,7.0855,7.4095,7.8116,8.3035,8.4401,8.5612,8.6705,8.6705,8.6705,8.6705,8.6705,8.6549,8.6321,8.5852,8.366,7.9795,7.1128,6.6522,6.4306,0.0,0.0,0.0,0.0,0.0,0.0,0.0,0.0,0.0,0.0,0.0,0.0,0.0,0.0,0.0,0.0,0.0,0.0,0.0,0.0,0.0,0.0,0.0,0.0,0.0,0.0,0.0,0.0,0.0,0.0,0.0,5.6284,5.9638,5.9881,6.5444,7.046,7.3169,7.6946,7.8961,7.7892,7.8838,7.953,7.9537,8.1343,8.3028,8.4297,8.5181,8.5906,8.6324,8.6594,8.6406,8.5786,8.6632,8.6748,8.6099,8.6983,8.7517,8.7632,8.6599,8.6671,8.7589,8.6324,8.5445,8.4868,8.4632,8.367,8.2208,8.117,8.0631,8.0369,8.04,7.9862,7.8861,0.0,2.7236,2.8234,2.9562,3.0496,3.1623,3.3327,3.507,3.7758,4.2039,5.0431,5.8579,6.5269,7.2171,7.7375,7.9912,7.5149,7.0699,6.7654,6.0354,5.7074,5.9183,6.457,7.023,7.6008,7.8546,8.1981,8.6431,8.6939,8.7642,8.8501,8.8852,8.9047,8.9047,8.9398,8.9561,8.9522,8.9171,8.8227,8.6353,7.9242,7.4876,7.1914,6.5672,6.3642,6.3628,5.9471,5.8545,5.8803,5.5488,0.0,0.0,0.0,0.0,0.0,0.0,0.0,0.0,0.0,0.0,0.0,0.0,0.0,0.0,0.0,0.0,0.0,0.0,0.0,0.0,0.0,0.0,0.0,0.0,6.1272,6.5551,6.807,7.1372,7.5011,7.8929,8.165,8.338,8.3835,8.4214,8.4291,8.3945,8.5142,8.6176,8.6599,8.7791,8.844,8.844,8.8786,8.8402,8.7209,8.8017,8.7825,8.6671,8.7863,8.8325,8.8166,8.7825,8.7671,0.0,8.694,8.617,8.5368,8.5055,8.4286,0.0,0.0,0.0,0.0,0.0,8.0785,8.0169,0.0,2.7071,2.7927,2.8806,2.9613,3.0777,3.2622,3.4391,3.7411,4.2723,5.1561,5.962,6.558,7.2378,7.6633,7.6945,7.3549,6.902,6.336,6.0822,6.0861,6.3867,6.9606,7.472,7.9014,8.2489,8.5846,8.9125,8.9242,8.9672,9.0452,9.1311,9.1663,9.1624,9.245,9.2802,9.2756,9.2014,9.1233,9.0218,8.772,8.4909,8.1402,7.3359,7.1524,7.2505,6.6756,6.3442,6.1451,5.9363,0.0,0.0,0.0,0.0,0.0,0.0,0.0,0.0,0.0,0.0,0.0,0.0,0.0,0.0,0.0,0.0,0.0,0.0,0.0,0.0,0.0,0.0,0.0,0.0,6.641,7.136,7.6938,7.816,7.9546,8.2516,8.4763,8.6227,8.6642,8.7214,8.7291,8.6718,8.7295,8.7718,8.7795,0.0,0.0,0.0,0.0,9.0402,8.8709,8.9402,8.894,8.7286,8.8863,8.8902,8.7589,8.9094,8.856,8.6555,8.7171,8.6978,8.617,8.5363,8.4978,8.4747,8.2978,8.1823,8.1093,8.1093,8.1093,8.0977,0.0,2.6156,2.701,2.7884,2.8768,3.0124,3.2545,3.4391,3.7411,4.2723,5.1055,5.8091,6.2257,6.8864,7.3822,7.5852,7.1011,6.6444,6.3204,6.254,6.4648,7.0035,7.4681,7.917,8.3465,8.6978,8.975,9.178,9.2482,9.2912,9.3068,9.3966,9.4005,9.3341,9.4207,9.4591,9.4591,9.4434,9.3849,9.2905,9.1038,8.7095,8.1825,7.7329,7.5026,7.3738,6.9796,7.0264,7.2026,6.7459,6.6967,6.7282,6.1627,5.6951,0.0,0.0,0.0,0.0,0.0,0.0,0.0,0.0,0.0,0.0,0.0,0.0,0.0,0.0,0.0,0.0,0.0,0.0,0.0,6.5449,7.1437,7.6707,7.99,8.3285,8.567,8.6324,8.6214,8.7175,8.9979,8.9133,8.894,9.0133,8.9713,8.9713,9.0441,9.0787,0.0,9.0941,9.1133,9.0402,8.8709,8.8863,8.8055,8.6363,0.0,0.0,8.8479,8.8786,8.9017,8.9094,8.7902,8.7325,8.7094,8.6209,8.5478,8.4747,8.2978,8.1823,8.1093,8.1093,8.1093,8.0977,0.0,2.5853,2.6603,2.7056,2.8219,2.9766,3.1955,3.3737,3.6921,4.2645,4.9411,5.5247,5.929,6.4375,6.7498,6.7459,6.3516,6.1603,6.2891,6.5429,6.9723,7.6203,8.0615,8.4714,8.8579,9.0374,9.2092,9.381,9.4239,9.4434,9.4473,9.5339,9.5527,9.5137,9.5996,9.6386,9.6386,9.6386,9.5918,9.4981,9.3693,9.0882,8.6978,8.3068,8.053,7.8735,7.6627,7.5846,7.53,7.2138,7.1011,7.0174,6.5644,6.1214,5.7158,0.0,0.0,0.0,0.0,0.0,0.0,0.0,0.0,0.0,0.0,0.0,0.0,0.0,0.0,5.4501,5.7113,0.0,6.6756,7.1437,7.5784,7.9746,8.3131,8.5786,8.7401,8.7401,8.8517,8.9787,9.1095,9.0825,9.0748,9.1171,9.1556,9.1633,9.121,9.2826,9.3172,9.1902,9.3095,9.2518,8.9979,9.0787,9.0133,8.8017,8.8902,8.9325,8.929,8.9286,8.9286,8.921,8.794,8.7401,8.7325,8.6478,8.5632,8.4786,8.3439,8.2439,8.1631,8.1246,8.1093,8.0977,0.0,2.5841,2.6427,2.6496,2.7773,2.9435,3.1417,3.3122,3.6226,4.1907,4.6999,5.1576,5.5387,5.8909,6.0159,5.805,5.7348,5.9104,6.3945,6.9255,7.5266,8.2176,8.6275,8.9828,9.2951,9.3341,9.42,9.5606,9.5957,9.584,9.5371,9.6432,9.6699,9.6464,9.7479,9.7948,9.7948,9.8143,9.7714,9.6816,9.5957,9.4669,9.2834,8.8852,8.5963,8.3894,8.2879,7.9633,7.5684,7.5137,7.322,7.0642,6.8142,6.5098,6.1719,5.8008,5.515,0.0,0.0,0.0,0.0,0.0,0.0,0.0,0.0,5.0586,5.1834,5.4523,5.712,6.0042,6.3847,6.7487,7.1552,7.6707,7.9361,8.2016,8.5593,8.7286,8.8094,8.7902,9.0479,9.2095,9.171,9.2018,9.2095,9.171,9.2633,9.2787,9.1748,9.4134,9.4788,9.3018,9.4826,9.448,9.171,9.271,9.2172,9.0171,9.071,9.0671,9.0171,9.0171,8.9787,8.9133,8.8094,8.7555,8.7325,8.6478,8.5709,8.5016,8.3978,8.317,8.2439,8.1477,8.1093,8.1016,0.0,2.5841,2.6427,2.6496,2.7301,2.8783,3.1302,3.3122,3.5596,3.9518,4.3869,4.712,4.8595,5.1804,5.3717,5.3444,5.9456,6.4843,6.8435,7.4251,8.0615,8.7525,9.0452,9.2834,9.4754,9.6347,9.7206,9.7401,9.8963,9.8533,9.6308,9.7948,9.787,9.6464,9.8104,9.8846,9.8924,9.9666,9.9509,9.8612,9.7753,9.6816,9.5645,9.2834,8.9281,8.5612,8.3933,8.0023,7.584,7.7212,7.5766,7.3255,7.2126,6.985,6.6748,6.2627,5.752,5.2782,5.0798,4.8759,4.7625,4.9625,4.9702,5.0664,0.0,5.7242,5.8242,6.1488,6.4205,6.659,6.8629,7.236,7.5861,7.8015,8.1708,8.4747,8.594,8.8786,9.0479,8.971,9.0633,9.1902,9.3287,9.2172,9.1902,9.3326,9.221,9.2056,9.3364,9.3095,9.348,9.4672,9.4249,9.3787,9.3403,9.2133,9.1325,9.1056,9.0364,9.0402,9.1056,9.1056,9.1018,9.0825,8.9248,8.8132,8.7325,8.6478,8.6055,8.5824,8.4209,8.3516,8.3247,8.167,8.1093,8.1093,0.0,0.0,2.57,2.5746,2.6868,2.8322,2.9917,3.1621,3.4041,3.7614,4.0516,4.2868,4.4419,4.63,4.7666,4.8174,5.4775,6.1251,6.6834,7.507,8.2873,8.9906,9.3615,9.6113,9.7323,9.8572,9.9197,9.9197,9.9939,9.9744,9.869,9.9431,9.9353,9.869,9.9431,9.9744,9.9783,10.0095,10.0095,9.9666,9.8807,9.7636,9.6074,9.299,8.8455,8.3497,8.1779,7.8461,0.0,7.3743,7.2594,7.1564,7.1559,6.9068,6.5643,6.2885,5.8566,5.4092,5.1433,5.0279,5.0087,5.1125,5.3356,5.6319,6.0319,6.1973,6.3666,6.7013,6.9744,7.2206,7.4399,7.7092,7.9823,0.0,8.4439,8.6055,8.7401,8.9248,8.9748,8.7902,8.8902,9.0594,9.2787,9.2364,9.2441,9.3595,9.3518,9.348,9.3672,9.4326,9.4557,9.4249,9.4864,9.4518,9.3018,9.2787,9.2172,9.121,9.0825,9.0864,9.1171,9.0671,9.021,8.971,8.8979,8.8209,8.7325,8.6478,8.6094,8.5978,8.4824,8.4362,8.4093,8.19,8.1093,8.1016,0.0,0.0,0.0,2.557,2.678,2.8092,2.8994,3.0583,3.2794,3.5862,3.7575,3.9325,4.1452,4.2669,4.3606,4.4231,5.0413,5.7307,6.4414,7.4372,8.3264,9.0609,9.5293,9.8221,9.9314,10.0212,10.0603,10.0603,10.0915,10.0798,10.029,10.0485,10.0485,10.029,10.0798,10.0993,10.0993,10.1188,10.111,10.0603,9.9705,9.787,9.5293,9.1577,8.6347,8.0719,7.9047,7.51,7.0431,6.8548,6.7402,6.6934,6.7832,6.6183,6.359,6.1876,5.8357,5.4362,5.149,5.1819,5.3164,5.4126,5.7857,6.205,6.5089,6.709,6.9206,7.236,7.4668,7.6746,7.8823,8.0439,8.2362,8.5286,8.617,8.6978,8.8479,8.921,8.8632,8.6055,8.6671,8.8094,9.021,9.1056,9.1979,9.3249,9.3941,9.4249,9.4057,9.5249,9.548,9.4441,9.5403,9.5172,9.3557,9.3633,9.321,9.2249,9.1787,9.1556,9.1518,9.0671,8.9825,8.9017,8.8786,8.8209,8.7325,8.6478,8.6094,8.6017,8.5209,8.4747,8.4286,8.2208,8.1439,8.1323,0.0,0.0,0.0,0.0,2.7201,2.808,2.896,3.0559,3.2362,3.4156,3.5232,3.6865,3.9579,4.142,4.2435,4.2474,4.8671,5.5574,6.2623,7.2626,8.1792,8.9704,9.4942,9.8494,10.0212,10.1117,10.15,10.15,10.2281,10.1891,10.029,10.111,10.0993,10.0407,10.2008,10.2711,10.2789,10.3608,10.2984,10.1383,10.0603,9.7714,9.3412,8.9001,8.3575,7.8071,7.6354,6.9604,6.1618,6.2394,6.086,5.8918,6.0597,6.1593,6.1828,6.0092,5.6599,5.2897,5.1183,5.3087,5.6395,5.9704,6.3128,6.6782,7.0975,7.3245,7.5168,7.7746,7.9015,7.9939,8.0862,8.1708,8.2862,8.467,8.6286,8.7671,8.8556,8.8709,8.7786,8.5247,8.4247,8.4132,0.0,8.7363,8.9825,9.2364,9.2556,9.3249,9.4864,9.5018,9.5403,9.6211,9.5441,9.5403,9.6172,9.4518,9.4095,9.4864,9.3249,9.2441,9.2441,9.1556,9.071,8.9825,8.9017,8.8209,8.7325,8.6478,8.6094,8.6017,8.5209,8.4362,8.3516,8.2593,8.2247,8.2131,0.0,0.0,0.0,0.0,0.0,2.8694,2.9013,3.0047,3.1476,3.3256,3.5321,0.0,0.0,0.0,0.0,0.0,4.6917,5.2514,5.8909,6.8979,7.7454,8.3646,9.1655,9.6269,9.6847,9.9392,10.072,10.072,10.0993,10.111,10.111,10.1383,10.1696,10.2008,10.2515,10.2789,10.2781,10.3093,10.2593,10.1305,9.8729,9.5762,9.2202,8.6705,7.9322,7.143,0.0,6.3258,5.8278,5.6154,5.4805,5.4265,5.5378,5.5574,5.4979,5.3282,5.3415,5.4199,5.4741,5.8165,6.2435,6.5859,6.9244,7.2552,7.5668,7.7246,7.8169,7.8438,7.7861,7.7015,7.6207,7.7207,7.8861,8.117,8.4324,8.6824,8.7709,8.8786,8.7517,8.217,8.3247,0.0,0.0,0.0,0.0,9.221,9.2979,9.4057,9.5788,9.5865,9.6019,9.6288,9.6019,9.5711,9.5441,9.4864,9.4134,9.3326,9.2172,9.1941,9.2479,9.1595,9.071,8.9863,8.9056,8.8209,8.7325,8.6478,8.6094,8.6017,8.5209,8.5055,8.5016,8.3016,8.267,8.2939,0.0,0.0,0.0,0.0,0.0,0.0,0.0,0.0,0.0,0.0,0.0,0.0,0.0,0.0,0.0,0.0,0.0,4.8866,5.4039,6.2603,7.0097,7.5982,8.3068,8.7283,8.8174,9.0399,9.2155,9.3412,9.431,9.5676,9.7394,9.7979,9.8565,9.915,10.0095,10.0477,10.0517,10.0517,9.9424,9.7394,9.3373,8.9352,8.5083,7.8728,7.1436,0.0,5.9397,5.5943,5.3224,5.091,5.01,5.0177,5.0431,5.0488,5.0447,4.9989,5.2717,5.6376,5.8619,6.3205,6.8052,7.1168,7.4245,7.7015,7.8977,7.9361,7.8938,7.7438,7.5553,7.3668,7.2014,7.2091,7.3707,7.7784,8.0708,8.3516,8.6517,8.7363,8.594,8.1246,8.1823,8.1631,0.0,0.0,0.0,9.0325,9.2287,9.3903,9.5288,9.598,9.6288,9.6288,9.6288,9.6019,9.548,9.5441,9.4595,9.2903,9.1748,9.1479,9.2018,9.1479,9.0556,8.944,8.8902,8.8017,8.6901,8.6324,8.6094,8.6055,8.5517,8.5478,8.544,8.3478,8.2901,8.2939,0.0,0.0,0.0,0.0,0.0,0.0,0.0,0.0,0.0,0.0,0.0,0.0,0.0,0.0,0.0,0.0,0.0,0.0,4.8415,5.422,6.0522,6.728,7.033,7.2984,7.5397,7.5631,7.7348,8.0673,8.31,8.6027,8.9391,9.0984,9.1765,9.196,9.4427,9.5559,9.5598,9.5559,9.3521,8.9891,8.488,7.9213,7.3016,6.6221,6.0895,5.6422,5.1356,4.8369,4.6814,4.6814,4.6908,4.687,4.6065,4.6985,4.8715,5.0601,5.4699,5.9371,6.2874,6.8102,7.3129,7.563,7.8092,8.0092,8.0862,7.9631,7.7553,7.4976,7.2283,6.986,6.809,6.6628,6.7859,7.4514,7.6015,7.8631,8.5286,8.4978,8.367,0.0,0.0,0.0,0.0,0.0,0.0,8.7055,0.0,9.2787,9.3787,9.5403,9.6288,9.6288,9.6288,9.6288,9.6288,9.6211,9.5365,9.3749,9.2018,9.121,9.121,9.1171,9.021,8.8632,8.8632,8.7671,8.6094,8.6094,8.6094,8.6094,8.6055,8.5593,8.4863,8.3939,8.3093,8.2247,0.0,0.0,0.0,0.0,0.0,0.0,0.0,0.0,0.0,0.0,0.0,0.0,0.0,0.0,0.0,0.0,0.0,0.0,4.6463,5.1693,5.6368,6.0046,6.6527,7.0319,7.087,7.3525,7.5321,7.618,7.6795,7.8266,8.0413,8.0843,8.174,8.299,8.3653,8.4239,8.4661,8.4076,8.2827,8.0977,7.7149,7.3006,6.873,6.4366,5.922,5.3976,5.1969,4.8964,4.595,4.595,4.7178,4.8715,4.8484,5.0023,5.2625,5.6198,5.9971,6.4162,6.9432,7.3822,7.7361,7.9323,8.0285,8.0669,8.0246,7.7823,7.4784,7.1629,6.6936,6.2474,5.9473,6.1204,6.4666,6.9552,7.6169,0.0,8.7325,8.9286,0.0,8.5555,0.0,8.5593,8.2016,8.4555,0.0,0.0,8.9363,9.2056,9.548,9.6057,9.6288,9.6288,9.6288,9.6288,9.6288,9.5018,9.448,9.4634,9.2326,9.121,9.1171,9.0517,8.9325,8.7709,8.7709,8.7094,8.6094,8.6094,8.6094,8.6055,8.544,8.544,8.5632,8.4132,8.3439,8.3131,0.0,0.0,0.0,0.0,0.0,0.0,0.0,0.0,0.0,0.0,0.0,0.0,0.0,0.0,0.0,0.0,0.0,0.0,0.0,4.6894,5.0172,5.2358,5.6722,5.9412,6.0093,6.1772,6.3572,6.5403,6.6258,6.8284,7.148,7.187,7.2768,7.4062,7.4764,7.5305,7.5612,7.5117,7.3872,0.0,0.0,6.469,6.1428,5.7989,5.4301,5.085,5.0023,4.8407,4.6947,4.8446,4.9637,5.0853,5.2708,5.5063,5.7935,6.2171,6.5838,6.9557,7.4388,7.7639,7.9939,8.1285,8.1054,7.9823,7.7092,7.413,7.0437,6.5205,6.055,5.6665,5.3972,5.5742,5.9627,6.5743,0.0,0.0,8.6594,8.9133,8.9787,0.0,8.894,0.0,8.5901,8.7478,8.9094,0.0,9.071,9.2249,9.5018,9.5865,9.6288,9.6288,9.6288,9.6288,9.6288,9.4941,9.4518,9.498,9.2826,9.1556,9.1171,9.0325,8.8979,8.7401,0.0,8.6901,8.6094,8.6094,8.6094,8.6055,8.5593,8.5709,8.594,8.4632,8.3939,8.3478,0.0,0.0,0.0,0.0,0.0,0.0,0.0,0.0,0.0,0.0,3.4737,0.0,0.0,0.0,0.0,0.0,0.0,0.0,0.0,0.0,4.4153,4.5913,4.6048,4.677,4.8281,4.7819,4.9357,5.3096,5.4736,5.7903,6.2436,6.3174,6.4032,6.497,6.6336,6.7068,6.7266,6.7017,6.5556,6.3008,5.9224,5.6097,5.334,0.0,4.8621,4.7679,4.6968,4.7178,4.8369,5.2219,5.3338,5.3822,5.8016,6.1133,6.41,6.8321,7.1756,7.4919,7.843,8.053,8.1862,8.2362,8.1054,7.8323,7.3322,6.9706,6.5397,5.828,5.4511,5.2049,5.0471,5.1125,5.4703,6.3205,6.8359,7.4784,8.5016,8.7286,8.8825,9.1248,9.0364,8.9748,9.0364,8.9863,9.0748,9.3633,9.321,9.3172,9.398,9.548,9.6288,9.6288,9.6288,9.6288,9.6288,9.5441,9.498,9.498,9.3287,9.2056,9.1171,9.0325,8.8979,8.7401,0.0,0.0,8.6094,8.6094,8.6094,8.6094,8.6094,8.6094,8.6017,8.5324,8.4516,8.3632,0.0,0.0,0.0,0.0,0.0,0.0,0.0,0.0,0.0,0.0,3.6392,3.4943,0.0,0.0,0.0,0.0,0.0,0.0,0.0,0.0,0.0,4.5781,4.6574,4.7075,4.7341,4.7975,4.8666,4.9427,4.9852,5.0906,5.2475,5.2628,5.3522,5.5009,5.5166,5.5987,5.7168,5.6425,5.5768,5.5075,5.3629,5.1511,4.9163,4.8548,0.0,0.0,4.5876,4.5911,4.6989,5.3166,5.7054,5.9873,6.3465,6.6796,7.0202,7.4497,7.6639,7.8551,8.2644,8.4516,8.4939,8.367,8.1016,7.7592,7.3206,6.6974,6.0935,5.678,5.2202,4.8702,4.774,4.9933,5.4703,6.3205,6.936,7.663,8.6824,8.9556,9.121,9.3056,9.3633,9.3672,9.3095,9.3557,0.0,0.0,0.0,9.4941,9.5788,9.6134,9.6288,9.6288,9.6288,9.6288,9.6288,9.5441,9.498,9.498,9.3287,9.2056,9.1171,9.0325,8.8979,8.7401,8.7401,0.0,8.6094,8.6094,8.6094,8.6094,8.6094,8.6094,8.6094,8.594,8.5401,8.4555,0.0,0.0,0.0,0.0,0.0,0.0,0.0,3.7218,3.9554,4.3888,4.231,4.0246,3.8824,3.8271,3.7998,0.0,0.0,0.0,0.0,0.0,0.0,4.4359,4.5663,4.6352,4.6313,4.6814,4.7341,4.7756,0.0,4.7929,4.9192,4.8759,4.9211,5.0409,5.0258,5.0874,5.2011,5.1549,5.1549,5.1857,5.1414,5.0279,4.8779,4.8779,0.0,0.0,4.5778,4.6142,4.7679,5.2685,5.723,6.1848,6.7927,7.2141,7.5526,7.8922,8.0498,8.1914,8.5286,8.617,8.5901,8.5093,8.1016,7.5515,6.9052,6.2666,5.6665,5.151,4.8509,4.6663,4.6278,4.8971,5.3318,5.9627,6.4551,7.1437,8.2516,8.5517,8.8325,9.3133,9.4864,9.5518,9.5095,9.5441,9.5672,0.0,0.0,9.5865,9.6288,9.6288,9.6288,9.6288,9.6288,9.6288,9.6288,9.5903,9.5441,9.498,9.371,9.2441,9.1171,8.9863,8.8594,8.7363,8.6901,0.0,8.6094,8.6094,8.6094,8.6094,8.6094,8.6094,8.6094,8.6094,8.5593,8.4863,0.0,0.0,0.0,0.0,0.0,0.0,0.0,3.9813,4.2398,4.8428,4.8487,4.6485,4.2572,4.0482,3.908,0.0,0.0,0.0,0.0,0.0,0.0,0.0,0.0,4.5586,4.5586,0.0,0.0,4.6775,4.618,0.0,0.0,0.0,0.0,0.0,4.8048,4.8491,4.9279,4.9163,4.9644,0.0,0.0,4.9721,4.9087,0.0,0.0,0.0,0.0,4.6467,4.812,5.1734,5.5808,6.0789,6.8405,7.409,7.8369,8.0362,8.2593,8.4901,8.7094,8.7594,8.7286,8.6555,8.1016,7.3591,6.5436,5.9088,5.3164,4.7124,4.574,4.5586,4.5586,4.7932,5.1433,5.6203,5.955,6.5705,7.7592,8.117,8.5209,9.2326,9.5018,9.6288,9.6288,9.6288,0.0,0.0,0.0,0.0,9.6288,9.6288,9.6288,9.6288,9.6288,9.6288,9.6288,9.6288,9.5865,9.498,9.4095,9.2903,9.1441,8.971,8.8479,8.7632,8.6748,0.0,0.0,8.6094,8.6094,8.6094,8.6094,8.6094,8.6094,8.6094,8.5709,8.5132,0.0,0.0,0.0,0.0,0.0,0.0,0.0,4.1792,4.5916,5.1915,5.1992,5.0413,4.7719,4.5192,4.2497,0.0,0.0,0.0,0.0,0.0,0.0,0.0,0.0,0.0,0.0,0.0,0.0,4.5757,4.5796,0.0,0.0,0.0,0.0,0.0,0.0,4.7486,4.8235,4.8203,0.0,0.0,0.0,0.0,0.0,0.0,0.0,0.0,0.0,4.5719,4.6467,5.0619,5.3374,5.5884,6.0509,6.8527,7.6275,7.6515,8.1554,8.7248,8.8286,9.021,9.1171,8.8055,8.1016,7.3014,6.6051,5.8127,5.1202,4.7548,4.6163,4.5586,4.5586,4.6509,4.9394,5.5934,5.855,6.3897,7.5861,8.0939,8.544,9.0787,9.4326,9.6288,9.6288,9.6288,0.0,0.0,0.0,0.0,9.6288,9.6288,9.6288,9.6288,9.6288,9.6288,9.6288,9.6288,9.5865,9.498,9.4095,9.3249,9.2326,9.0594,8.9363,8.8517,8.7671,0.0,0.0,8.6094,8.6094,8.6094,8.6094,8.6094,8.6094,8.6094,8.6055,8.5901,0.0,0.0,0.0,0.0,0.0,0.0,3.9895,4.1831,4.5611,5.364,5.3985,5.308,5.2066,4.9679,4.5757,3.9822,0.0,0.0,0.0,0.0,0.0,0.0,0.0,0.0,0.0,0.0,4.5586,4.5586,4.5624,0.0,0.0,0.0,0.0,0.0,0.0,4.6583,4.737,4.7373,0.0,0.0,0.0,0.0,0.0,0.0,0.0,0.0,0.0,0.0,4.5873,4.7542,4.9602,5.1626,5.2801,5.8765,6.6577,7.2706,7.8438,8.3785,8.8209,9.0556,9.1133,8.8748,8.14,7.2783,6.5474,5.7665,5.0818,4.6932,4.5817,4.5586,4.5586,4.5893,4.7509,5.1741,5.2549,5.628,6.6667,7.0475,7.5745,8.5478,8.9171,9.2364,0.0,0.0,0.0,0.0,0.0,0.0,9.6288,9.6288,9.6288,9.6288,9.6288,9.6288,9.6288,9.6288,9.5595,9.421,9.3864,9.2979,9.1672,8.994,8.8979,8.8632,8.7209,0.0,0.0,8.6094,8.6094,8.6094,8.6094,8.6094,8.6094,8.6094,8.6094,8.6055,0.0,0.0,0.0,0.0,0.0,3.4267,4.0087,4.1601,4.5016,5.3157,5.3958,5.3721,5.3713,5.0778,4.6716,4.1617,4.0239,0.0,0.0,0.0,0.0,0.0,0.0,0.0,0.0,0.0,4.5586,4.5586,4.5586,4.5586,0.0,0.0,4.5586,4.5586,0.0,0.0,0.0,0.0,0.0,0.0,0.0,0.0,0.0,0.0,0.0,0.0,0.0,0.0,0.0,0.0,0.0,4.8183,4.7548,5.101,5.7203,6.6898,7.3976,7.9939,8.5747,8.8863,9.0056,8.8363,8.09,7.2091,6.4936,5.7203,5.0394,4.6432,4.5586,4.5586,4.5586,4.5586,4.6432,4.8971,4.9086,5.1972,6.0858,6.3974,6.9244,7.9708,0.0,8.7401,0.0,0.0,0.0,0.0,0.0,0.0,0.0,9.6288,9.6288,9.6288,9.6288,9.6288,9.6288,9.6288,9.5441,9.371,9.371,9.2826,9.1171,8.971,8.894,8.8632,8.7132,0.0,0.0,8.6094,8.6094,8.6094,8.6094,8.6094,8.6094,8.6094,8.6094,8.6094,0.0,0.0,0.0,0.0,0.0,0.0,3.8438,4.137,4.4861,5.0066,5.1463,5.192,5.192,4.7395,4.4662,4.5472,4.2456,0.0,0.0,0.0,0.0,0.0,0.0,0.0,0.0,0.0,4.5586,4.5586,4.5586,4.5586,4.5586,4.5586,4.5586,4.5586,0.0,0.0,0.0,0.0,0.0,0.0,0.0,0.0,4.5586,0.0,0.0,0.0,0.0,0.0,0.0,0.0,0.0,0.0,0.0,4.6817,4.9894,5.8434,6.809,7.6784,8.0246,8.4863,8.8286,8.6555,7.9131,7.0667,6.4666,5.678,4.974,4.6317,4.5586,4.5586,4.5586,4.5586,4.6432,4.8971,5.0125,5.3356,6.1012,6.4974,6.8975,7.4168,7.7823,8.19,8.7017,0.0,0.0,0.0,0.0,0.0,0.0,9.6288,9.6288,9.6288,9.6288,9.6288,9.6288,9.6288,9.5441,9.371,9.371,9.2826,9.1171,9.0287,8.944,0.0,0.0,0.0,0.0,8.6094,8.6094,8.6094,8.6094,8.6094,8.6094,8.6094,8.6094,8.6094,0.0,0.0,0.0,0.0,0.0,0.0,0.0,3.7778,4.0745,4.645,4.6912,4.7604,4.9949,4.6178,4.3819,4.4646,4.1632,0.0,0.0,0.0,0.0,0.0,0.0,0.0,0.0,4.5163,4.6142,4.7293,4.7293,4.7619,4.8176,4.758,4.7024,4.6467,4.5873,4.5586,0.0,0.0,0.0,0.0,0.0,4.5834,4.5586,0.0,0.0,0.0,0.0,0.0,0.0,0.0,0.0,0.0,0.0,0.0,0.0,5.1702,5.9819,6.809,7.1475,7.5322,7.7476,7.3976,6.959,6.4589,5.8627,5.3857,4.974,4.6278,4.5586,4.5586,4.5586,4.5586,4.6817,5.051,5.1856,5.4087,5.8819,6.3397,6.9013,7.6399,8.594,9.2326,0.0,0.0,0.0,0.0,0.0,0.0,0.0,9.6288,9.6288,9.6288,9.6288,9.6288,9.6288,9.6288,9.5441,9.371,9.371,9.2826,9.1171,8.9748,8.894,0.0,0.0,0.0,0.0,8.6094,8.6094,8.6094,8.6094,8.6094,8.6094,8.6094,8.6094,8.6094,0.0,0.0,0.0,0.0,0.0,0.0,0.0,3.5643,3.7901,4.2607,4.2733,4.3813,4.7564,4.3903,4.2145,4.4569,4.1424,0.0,0.0,0.0,0.0,0.0,0.0,0.0,4.4282,4.4837,4.6257,4.86,4.8931,4.951,5.0356,5.0105,4.9083,4.7332,4.6775,4.618,0.0,0.0,0.0,0.0,4.547,4.5393,4.5163,0.0,0.0,0.0,0.0,0.0,0.0,0.0,0.0,0.0,0.0,0.0,0.0,0.0,5.301,5.9088,6.3782,6.7782,6.9898,6.6898,6.3782,6.0204,5.5549,5.201,4.8933,4.6163,4.5586,4.5586,4.5586,4.5586,4.6547,4.9548,5.101,5.3087,5.6819,6.1973,0.0,7.79,0.0,0.0,0.0,0.0,0.0,0.0,0.0,0.0,0.0,9.6288,9.6288,9.6288,9.6288,9.6288,9.6288,9.598,9.5095,9.371,9.3403,9.2518,9.1171,8.9787,8.8979,0.0,0.0,0.0,0.0,8.6094,8.6094,8.6094,8.6094,8.6094,8.6094,8.6094,8.6094,8.6094,0.0,0.0,0.0,0.0,0.0,0.0,0.0,3.4721,3.6224,3.8708,3.9092,4.0631,4.4626,4.0761,3.9838,4.4716,4.1617,0.0,0.0,0.0,0.0,0.0,0.0,0.0,4.4299,4.4359,4.6065,4.9483,5.0374,5.125,5.2193,5.2992,5.1549,4.8291,4.8214,4.7216,0.0,0.0,0.0,0.0,4.5278,4.5124,0.0,0.0,0.0,0.0,0.0,0.0,0.0,0.0,0.0,0.0,0.0,0.0,0.0,0.0,0.0,0.0,0.0,6.1589,6.4551,6.3512,6.0396,5.6934,5.4434,5.0818,0.0,4.5932,4.5586,4.5624,4.574,4.5663,4.597,4.7163,4.8702,5.1202,5.5318,6.155,0.0,0.0,8.5709,0.0,0.0,0.0,0.0,0.0,0.0,0.0,0.0,9.6288,9.6288,9.6288,9.6249,9.6211,9.6211,9.5403,9.4518,9.3595,9.2864,9.2018,9.1095,9.021,8.9363,0.0,0.0,0.0,0.0,8.6094,8.6094,8.6094,8.6094,8.6094,8.6094,8.6094,8.6094,8.6094,0.0,0.0,0.0,0.0,0.0,0.0,0.0,0.0,0.0,0.0,3.693,3.7935,3.9623,3.8108,3.8009,0.0,0.0,0.0,0.0,0.0,0.0,0.0,0.0,0.0,4.4283,4.4966,4.6985,5.0387,5.1195,5.2709,5.4814,5.5023,5.3301,5.0061,4.9388,4.7773,0.0,0.0,0.0,0.0,4.5517,4.5461,0.0,0.0,0.0,0.0,4.5586,4.5586,0.0,0.0,0.0,0.0,0.0,0.0,0.0,0.0,4.6124,4.7702,4.8625,0.0,5.3587,5.0779,5.0279,5.001,0.0,4.7432,4.6894,4.5817,4.5586,4.597,4.7278,4.6471,4.6932,5.1048,5.2626,5.4318,5.728,6.8398,0.0,0.0,0.0,0.0,0.0,0.0,0.0,0.0,0.0,0.0,0.0,9.6288,9.6288,9.6288,9.5634,9.5288,9.5288,9.5095,9.4249,9.2787,9.2595,9.171,9.0171,8.9363,8.8517,0.0,0.0,0.0,8.6094,8.6094,8.6094,8.6094,8.6094,8.6094,8.6094,8.6094,8.6094,8.6094,0.0,0.0,0.0,0.0,0.0,0.0,0.0,0.0,0.0,0.0,3.593,3.7049,3.791,3.7916,3.837,0.0,0.0,0.0,0.0,0.0,0.0,0.0,0.0,4.347,4.4289,4.4757,4.7258,5.1857,5.2675,5.458,5.744,5.7428,5.5245,5.1145,4.8736,4.6908,0.0,0.0,0.0,4.5047,4.5461,0.0,0.0,0.0,0.0,0.0,4.5141,4.5257,0.0,4.5124,4.5278,4.5432,0.0,0.0,0.0,0.0,4.497,4.5701,4.5624,4.7509,4.8971,4.674,4.6894,4.7317,4.6394,4.624,4.6163,4.5701,4.5586,4.5855,4.6778,4.6201,4.6894,5.0818,5.251,5.5972,6.3628,0.0,8.2401,8.944,0.0,0.0,0.0,0.0,0.0,0.0,0.0,9.6749,9.6326,9.6288,9.6134,9.5711,9.5249,9.498,9.498,9.4249,9.3403,9.2479,9.171,9.0825,8.9863,8.8632,8.7863,0.0,0.0,0.0,8.6094,8.6094,8.6094,8.6094,8.6094,8.6094,8.6094,8.6094,8.6094,8.6094,0.0,0.0,0.0,0.0,0.0,0.0,0.0,0.0,0.0,0.0,0.0,0.0,0.0,0.0,0.0,0.0,0.0,0.0,0.0,0.0,0.0,0.0,4.2437,4.3457,4.4666,4.4435,4.7106,5.28,5.4079,5.6284,5.9326,5.9819,5.7225,5.1933,4.7951,4.595,4.5586,4.5586,4.5163,4.4568,4.5163,0.0,0.0,0.0,0.0,0.0,0.0,0.0,0.0,4.4393,4.4701,4.524,4.4239,0.0,0.0,0.0,0.0,0.0,4.5624,4.7124,4.8048,4.6971,4.6817,4.6894,4.674,4.6124,4.5586,4.5586,4.5586,4.5701,4.6086,4.6278,4.724,4.9933,5.2318,5.8434,7.1514,7.7515,8.3747,0.0,0.0,0.0,0.0,0.0,0.0,0.0,0.0,9.6442,9.6326,9.6288,9.5903,9.5018,9.4864,9.4672,9.4403,9.3133,9.2441,9.2287,9.0671,8.9863,8.9671,8.8094,8.7325,8.7171,0.0,0.0,8.6094,8.6094,8.6094,8.6094,8.6094,8.6094,8.6094,8.6094,8.6094,8.6094,0.0,0.0,0.0,0.0,0.0,0.0,0.0,0.0,0.0,0.0,0.0,0.0,0.0,0.0,0.0,0.0,0.0,0.0,0.0,0.0,0.0,4.0739,4.1524,4.3393,4.6454,4.5051,4.6527,5.1064,5.405,5.6524,5.8527,6.1373,5.9237,5.2875,5.0061,4.7619,4.5586,4.5586,4.5509,4.5355,4.4718,0.0,0.0,0.0,0.0,0.0,0.0,0.0,0.0,4.3547,4.3816,4.4239,4.2662,0.0,0.0,0.0,0.0,0.0,4.6894,4.8432,4.8663,4.6355,4.6355,4.6701,4.597,4.5701,4.5586,4.5586,4.5586,4.624,4.8432,4.9433,5.0971,0.0,0.0,6.6397,0.0,0.0,0.0,0.0,0.0,0.0,0.0,0.0,0.0,0.0,0.0,0.0,9.6326,9.6288,9.5903,9.5018,9.4287,9.321,9.1787,9.2249,9.2133,9.1402,9.0402,8.9556,8.8863,8.7863,8.7017,8.6286,0.0,8.6094,8.6094,8.6094,8.6094,8.6094,8.6094,8.6094,8.6094,8.6094,8.6094,8.6094,0.0,0.0,0.0,0.0,0.0,0.0,0.0,0.0,0.0,0.0,0.0,0.0,0.0,0.0,0.0,0.0,0.0,0.0,0.0,0.0,4.247,4.3893,4.3871,4.4603,4.6145,4.676,4.9798,5.5458,5.7482,6.0277,6.3719,6.1127,5.7268,5.2338,4.889,4.6698,4.5586,4.5586,4.5586,4.5547,0.0,0.0,0.0,0.0,0.0,0.0,0.0,0.0,0.0,0.0,4.3239,4.4008,4.2316,0.0,0.0,0.0,0.0,0.0,4.4855,4.6355,4.7163,4.6471,4.7625,4.8471,4.6701,4.5932,4.5855,4.674,4.6932,4.774,5.0279,5.2202,5.5241,6.0935,0.0,0.0,0.0,0.0,0.0,0.0,0.0,0.0,0.0,0.0,0.0,0.0,0.0,0.0,9.5634,9.5134,9.4518,9.3672,9.2787,9.1748,9.0517,9.0441,9.0248,8.9825,8.8979,8.8363,8.7979,8.7094,8.6478,8.6094,0.0,8.6094,8.6094,8.6094,8.6094,8.6094,8.6094,8.6094,8.6094,8.6094,8.6094,8.6094,0.0,0.0,0.0,0.0,0.0,0.0,0.0,0.0,0.0,0.0,0.0,0.0,0.0,0.0,0.0,0.0,0.0,0.0,0.0,4.17,4.297,4.5586,4.6009,4.6663,4.7663,4.9586,5.351,5.9511,6.1358,6.4282,6.7936,6.1089,5.5857,5.2049,4.8202,4.6163,4.5586,4.5586,4.5586,4.5586,0.0,0.0,0.0,0.0,0.0,0.0,0.0,0.0,0.0,0.0,0.0,0.0,0.0,0.0,0.0,4.2316,4.197,4.2162,4.3816,4.5086,4.6163,4.724,4.8663,4.9548,4.8586,4.7702,4.7663,4.974,5.001,5.0548,5.2702,5.5818,0.0,6.7705,0.0,0.0,0.0,0.0,0.0,0.0,0.0,0.0,0.0,0.0,0.0,0.0,0.0,0.0,9.4441,9.3787,9.2941,9.1902,9.1248,9.0402,8.9325,8.8709,8.8479,8.8671,8.7825,8.7401,8.7363,8.6517,8.6094,8.6094,8.6094,8.6094,8.6094,8.6094,8.6094,8.6094,8.6094,8.6094,8.6094,8.6094,8.6094,8.6094,0.0,0.0,0.0,0.0,0.0,0.0,0.0,0.0,0.0,0.0,0.0,0.0,0.0,0.0,0.0,0.0,0.0,0.0,0.0,4.1354,4.1931,4.2162,4.5855,4.9779,5.378,5.4049,5.5895,5.9511,6.4282,6.6821,6.709,6.2627,5.7857,5.301,5.0317,4.7817,4.5586,4.5586,4.5586,4.5509,4.4701,0.0,0.0,0.0,0.0,0.0,0.0,0.0,0.0,0.0,0.0,0.0,0.0,0.0,4.3085,4.3008,4.2431,4.2662,4.6663,4.7278,4.7201,4.8817,4.8202,4.8163,5.1895,5.2087,5.2395,5.5665,5.5703,5.5472,5.6472,6.132,6.7128,7.3168,0.0,0.0,0.0,0.0,0.0,0.0,0.0,0.0,0.0,0.0,0.0,0.0,0.0,0.0,9.2749,9.2633,9.1825,9.0133,9.0056,8.921,8.7594,8.7517,8.7902,8.8671,8.7825,8.7401,8.7363,8.6517,8.6094,8.6094,8.6094,8.6094,8.6094,8.6094,8.6094,8.6094,8.6094,8.6094,8.6094,8.6094,8.6094,8.6094,0.0,0.0,0.0,0.0,0.0,0.0,0.0,0.0,0.0,0.0,0.0,3.8613,3.9409,0.0,0.0,0.0,0.0,0.0,0.0,4.1316,4.297,4.5586,4.724,4.9856,5.3626,5.678,6.0858,6.5859,6.8821,6.9167,6.6974,6.1166,5.628,5.2241,4.8625,4.6778,4.6355,4.5817,4.5893,4.6317,4.547,4.4778,0.0,0.0,0.0,0.0,0.0,0.0,0.0,0.0,4.1316,4.2393,4.1123,4.2162,4.3624,4.2585,4.2047,4.2277,4.4393,4.5547,4.6471,4.8163,4.9317,5.0702,5.3395,5.4126,5.5665,6.0704,6.1897,6.2627,6.4551,0.0,7.1591,7.6976,0.0,0.0,0.0,0.0,0.0,0.0,0.0,0.0,0.0,0.0,0.0,0.0,0.0,0.0,9.0941,9.0402,8.9825,8.9171,8.8632,8.8055,8.7401,8.6863,8.6748,8.7094,8.6748,8.6594,8.6594,8.6247,8.6094,8.6094,8.6094,8.6094,8.6094,8.6094,8.6094,8.6094,8.6094,8.6094,8.6094,8.6094,8.6094,8.6094,0.0,0.0,0.0,0.0,0.0,0.0,0.0,0.0,3.5823,0.0,0.0,0.0,0.0,3.9109,0.0,0.0,0.0,0.0,4.0123,4.1162,4.3085,4.597,4.7394,4.9586,5.2741,5.8319,6.332,6.7667,7.0206,6.9513,6.5782,6.0089,5.5742,5.2549,4.8856,4.7548,4.8009,4.6894,4.6586,4.6817,4.5663,4.4816,0.0,0.0,0.0,0.0,0.0,0.0,0.0,0.0,4.1046,4.2124,4.1162,4.2277,4.3816,4.3162,4.2624,4.2393,4.3239,4.4124,4.5278,4.724,4.9625,5.2664,5.7088,5.8319,6.0281,6.6513,6.7436,6.7705,6.9706,7.1014,0.0,0.0,0.0,0.0,0.0,0.0,0.0,0.0,0.0,0.0,0.0,0.0,0.0,0.0,0.0,0.0,0.0,8.8594,8.8171,8.7902,8.7286,8.6978,8.6978,8.6401,8.6094,8.6094,8.6094,8.6094,8.6094,8.6094,8.6094,8.6094,8.6094,8.6094,8.6094,8.6094,8.6094,8.6126,8.6126,8.6126,8.6126,8.6126,8.6126,8.6132,0.0,0.0,0.0,0.0,0.0,0.0,0.0,0.0,3.6501,3.6501,3.7185,0.0,0.0,0.0,0.0,0.0,0.0,0.0,3.9323,4.0838,4.1777,4.1816,4.5817,4.924,5.1779,5.8511,6.2435,6.3358,6.759,6.7475,6.3205,5.9858,5.6896,5.4357,5.1818,5.0702,5.0548,4.8817,4.7625,4.674,4.5009,4.4316,4.4124,0.0,0.0,0.0,0.0,0.0,0.0,0.0,4.12,4.0931,4.347,4.3739,4.347,4.5086,4.4432,4.3316,4.4085,4.3739,4.3739,4.6317,4.8894,5.3433,6.3589,6.5243,6.659,7.3399,7.2129,7.0052,7.086,7.0975,0.0,0.0,0.0,0.0,0.0,0.0,0.0,0.0,0.0,0.0,0.0,0.0,0.0,0.0,0.0,0.0,0.0,8.7401,8.6978,8.6132,8.6094,8.6094,8.6094,8.6094,8.6094,8.6094,8.6094,8.6094,8.6094,8.6094,8.6094,8.6094,8.6094,8.6094,8.6094,8.6094,8.6159,8.6184,8.6184,8.6184,8.6184,8.6184,8.6159,8.6209,0.0,0.0,0.0,0.0,0.0,0.0,0.0,0.0,3.5589,3.5589,3.6348,0.0,0.0,0.0,0.0,0.0,0.0,0.0,3.8416,3.9431,4.0585,4.1739,4.4124,4.5778,4.6547,5.2049,5.8858,6.6898,6.6974,6.5166,6.1435,5.7473,5.4587,5.2664,5.1895,5.0548,4.8856,4.8317,4.7625,4.6817,4.5663,4.4855,4.4162,0.0,0.0,0.0,0.0,0.0,0.0,0.0,0.0,0.0,4.1585,4.3547,4.5509,4.4201,4.4778,4.5547,4.4586,4.5009,4.6394,4.8933,5.3241,5.8627,6.5243,6.7013,7.0052,7.9862,7.9169,7.7053,7.7938,7.7553,0.0,0.0,0.0,0.0,0.0,0.0,0.0,0.0,0.0,0.0,0.0,0.0,0.0,0.0,0.0,0.0,0.0,8.6478,8.6094,8.5286,8.5786,8.5824,8.5247,8.5824,8.6094,8.6094,8.6094,8.6094,8.6094,8.6094,8.6094,8.6094,8.6159,8.6191,8.6191,8.6293,8.6323,8.6354,8.6254,8.6254,8.6354,8.6254,8.6184,8.6191,0.0,0.0,0.0,0.0,0.0,0.0,3.447,3.4699,3.483,3.5152,3.5675,3.6151,0.0,0.0,0.0,3.6733,3.78,0.0,3.8031,3.9123,4.0392,4.1739,4.3085,4.4778,4.6778,5.151,5.6549,6.1858,6.2204,6.0781,5.7742,5.6588,5.528,5.3972,5.4972,5.3818,5.1087,5.0394,4.9048,4.7278,4.6086,4.5278,4.4701,0.0,0.0,0.0,0.0,0.0,0.0,0.0,0.0,0.0,4.1085,4.2777,4.4701,4.3816,4.4201,4.4778,4.4393,4.5586,4.7663,5.0894,5.6165,6.2397,6.9513,7.2591,7.5899,8.2939,8.2208,8.0477,8.1016,8.0092,0.0,0.0,0.0,0.0,0.0,0.0,0.0,0.0,0.0,0.0,0.0,0.0,0.0,0.0,0.0,0.0,0.0,8.5632,8.5247,8.4401,8.4863,8.4863,8.4401,8.4863,8.5093,8.5093,8.5126,8.5158,8.5197,8.5851,8.6159,8.6191,8.5907,8.5784,8.5784,8.5882,8.5941,8.595,8.623,8.6345,8.6414,8.6345,8.6285,8.6223,0.0,0.0,3.0466,3.1259,0.0,0.0,3.3653,3.3881,3.4149,3.4983,3.5162,3.5532,0.0,0.0,0.0,3.6594,3.8123,3.8753,3.8031,3.9431,4.0739,4.1777,4.2854,4.5701,5.0587,5.4241,5.4549,5.1433,5.5011,5.5511,5.3164,5.6511,5.7665,5.7088,5.9396,5.855,5.5241,5.3395,5.0779,4.774,4.6124,4.5432,4.5201,4.3662,0.0,0.0,0.0,0.0,0.0,0.0,0.0,0.0,4.1546,4.197,4.2431,4.3778,4.3278,4.2585,4.4124,4.5855,4.8317,5.2664,5.855,6.5782,7.5438,8.0054,8.2593,8.3708,0.0,8.1631,8.1554,8.0208,0.0,0.0,0.0,0.0,0.0,0.0,0.0,0.0,0.0,0.0,0.0,0.0,0.0,0.0,0.0,0.0,0.0,8.4786,8.4362,8.3516,8.3555,8.3555,8.3478,8.3555,8.3593,8.3625,8.3688,8.3719,8.3787,8.529,8.6054,8.6114,8.5304,8.5034,8.514,8.5159,8.5291,8.538,8.6191,8.65,8.65,8.65,8.6375,8.6331,0.0,0.0,3.0466,3.1259,0.0,0.0,3.2819,3.2989,3.3287,3.4149,3.432,3.4678,3.557,3.6262,0.0,3.5801,3.6699,3.7469,3.7969,3.8354,3.9508,4.17,4.4547,4.7548,5.0625,4.9625,4.8702,4.7971,5.2702,5.4049,5.2241,5.4972,5.6511,5.7011,5.755,5.5934,5.251,4.951,4.7432,4.6047,4.5009,4.4201,4.3585,4.3239,4.2124,0.0,0.0,0.0,0.0,0.0,0.0,0.0,4.1546,4.3162,4.4586,4.3624,4.4509,4.5893,4.624,4.8086,5.1202,5.6742,6.5128,7.3437,7.9015,8.1323,8.3093,8.5978,8.6286,8.5824,8.517,0.0,0.0,0.0,0.0,0.0,0.0,0.0,0.0,0.0,0.0,0.0,0.0,0.0,0.0,0.0,0.0,0.0,8.3939,8.3862,8.3478,8.2593,8.3247,8.3247,8.2593,8.3247,8.3625,0.0,8.368,8.374,8.3856,8.4185,8.4339,8.4425,8.4232,8.4568,8.5241,8.5268,8.5693,8.6312,8.6451,8.6528,8.6583,8.6528,8.6472,8.6443,0.0,0.0,0.0,0.0,0.0,0.0,0.0,0.0,3.3034,3.3876,3.4419,3.4899,3.5339,3.5839,0.0,0.0,3.6238,3.7084,3.793,3.8392,3.9777,4.2316,4.5663,4.7548,4.7625,4.7163,4.6317,4.5086,4.8125,4.9779,5.0164,5.3126,5.5395,5.7011,5.7434,5.5472,5.1741,4.9202,4.7124,4.5509,4.4662,4.4316,4.4201,4.3393,4.2277,4.1085,4.0662,0.0,0.0,0.0,0.0,0.0,0.0,0.0,4.3162,4.3124,4.3739,4.4816,4.6471,4.9356,5.4087,6.3281,7.0783,7.6938,8.0785,8.2016,8.2901,8.5132,8.5901,8.5824,8.4516,0.0,0.0,0.0,0.0,0.0,0.0,0.0,0.0,0.0,0.0,0.0,0.0,0.0,0.0,0.0,0.0,8.3901,8.3016,8.2978,8.2401,8.1131,8.1547,8.1616,8.1154,8.1223,8.1677,8.2545,8.215,8.2273,8.2806,8.3564,8.3977,8.3966,8.354,8.3915,8.4714,8.4714,8.5217,8.6029,8.6401,8.6583,8.661,8.6556,8.6528,8.65,0.0,0.0,0.0,0.0,0.0,0.0,0.0,0.0,0.0,3.367,3.4466,3.507,3.5378,3.5455,3.5493,0.0,0.0,0.0,3.7738,3.8854,4.0623,4.3201,4.6124,4.6817,4.5009,4.5932,4.5509,4.3547,4.3778,4.547,4.8625,5.1741,5.4626,5.7242,5.7357,5.5357,5.1741,4.9317,4.7086,4.5086,4.4201,4.4316,4.4778,4.3393,4.2316,4.147,4.0739,4.0508,4.0623,4.1508,0.0,0.0,0.0,0.0,4.1008,4.2431,4.247,4.2739,4.6009,5.0741,5.7511,6.909,7.4668,7.8092,8.117,8.1977,8.2285,8.3016,8.3978,8.4209,0.0,0.0,0.0,0.0,0.0,0.0,0.0,0.0,0.0,0.0,0.0,0.0,0.0,0.0,0.0,0.0,0.0,8.2785,8.19,8.1747,8.1016,7.9631,7.9614,7.9673,7.9673,7.8998,7.9439,8.0856,8.037,8.0602,8.1542,8.2973,8.3631,8.3592,8.2896,8.3051,8.3902,8.4018,8.4559,8.5372,8.6261,8.661,8.661,8.661,8.6583,8.65,0.0,0.0,0.0,0.0,0.0,0.0,0.0,0.0,0.0,0.0,3.3171,3.3813,3.5301,3.5493,3.5493,3.5493,3.5622,3.6007,3.6815,0.0,0.0,4.4047,4.5278,4.6432,4.7586,4.5663,4.4855,4.5278,4.3162,4.4932,5.0394,5.2318,5.4972,5.8011,5.5164,5.3164,5.1548,4.6201,4.3739,4.3355,4.247,4.22,4.2277,4.2047,4.1431,4.0662,4.0546,4.0508,4.0623,4.1508,4.1239,0.0,0.0,0.0,4.1662,4.1931,4.2431,4.3508,4.6201,5.3741,6.2551,6.936,7.4207,7.7784,7.9708,8.0708,8.1285,0.0,8.267,0.0,0.0,0.0,0.0,0.0,0.0,0.0,0.0,0.0,0.0,0.0,0.0,0.0,0.0,0.0,0.0,0.0,8.1823,8.1054,8.0169,7.94,7.89,7.8669,7.8758,7.8787,7.8787,7.869,7.8849,7.9134,7.9868,8.0628,8.1504,8.1736,8.1852,8.1852,8.1736,8.2161,8.3012,8.3786,8.4559,8.5372,8.6261,8.661,8.661,8.661,8.661,8.6583,0.0,0.0,0.0,0.0,0.0,0.0,0.0,0.0,0.0,0.0,0.0,3.4109,3.5339,3.5493,3.5493,3.5493,3.5493,3.5853,3.6661,3.8661,4.0508,4.2085,4.3008,4.3816,4.4547,4.347,4.3085,4.347,4.2854,4.5547,5.1395,5.3126,5.5511,5.8127,5.4241,5.1741,5.0164,4.5201,4.2547,4.1623,4.1239,4.1085,4.1085,4.1085,4.0816,4.0508,4.0508,4.0816,4.1277,4.1662,4.1854,4.1931,4.1816,0.0,0.0,0.0,4.2085,4.3431,4.8394,5.4357,6.0896,6.7782,7.1975,7.5245,7.8361,7.9746,8.0631,8.1593,8.2016,0.0,0.0,0.0,0.0,0.0,0.0,0.0,0.0,0.0,0.0,0.0,0.0,0.0,0.0,0.0,0.0,0.0,8.0554,7.9977,7.9131,7.8707,7.8314,7.7882,7.7968,7.8023,7.805,7.7628,7.7678,7.8205,7.9545,8.042,8.0807,8.1271,8.1504,8.1504,8.1504,8.2006,8.2819,8.3206,8.4134,8.5333,8.572,8.6184,8.661,8.661,8.661,8.6583,0.0,0.0,0.0,0.0,0.0,0.0,0.0,0.0,0.0,0.0,0.0,3.4199,3.5084,0.0,0.0,0.0,3.5493,3.5853,3.6661,3.793,3.9084,4.0162,4.0816,4.1162,4.1162,4.1354,4.147,4.147,4.2354,4.6009,5.2279,5.3549,5.6088,5.9396,5.5318,5.2125,4.9471,4.5663,4.3201,4.17,4.0854,4.0508,4.0508,4.0739,4.0816,4.0854,4.1085,4.1585,4.2162,4.2354,4.2585,4.2701,4.2277,4.1816,0.0,0.0,0.0,4.3393,4.9086,5.328,5.7588,6.4205,6.8398,7.1937,7.5976,7.8054,7.9631,0.0,8.1362,0.0,0.0,0.0,0.0,0.0,0.0,0.0,0.0,0.0,0.0,0.0,0.0,0.0,0.0,0.0,0.0,0.0,7.9285,7.8861,7.8207,7.8006,7.7651,7.7092,7.6943,7.6984,7.7267,7.6683,7.6823,7.7713,7.8989,7.9685,7.9918,8.0769,8.1194,8.1194,8.1387,8.189,8.2471,8.2703,8.367,8.5024,8.5217,8.5836,8.661,8.661,8.661,8.6583,0.0,0.0,0.0,0.0,0.0,0.0,0.0,0.0,0.0,0.0,0.0,3.3314,3.416,3.5007,3.5493,3.5493,3.5493,3.5853,3.6661,3.6776,3.7584,3.9277,3.9392,0.0,3.9431,4.0162,4.0546,4.0546,4.1431,4.574,5.3126,5.3241,5.678,6.2897,5.9473,5.5241,5.0471,4.7817,4.6163,4.5047,4.1777,4.0508,4.0585,4.1431,4.1739,4.1854,4.2662,4.3008,4.3162,4.3893,4.3124,4.2008,4.2777,4.1893,4.0546,0.0,0.0,0.0,4.6432,5.0202,5.428,5.7934,6.3128,6.8282,7.1745,7.5053,7.79,7.9592,0.0,0.0,0.0,0.0,0.0,0.0,0.0,0.0,0.0,0.0,0.0,0.0,0.0,0.0,0.0,0.0,0.0,0.0,7.7861,7.74,7.7361,7.664,7.6206,7.6167,7.5491,7.5528,7.6378,7.6413,7.6823,7.7713,7.779,7.8254,7.9105,7.9918,8.0266,8.0304,8.1155,8.1542,8.162,8.2471,8.3322,8.425,8.4985,8.5836,8.661,8.661,8.661,8.6583,0.0,0.0,0.0,0.0,0.0,0.0,0.0,0.0,0.0,0.0,0.0,0.0,0.0,3.5315,3.5493,3.5493,3.5493,3.5622,3.593,3.643,3.7238,3.8392,3.8469,3.8969,4.0046,3.9854,3.9969,4.0508,4.1354,4.4586,4.9971,5.2164,5.478,5.7588,5.6395,5.4857,5.2779,4.7471,4.4739,4.3855,4.2047,4.1008,4.0508,4.0854,4.0969,4.1008,0.0,0.0,4.3047,4.2777,4.3008,4.3355,4.3162,4.2277,4.1239,4.0662,4.1739,4.3547,4.5509,4.7971,5.101,5.5511,5.9435,6.3243,6.7244,7.1206,7.4668,7.6899,7.8054,0.0,0.0,0.0,0.0,0.0,0.0,0.0,0.0,0.0,0.0,0.0,0.0,0.0,0.0,0.0,0.0,0.0,0.0,7.6621,7.5022,7.5138,7.5077,7.4642,7.4383,7.4393,7.4765,7.5291,7.574,7.6049,7.7171,7.7867,7.8216,7.9569,8.0188,8.0266,8.1117,8.1504,8.1542,8.1852,8.2819,8.4134,8.4405,8.5372,8.661,8.661,8.661,8.661,0.0,0.0,0.0,3.3006,0.0,3.343,3.3699,3.3276,3.3314,3.4468,0.0,0.0,0.0,0.0,3.5493,3.5493,3.5738,3.5815,3.5545,3.6007,3.6699,3.7546,3.7853,3.8507,3.9623,3.97,3.9815,4.0085,4.1239,4.3816,4.7778,5.0587,5.2856,5.4472,5.3626,5.3703,5.4164,4.9356,4.6471,4.5047,4.3047,4.2047,4.1816,4.2431,4.2816,0.0,0.0,0.0,0.0,4.347,4.3431,4.3855,4.3585,4.2931,4.2124,4.1546,4.2393,4.3739,4.4855,4.6394,4.8933,5.401,5.6126,5.8357,6.3782,6.7205,7.009,7.3245,7.5014,0.0,0.0,0.0,0.0,0.0,0.0,0.0,0.0,0.0,0.0,0.0,0.0,0.0,0.0,0.0,0.0,0.0,0.0,0.0,7.3702,7.4152,7.4115,7.3427,7.3659,7.3721,7.3458,7.427,7.485,7.5121,7.6281,7.7132,7.7751,7.9144,7.9956,8.0266,8.1117,8.1504,8.1504,8.1504,8.2355,8.367,8.3979,8.4946,8.6184,8.6494,8.661,8.661,3.1929,3.3776,3.4968,3.3276,3.366,3.393,3.3122,3.2968,3.3006,3.3006,0.0,0.0,0.0,0.0,0.0,3.5622,3.6353,3.643,3.5622,3.5622,3.5968,3.6738,3.7546,3.8007,3.8084,3.9623,4.0046,3.9354,4.0969,4.347,4.6778,4.8509,5.1087,5.4203,5.1818,5.2087,5.428,5.3356,5.1625,4.9086,4.4855,4.3662,4.4624,4.624,0.0,0.0,4.9009,4.8817,0.0,4.6201,4.4586,4.3355,4.4085,4.3778,4.3124,4.3124,4.3662,4.4316,0.0,0.0,0.0,5.3049,5.3049,5.378,6.1243,6.3012,6.432,6.8552,7.1475,7.3553,0.0,0.0,0.0,0.0,0.0,0.0,0.0,0.0,0.0,0.0,7.7169,7.6515,7.4822,7.5438,7.5245,0.0,7.3514,7.3504,7.3547,7.3588,7.3302,7.2568,7.338,7.3419,7.2568,7.3419,7.427,7.5082,7.5082,7.6011,7.7674,7.8564,7.9415,8.0227,8.1078,8.1504,8.1504,8.1504,8.2045,8.2896,8.3786,8.4598,8.5449,8.63,8.661,8.661,3.3545,3.4584,3.5353,3.4853,3.4968,3.5045,3.4814,3.4776,3.5007,0.0,0.0,0.0,3.6892,3.7738,3.8238,3.8238,3.843,3.82,3.7353,3.7892,3.8354,3.8584,3.82,3.8584,3.9777,3.9084,3.9161,4.0162,4.0623,4.1662,4.3278,4.5586,4.7778,4.9933,5.1048,5.1279,5.0664,4.8586,4.8702,4.9971,4.5701,4.5586,0.0,0.0,0.0,0.0,0.0,4.824,4.8779,0.0,4.6624,4.6432,4.4816,4.4162,4.3855,4.3278,4.3662,4.4316,4.4316,0.0,0.0,0.0,0.0,0.0,5.3549,5.6549,5.9588,6.2627,6.5782,6.8629,7.0706,7.1552,7.2168,7.2899,7.4553,7.5553,7.4976,7.5207,7.5207,7.463,7.4553,7.4361,7.3899,7.4053,7.3745,0.0,7.3129,7.2993,7.1827,7.1912,7.1888,7.1678,7.1872,7.191,7.164,7.2529,7.338,7.4231,7.4811,7.5662,7.6784,7.7674,7.8525,7.9376,8.0188,8.0923,8.1504,8.1504,8.2393,8.3747,8.4018,8.4985,8.6261,8.6532,8.661,8.661,3.4199,3.4891,3.5622,3.593,3.6315,3.6661,3.7046,3.6776,3.6853,0.0,0.0,0.0,3.8392,3.9931,4.0585,3.9854,3.9777,3.9431,3.8584,3.8661,3.8738,3.8738,3.8623,3.9008,3.9969,3.9354,3.9508,4.0508,4.0508,4.0931,4.1816,4.3316,4.4739,4.6086,4.7586,4.7855,4.7163,4.5701,4.6432,4.8432,4.7009,0.0,0.0,4.8355,4.8856,0.0,0.0,0.0,5.1702,4.9663,4.8586,0.0,0.0,0.0,4.524,4.4393,4.4739,4.5316,4.4932,4.5201,4.6163,4.8432,0.0,0.0,5.1125,5.2818,5.4549,0.0,6.005,6.2858,6.5051,6.6705,6.7859,6.8205,7.009,7.186,7.2822,7.3053,7.2937,7.2476,7.2129,7.1898,7.1898,7.2206,7.2206,7.1706,7.2129,7.1876,7.0681,7.066,7.0573,7.0286,7.0247,7.0402,7.075,7.1253,7.2142,7.338,7.4193,7.5237,7.6436,7.7287,7.837,7.9531,7.9995,8.0691,8.1504,8.1504,8.2122,8.3089,8.3824,8.4714,8.5643,8.6339,8.661,8.661,0.0,3.4968,3.5776,3.6699,3.7507,3.8315,3.9277,3.8777,3.8623,0.0,3.8546,3.8315,3.9969,4.2085,4.2739,4.12,4.0969,4.0585,3.9777,3.8892,3.843,3.843,3.9084,3.9431,3.9431,4.0123,4.0508,4.0508,4.0508,4.0893,4.1662,4.1854,4.2316,4.297,4.3162,4.3585,4.4162,4.4355,4.4855,4.5663,4.824,4.9548,0.0,0.0,5.3857,5.4857,5.5588,5.5895,5.5626,5.3164,5.0433,0.0,0.0,0.0,0.0,0.0,4.6201,0.0,4.5932,4.5855,4.6894,0.0,4.8817,0.0,5.1433,5.0894,5.0164,5.2318,5.4741,5.6973,5.8742,6.1089,6.3012,6.3782,6.5474,6.7859,7.1283,7.1091,7.0629,7.0629,6.9975,6.9552,6.9552,7.0206,7.0629,7.0629,7.0629,7.0401,6.9794,6.9764,6.9485,6.8816,6.8816,6.9125,6.986,6.9938,7.0827,7.2452,7.3458,7.4734,7.6281,7.7171,7.8486,8.0072,8.0072,8.0614,8.1504,8.1504,8.1581,8.1813,8.3476,8.4134,8.4443,8.6029,8.661,8.661,3.5122,3.5391,3.5968,3.7469,3.7892,3.8507,4.0008,4.0123,4.0585,4.2162,4.3239,4.4239,4.5316,4.524,4.497,4.4624,4.397,4.3201,4.2393,4.1546,4.1046,4.1046,4.0546,4.0277,4.0277,4.0431,4.0508,4.0508,4.0508,4.0585,4.0777,4.22,4.2547,4.2124,4.347,4.3778,4.3431,4.4778,0.0,4.4778,4.7317,0.0,5.3472,5.328,5.4587,5.6511,5.6665,5.7203,5.7511,5.5588,5.1895,4.8125,0.0,0.0,0.0,0.0,0.0,0.0,0.0,0.0,0.0,0.0,0.0,0.0,4.7625,4.8817,5.0394,0.0,5.1625,5.3626,5.6011,5.7973,5.9319,5.9511,6.2089,6.5243,6.8667,6.9013,6.8898,6.8898,6.8744,6.8667,6.8667,6.8821,6.8898,6.8898,6.895,6.8949,6.8868,6.8899,6.8867,6.8816,6.8816,6.8893,6.9048,6.9667,7.0518,7.1562,7.3148,7.4425,7.5392,7.6243,7.7597,7.9221,7.9221,8.0111,8.1504,8.1504,8.1929,8.2664,8.367,8.4482,8.5178,8.6223,8.661,8.661,3.543,3.5493,3.6161,3.8277,3.8969,4.0123,4.2662,4.2662,4.3162,4.5316,4.6701,4.7163,4.6355,4.6624,4.6509,4.5663,4.4778,4.4124,4.3701,4.2893,4.2239,4.1816,4.1816,4.1585,4.1162,4.1162,4.1162,4.1162,4.07,4.07,4.1162,4.2047,4.2008,4.1239,4.2931,4.3239,4.2547,4.4239,4.4932,4.524,4.8625,0.0,5.3356,5.4626,5.6165,5.7703,5.8088,5.8511,5.8511,5.5972,5.3664,0.0,0.0,4.9048,4.9125,0.0,4.8125,4.8625,0.0,0.0,0.0,4.8702,0.0,0.0,0.0,4.7817,4.8279,4.8663,4.9086,5.0048,5.2164,5.3972,5.5511,5.6819,5.8781,6.1358,6.4782,6.5974,6.6513,6.6513,6.6513,6.6667,6.7128,6.7513,6.7936,6.8359,6.8424,6.8308,6.7981,6.7965,6.784,6.7501,6.7501,6.7694,6.8158,6.8545,6.9396,7.0672,7.2413,7.369,7.4541,7.5817,7.7365,7.8989,7.8989,7.9956,8.1504,8.1504,8.1774,8.2277,8.3592,8.4366,8.4869,8.6145,8.661,8.661,3.5493,3.5608,3.6507,3.8892,4.0085,4.1777,4.4855,4.4893,4.547,4.8009,4.8817,4.8471,4.6778,4.7201,4.7278,4.6394,4.4932,4.4355,4.497,4.3816,4.2777,4.2085,4.2854,4.2854,4.1816,4.2124,4.2124,4.1816,4.1239,4.1277,4.1816,4.197,4.1662,4.1046,4.2316,4.2739,4.2585,4.3624,0.0,4.6624,0.0,5.1664,5.2049,5.5626,5.755,5.8434,5.9396,5.9627,5.9088,5.6395,5.5549,5.4972,5.0856,5.1125,0.0,0.0,0.0,0.0,0.0,0.0,0.0,0.0,0.0,4.8432,0.0,0.0,0.0,4.774,4.7355,0.0,0.0,0.0,0.0,0.0,0.0,0.0,0.0,6.2089,0.0,6.4051,6.3705,6.3935,6.5282,6.5859,6.6474,6.7359,6.7436,6.7256,6.6862,6.6977,6.6791,6.6224,6.6185,6.6533,6.723,6.7578,6.8429,6.9783,7.1678,7.3071,7.396,7.5469,7.7171,7.8989,7.8989,7.9956,8.1504,8.1504,8.1504,8.1658,8.3438,8.4095,8.4289,8.5991,8.661,8.661,3.5493,3.6084,3.7161,3.8969,4.0585,4.2277,4.4162,4.5009,4.6355,4.8933,4.8663,4.874,4.9971,4.7586,4.6701,4.8779,4.5432,4.4509,4.7471,4.4816,4.3047,4.297,4.3739,4.3431,4.1854,4.3278,4.3278,4.1816,4.247,4.247,4.1816,4.2585,4.2893,4.2777,4.22,4.3162,4.5086,0.0,4.5432,0.0,5.0317,5.0818,0.0,5.5434,5.755,5.8511,6.0089,6.0165,5.9435,0.0,5.7473,5.5588,0.0,5.3549,5.2164,0.0,0.0,0.0,0.0,0.0,0.0,0.0,5.4857,0.0,0.0,0.0,5.0394,4.7625,0.0,0.0,0.0,0.0,0.0,0.0,0.0,0.0,5.5318,5.6819,5.8973,6.2012,6.0396,6.0242,6.332,6.3012,6.3012,6.382,6.3897,6.4215,6.5048,6.5743,6.6174,6.6185,6.6185,6.6263,6.634,6.7887,6.8738,6.897,7.1446,7.3071,7.3922,7.485,7.663,7.8989,7.8989,7.9956,8.1504,8.1504,8.1504,8.1658,8.3438,8.4095,8.4289,8.5991,8.661,8.661,3.5584,3.6161,3.7238,3.9008,4.0277,4.1931,4.4624,4.7855,5.0048,5.0125,5.151,5.2433,5.2164,0.0,0.0,0.0,0.0,4.7047,0.0,0.0,4.443,4.3816,4.4586,4.447,4.3278,4.3932,4.397,4.3239,4.3162,4.2893,4.2585,4.3393,4.3278,4.2393,4.3508,4.4316,4.4893,0.0,4.7009,0.0,0.0,0.0,0.0,5.6126,5.8588,5.9858,6.055,6.055,6.0012,0.0,5.8319,0.0,0.0,0.0,0.0,0.0,0.0,0.0,0.0,0.0,0.0,0.0,0.0,0.0,5.1048,0.0,4.9586,0.0,0.0,0.0,0.0,0.0,0.0,0.0,5.0933,0.0,0.0,0.0,5.3664,0.0,0.0,0.0,6.0858,6.1243,6.1281,6.1127,6.2012,6.2621,6.2579,6.4315,6.5385,6.5489,6.5953,6.6185,6.6185,6.692,6.781,6.8816,7.0363,7.2065,7.3922,7.4734,7.6552,7.8989,7.8989,7.9956,8.1504,8.1504,8.1504,8.162,8.2857,8.3631,8.4289,8.5991,8.661,8.661,3.6315,3.6853,3.7815,3.9084,4.0354,4.22,4.5124,4.874,5.101,5.0741,5.2395,5.3703,5.3857,5.3301,0.0,0.0,5.1237,4.9833,0.0,0.0,4.6095,4.4461,4.5406,0.0,4.4399,4.4542,4.4547,4.4316,4.3932,4.3662,4.3431,4.4047,4.3778,4.2931,4.5009,4.5855,4.5855,0.0,4.9548,5.0394,5.2895,5.3933,5.4318,5.7203,5.9358,6.0781,6.0781,6.0781,6.0512,5.8665,5.9281,0.0,5.7857,0.0,0.0,0.0,0.0,0.0,5.6896,0.0,0.0,0.0,0.0,0.0,0.0,0.0,0.0,0.0,0.0,0.0,0.0,0.0,0.0,0.0,0.0,5.0356,0.0,4.9625,0.0,0.0,0.0,0.0,0.0,5.9011,5.9242,5.8858,5.9781,6.0404,6.059,6.2618,6.4128,6.4966,6.5566,6.5992,6.6185,6.6456,6.7307,6.8816,6.9628,7.1369,7.3922,7.4502,7.632,7.8989,7.8989,7.9956,8.1504,8.1504,8.1504,8.1581,8.2471,8.3322,8.425,8.572,8.6377,8.661,3.793,3.8623,3.9238,3.9277,4.1354,4.3585,4.5316,4.574,4.7009,5.0279,4.9317,0.0,0.0,0.0,0.0,0.0,0.0,5.2269,5.2146,0.0,4.8025,4.4831,4.6074,4.6133,0.0,4.5186,4.5163,4.4316,4.5124,4.5086,4.4239,4.4278,4.4701,4.5509,4.6432,4.774,4.9356,5.1048,5.3203,5.5472,5.5588,5.7088,5.9204,0.0,5.9358,6.0781,6.0781,0.0,0.0,6.0704,6.0742,0.0,0.0,0.0,0.0,0.0,0.0,0.0,0.0,0.0,0.0,5.6934,0.0,0.0,0.0,0.0,5.7049,0.0,0.0,0.0,0.0,0.0,0.0,5.0971,0.0,0.0,0.0,0.0,0.0,0.0,0.0,0.0,0.0,5.5857,5.6203,0.0,5.6357,5.7016,5.9507,6.059,6.2274,6.4827,6.5005,6.5412,6.6185,6.7036,6.7926,6.8816,6.9628,7.1369,7.3883,7.3922,7.5779,7.8989,7.8989,7.9956,8.1504,8.1504,8.1504,8.1581,8.2471,8.3322,8.4211,8.5024,8.5875,8.661,4.0392,4.1239,4.1431,4.0277,4.1739,4.3662,4.5316,4.7009,4.951,0.0,0.0,0.0,0.0,6.1079,6.091,0.0,0.0,5.7683,5.5978,5.3608,0.0,0.0,0.0,4.8407,0.0,0.0,4.6586,4.5163,4.547,4.5432,4.5163,4.5163,4.5316,4.5663,4.7086,4.8317,0.0,0.0,0.0,0.0,0.0,5.9973,6.3474,0.0,0.0,6.0781,6.0781,6.0781,0.0,6.1473,6.1666,6.1651,6.1674,6.1466,6.1119,6.0663,6.0856,0.0,0.0,0.0,6.3322,5.9293,0.0,0.0,0.0,0.0,0.0,0.0,0.0,0.0,0.0,0.0,0.0,5.1856,5.1279,5.0317,0.0,0.0,0.0,0.0,0.0,0.0,0.0,0.0,0.0,0.0,5.3895,0.0,5.6133,5.8701,6.1078,6.3127,6.4347,6.5373,6.6185,6.6495,6.7384,6.8816,6.9087,7.0556,7.3071,7.3651,7.5121,7.7326,7.8486,7.9608,8.0691,8.1271,8.1504,8.1542,8.1813,8.2819,8.4211,8.4985,8.5836,8.661,4.2162,4.2931,4.3085,4.1662,4.2585,4.4008,4.5393,4.8279,0.0,0.0,5.806,0.0,6.5354,0.0,6.6281,0.0,6.4918,6.2719,5.8903,5.7537,0.0,5.181,5.2006,0.0,0.0,0.0,0.0,0.0,4.6236,4.6163,4.5586,4.5586,4.5586,4.5701,4.8009,4.9163,4.9663,5.401,5.5665,0.0,0.0,6.1166,0.0,0.0,6.155,6.2435,0.0,6.0781,6.0896,6.1458,6.1905,6.2136,6.2128,6.2343,6.2381,6.1285,6.1769,6.2541,6.1923,6.3004,0.0,6.1208,6.0145,0.0,5.613,0.0,0.0,0.0,0.0,0.0,0.0,0.0,0.0,5.3241,5.1856,5.0125,0.0,4.7855,0.0,0.0,0.0,0.0,0.0,0.0,0.0,0.0,0.0,0.0,0.0,5.6578,5.9377,6.1754,6.3572,6.5043,6.6185,6.6185,6.7075,6.8816,6.8816,7.0131,7.2645,7.3496,7.4811,7.6475,7.8254,7.9453,8.0266,8.1155,8.1504,8.1504,8.1504,8.2587,8.4173,8.4675,8.5604,8.661,4.3162,4.3816,4.4124,4.3355,4.3855,0.0,0.0,0.0,5.2915,0.0,5.9766,6.3863,6.7348,6.8773,6.946,6.946,6.9536,0.0,6.1291,6.2258,0.0,0.0,5.4498,5.3662,5.0314,0.0,0.0,0.0,0.0,4.724,4.5701,4.5663,4.5624,4.574,4.9202,5.024,4.974,5.5703,5.7819,5.7357,5.9819,6.0896,6.1012,6.0858,6.2897,6.5436,6.2012,6.0781,6.0843,6.0965,6.1566,6.2282,6.2309,6.2909,6.3257,6.1597,6.2292,6.3218,6.1636,6.2408,6.345,6.2678,0.0,0.0,0.0,0.0,6.4031,0.0,0.0,0.0,0.0,0.0,0.0,5.4857,5.2933,5.0664,4.7471,0.0,0.0,0.0,0.0,0.0,0.0,0.0,0.0,0.0,0.0,0.0,0.0,5.438,5.7369,6.0804,6.2681,6.4443,6.6185,6.6224,6.7114,6.8816,6.8854,7.017,7.2568,7.3496,7.4773,7.6359,7.8216,7.9415,8.0227,8.1117,8.1504,8.1504,8.1504,8.2587,8.4095,8.4173,8.5217,8.661,4.397,4.4662,4.5201,0.0,4.5124,4.5547,0.0,0.0,0.0,0.0,6.2915,6.7115,7.1819,7.2705,7.3027,7.3133,7.26,0.0,0.0,0.0,0.0,6.0549,5.9903,5.7815,5.3869,5.3107,0.0,4.9606,0.0,4.7278,4.7432,4.6855,4.6201,4.5778,4.9817,5.0433,4.8817,5.478,5.7934,5.8973,6.0281,6.232,0.0,0.0,6.2897,6.5436,6.2012,6.0804,6.1081,6.2336,6.2937,6.329,6.3973,6.4342,6.4363,6.3322,6.3747,6.452,6.4095,6.4714,6.5448,6.5174,6.417,6.3106,0.0,0.0,0.0,0.0,0.0,0.0,0.0,0.0,0.0,0.0,5.1587,0.0,0.0,0.0,0.0,4.9971,0.0,0.0,0.0,0.0,0.0,0.0,0.0,0.0,5.0933,0.0,5.7139,5.9938,6.2413,6.4483,6.6185,6.6843,6.7733,6.8816,6.9396,7.0363,7.1678,7.3226,7.4115,7.4695,7.7713,7.9105,7.9415,8.0885,8.1504,8.1504,8.1504,8.2587,8.425,8.5488,8.6223,8.661,4.4855,4.5855,0.0,4.6701,0.0,0.0,4.8668,0.0,0.0,5.9724,6.4571,0.0,7.1458,7.4377,7.5967,7.5651,7.5227,0.0,7.1441,0.0,0.0,6.375,6.2945,6.0612,5.6374,5.4868,0.0,5.0403,0.0,4.7542,4.7586,4.7124,4.6624,4.6317,4.9817,5.0779,5.0087,5.5357,5.8742,6.0666,6.0742,6.1935,0.0,6.1512,6.2267,6.4022,6.2098,6.1427,6.1566,6.2128,6.3136,6.4128,6.4307,6.4868,6.5294,6.4522,6.487,6.545,6.5102,6.5605,6.6301,6.6608,6.5719,6.4714,6.4651,6.5131,6.517,0.0,0.0,0.0,0.0,0.0,0.0,0.0,0.0,0.0,0.0,0.0,0.0,0.0,5.001,0.0,0.0,0.0,0.0,0.0,0.0,0.0,0.0,0.0,5.7042,5.9629,6.2993,6.5391,6.6766,6.8352,6.9203,6.9319,6.9783,7.044,7.1369,7.3109,7.3883,7.4077,7.7094,7.8641,7.9105,8.042,8.1155,8.1581,8.2355,8.3438,8.4792,8.6107,8.661,8.661,4.5774,4.716,0.0,0.0,0.0,0.0,0.0,5.4121,0.0,6.0244,0.0,6.9759,6.9755,7.484,7.7921,7.7179,0.0,7.5735,7.2534,7.2339,7.0113,6.5194,6.4765,6.2696,5.8558,5.6354,0.0,0.0,0.0,4.8144,4.7548,4.7317,4.7163,4.7163,4.9702,5.1318,5.2356,5.628,5.9358,6.155,6.1127,6.1012,6.1127,6.1151,6.1636,6.2375,6.2375,6.2397,6.2282,6.173,6.3008,6.4809,6.4213,6.5025,6.6069,6.5373,6.5644,6.6031,6.5334,6.5682,6.6417,6.7268,6.692,6.6358,6.6432,6.5814,6.5213,6.517,6.4376,6.3373,0.0,0.0,0.0,0.0,0.0,0.0,0.0,0.0,0.0,0.0,0.0,0.0,0.0,0.0,0.0,0.0,0.0,0.0,0.0,0.0,5.6829,5.9436,6.3513,6.6337,6.781,6.9938,7.075,7.0324,7.0324,7.0672,7.1369,7.3226,7.3999,7.4038,7.6591,7.8177,7.9067,7.9879,8.0769,8.1852,8.3476,8.4598,8.541,8.63,8.661,8.661,4.6669,0.0,0.0,0.0,0.0,5.5144,5.7116,6.0254,6.3091,6.5008,7.0074,7.3766,7.4377,7.6154,7.7257,7.7101,7.7101,0.0,0.0,0.0,0.0,6.8669,6.7146,6.5038,6.2149,5.8187,5.6154,0.0,0.0,4.992,5.101,4.9625,4.8586,4.8009,5.0548,5.2164,5.3126,5.5241,0.0,5.9127,6.1089,6.2281,6.2858,6.2929,6.3068,6.3184,6.3252,6.3295,6.3454,6.4033,6.4539,6.5064,6.5605,6.5953,6.6185,6.6031,6.6108,6.6185,6.6031,6.6108,6.6417,6.7268,6.7384,6.7462,6.8176,6.7673,6.7054,6.7054,6.5775,6.3977,6.1697,0.0,0.0,0.0,0.0,0.0,0.0,0.0,0.0,0.0,0.0,4.9625,0.0,0.0,0.0,0.0,0.0,0.0,0.0,0.0,5.5982,0.0,6.1486,0.0,0.0,0.0,7.0208,7.2142,7.2142,7.1833,7.1369,7.3806,7.4541,7.4038,7.6591,7.8177,7.9067,7.9879,8.1155,8.2664,8.3708,8.4598,8.541,8.63,8.661,8.661,0.0,0.0,0.0,0.0,0.0,0.0,0.0,6.5909,0.0,6.6693,6.9575,7.208,7.2851,7.5428,7.7296,7.7726,7.7375,7.6555,7.5266,7.4759,7.2963,6.9567,6.8161,0.0,6.3086,5.9123,5.7018,5.677,0.0,0.0,5.1241,4.9971,4.9163,4.8856,5.0971,5.2856,5.4587,0.0,0.0,5.9742,6.1396,6.2613,6.3368,6.3415,6.3731,6.4161,6.4205,6.4556,6.4868,6.4384,6.4868,6.5605,6.5605,6.5876,6.6185,6.6185,6.6185,6.6185,6.6185,6.6185,6.6301,6.6727,6.6843,6.6959,6.7346,6.7114,6.6843,6.6843,6.6165,6.4907,6.2799,5.9225,0.0,0.0,0.0,0.0,0.0,0.0,0.0,0.0,0.0,0.0,0.0,0.0,0.0,0.0,0.0,0.0,0.0,0.0,5.5576,0.0,0.0,0.0,6.7384,0.0,0.0,7.1253,7.1717,7.1949,7.2026,7.3728,7.4502,7.4657,7.6784,7.8177,7.9144,8.0846,8.2316,8.3554,8.4405,8.5256,8.6029,8.6455,8.661,8.661,0.0,5.333,0.0,0.0,6.0604,0.0,6.6256,6.9855,7.1275,6.8484,6.9561,7.0892,7.1534,7.4889,7.7296,7.7804,7.7218,7.6438,7.5579,7.472,7.2963,7.0074,6.8942,6.6873,6.3633,6.0159,5.7726,0.0,0.0,0.0,0.0,5.0452,5.001,4.974,0.0,0.0,0.0,0.0,5.8627,6.0896,6.2151,6.3176,6.3954,6.417,6.4624,6.5213,6.5582,6.5912,6.6069,6.5062,6.5487,6.6379,6.5721,6.5953,6.6495,6.6495,6.634,6.6185,6.6185,6.6185,6.6185,6.6185,6.6185,6.6185,6.6185,6.6185,6.6185,6.6185,6.6069,6.5412,6.367,6.0983,0.0,0.0,0.0,0.0,0.0,0.0,0.0,0.0,0.0,0.0,5.0491,0.0,0.0,0.0,0.0,0.0,5.1356,0.0,0.0,0.0,0.0,6.4599,6.5507,0.0,7.1369,7.0556,7.1446,7.2104,7.2645,7.3883,7.4695,7.5198,7.6939,7.8293,7.9453,8.1813,8.3322,8.4173,8.4985,8.5836,8.661,8.661,8.661,8.661,0.0,0.0,0.0,0.0,0.0,0.0,6.665,7.0376,7.3075,7.272,7.4184,7.5261,7.53,7.6399,7.6828,7.6125,7.5969,7.554,7.4681,7.3861,7.2924,7.1792,7.0152,6.8044,6.5429,6.1954,5.9274,0.0,0.0,0.0,0.0,5.255,5.2049,0.0,0.0,0.0,0.0,5.6511,5.9204,6.1012,6.3469,6.4995,6.5866,6.6692,6.6582,6.6179,6.7866,6.7462,6.6417,6.7849,6.7887,6.7384,6.7307,6.7307,6.7384,6.7384,6.6804,6.6185,6.6185,6.6185,6.6185,6.6185,6.6185,6.6185,6.6185,6.6185,6.6185,6.6185,6.5605,6.4561,6.282,6.1621,6.0383,0.0,0.0,0.0,0.0,0.0,0.0,0.0,0.0,0.0,0.0,5.0279,0.0,0.0,5.0625,0.0,0.0,0.0,0.0,5.4824,0.0,6.3303,6.7128,6.8485,7.0247,7.2375,7.3226,7.3303,7.2684,7.5082,7.5779,7.5198,7.6939,7.8602,8.0227,8.2045,8.3322,8.4173,8.4985,8.5836,8.661,8.661,8.661,8.661,0.0,0.0,0.0,0.0,0.0,0.0,0.0,7.2266,7.4061,7.4061,7.5152,7.5889,7.5876,7.5707,7.5462,7.511,7.5032,7.4876,7.4525,7.4681,7.3978,7.2065,7.1324,6.9762,6.7146,6.4258,6.181,0.0,0.0,0.0,0.0,0.0,0.0,0.0,0.0,5.2818,5.3664,5.6977,5.9348,6.1119,6.427,6.5743,6.6151,6.7045,6.7205,6.7033,6.775,6.7926,6.7887,6.8584,6.8236,6.7578,6.8119,6.8274,6.8197,6.7655,6.7268,6.6882,6.634,6.6185,6.6185,6.6185,6.6185,6.6185,6.6185,6.6185,6.6185,6.6185,6.5953,6.5373,6.4174,6.282,6.135,0.0,0.0,0.0,0.0,0.0,0.0,0.0,0.0,0.0,0.0,0.0,0.0,0.0,0.0,0.0,0.0,0.0,0.0,5.5326,0.0,6.2143,6.4366,6.7325,6.9319,7.0324,7.222,7.3226,7.3419,7.4928,7.6281,7.7519,7.868,7.9879,8.1078,8.2316,8.3322,8.4173,8.4985,8.5836,8.661,8.661,8.661,8.661,6.2379,0.0,6.3862,0.0,6.7838,6.8981,7.1952,7.3621,7.4687,7.4961,7.5742,7.6289,7.6284,7.5493,7.4974,7.4954,7.4915,7.4876,7.4876,7.5462,7.4993,7.3197,7.2885,0.0,6.8903,6.66,6.4281,6.1931,5.9454,0.0,0.0,0.0,0.0,0.0,5.3263,5.4241,5.578,5.8115,6.0393,6.2629,6.5357,6.6659,6.6952,6.7823,6.8038,6.7965,6.8429,6.87,6.8893,6.9357,6.897,6.8352,6.897,6.9164,6.9048,6.8429,6.7887,6.7384,6.6766,6.6417,6.6185,6.6185,6.6185,6.6185,6.6185,6.6185,6.6185,6.6185,6.6185,6.5953,6.5141,6.3787,6.224,6.0538,0.0,0.0,0.0,0.0,0.0,0.0,5.194,5.185,5.0373,5.074,0.0,0.0,0.0,0.0,0.0,0.0,0.0,0.0,0.0,0.0,0.0,6.6629,6.8816,6.8816,7.164,7.3303,7.396,7.5276,7.7016,7.9028,7.984,8.0691,8.1581,8.2703,8.3554,8.4211,8.5256,8.6068,8.661,8.661,8.661,8.661,6.3945,6.4961,6.6367,6.8906,7.0078,7.125,7.3007,7.4023,7.4922,7.5781,7.664,7.7187,7.7187,7.6406,7.5856,7.578,7.5774,7.5774,7.5774,7.5774,7.5774,0.0,0.0,7.3275,7.0738,6.8942,6.6405,6.2969,0.0,0.0,5.6386,0.0,5.5432,5.4735,5.6269,5.7434,5.8357,6.0118,6.286,6.602,6.6985,6.7917,6.8751,6.9645,6.9473,6.9009,7.0672,7.0208,6.9048,7.0711,7.0672,6.9976,6.9976,6.9976,6.9976,6.9976,6.8816,6.7501,6.7501,6.6843,6.6185,6.6185,6.6185,6.6185,6.6185,6.6185,6.6185,6.6185,6.6185,6.5953,6.5141,6.429,6.3091,6.1389,0.0,0.0,0.0,0.0,0.0,0.0,5.4392,5.4919,5.2316,5.203,0.0,0.0,0.0,0.0,0.0,0.0,0.0,5.4705,5.8895,0.0,6.2277,6.6629,6.8816,6.8854,7.2258,7.3883,7.3999,7.6514,7.8177,7.9028,7.984,8.0691,8.162,8.336,8.4095,8.425,8.5913,8.661,8.661,8.661,8.661,8.661,6.7422,6.8008,6.8633,7.0039,7.1484,7.2656,7.3203,7.4531,7.5586,7.5859,7.664,7.7187,7.7187,7.6953,7.6523,0.0,7.6927,7.757,0.0,7.757,7.7296,7.6711,7.5852,7.4486,7.2534,7.1363,6.9333,6.6483,0.0,0.0,0.0,5.7504,5.6698,5.6597,5.8105,5.9271,6.0256,6.3196,6.5054,6.6251,6.8348,6.9026,6.8872,6.9705,6.9821,6.9705,7.0208,7.044,7.0595,7.1137,7.1098,7.0905,7.0905,7.0905,7.075,7.017,6.9628,6.9087,6.8545,6.8197,6.7849,6.723,6.7075,6.692,6.634,6.6185,6.6185,6.6185,6.6185,6.5953,6.5141,6.429,6.2936,6.0654,5.9339,0.0,0.0,0.0,0.0,0.0,5.3459,5.3735,0.0,5.2082,0.0,0.0,0.0,0.0,0.0,0.0,0.0,0.0,6.0674,0.0,6.4927,6.7518,6.9357,7.0518,7.28,7.4811,7.6552,7.8525,7.9569,7.9879,8.073,8.1233,8.1581,8.2741,8.3554,8.4211,8.5294,8.6068,8.661,8.661,8.661,8.661,6.918,6.9414,6.9765,7.0976,7.2109,7.3125,7.414,7.5195,7.6015,7.6367,7.6875,7.7305,7.7656,7.7969,0.0,7.6914,7.7806,7.8415,7.8406,7.8708,7.835,7.714,7.6594,7.5657,7.433,7.3432,0.0,6.9577,6.7308,6.471,6.1697,6.0009,5.925,5.9399,6.0539,6.1726,6.2998,6.5192,6.6664,6.7708,6.9336,6.9899,6.9783,7.0286,7.0672,7.0943,7.0595,7.1059,7.1756,7.1407,7.1523,7.1794,7.1794,7.2026,7.2026,7.0827,7.0247,6.9899,6.9396,6.9048,6.8661,6.8119,6.8003,6.7849,6.7307,6.7191,6.7075,6.6766,6.6688,6.6417,6.5605,6.4483,6.2936,6.0731,5.9377,5.783,5.5586,0.0,0.0,0.0,0.0,0.0,0.0,5.3082,5.349,0.0,0.0,0.0,0.0,0.0,0.0,6.0191,6.164,0.0,6.6185,6.8236,6.9938,7.133,7.369,7.5856,7.7751,7.9453,8.0188,8.0266,8.1465,8.2006,8.2084,8.3244,8.4057,8.4637,8.5449,8.6107,8.661,8.661,8.661,8.661,6.9648,6.9609,7.0117,0.0,7.2226,0.0,7.5547,7.5937,7.6289,7.7109,7.7187,7.7539,7.8398,7.918,7.9336,7.8633,0.0,0.0,0.0,7.9309,7.8975,7.7341,7.7146,7.6711,7.593,7.5149,7.3911,7.2088,6.7976,6.5468,6.4531,6.3408,6.2834,6.2821,6.3458,6.4646,6.6113,6.6295,6.7785,7.0026,7.0109,7.0672,7.1407,7.1446,7.1988,7.2568,7.1756,7.1988,7.2568,7.1756,7.2026,7.2684,7.2684,7.3264,7.3574,7.1872,7.0827,7.017,7.0092,6.9551,6.897,6.8893,6.8854,6.8816,6.8816,6.8816,6.8545,6.7694,6.7501,6.723,6.6379,6.4831,6.3129,6.1389,5.9687,5.7985,5.6244,0.0,0.0,0.0,0.0,0.0,0.0,5.48,5.4838,0.0,0.0,0.0,0.0,0.0,5.7755,6.1002,6.2124,6.3864,6.6379,6.8777,7.0479,7.1523,7.4928,7.7016,7.7829,7.9531,8.0304,8.0382,8.2084,8.278,8.2935,8.4598,8.5294,8.5372,8.6261,8.661,8.661,8.661,8.661,8.661,0.0,0.0,7.1914,7.3672,7.4531,7.5195,7.582,7.6445,7.6953,7.7187,7.7187,7.7539,7.8398,7.8672,7.9219,8.0273,8.0976,8.1367,8.1366,8.0311,7.9524,7.9083,7.7794,7.67,7.5919,7.6331,7.5384,7.2969,7.0621,6.8708,6.7185,6.6078,6.5244,6.4662,6.5896,6.6333,6.6218,6.8232,6.9413,7.0109,7.1446,7.2104,7.2375,7.3032,7.3419,7.3574,7.338,7.3419,7.3574,7.3342,7.3419,7.3574,7.3574,7.3728,7.369,7.2607,7.2142,7.1833,7.1175,7.0866,7.0556,6.986,6.9241,6.8816,6.8816,6.8816,6.8545,6.7694,6.7501,6.723,6.6379,6.4831,6.3129,6.1389,5.9687,5.7985,5.6244,5.547,0.0,0.0,5.5354,5.5238,5.5647,5.5685,5.6227,0.0,0.0,0.0,0.0,5.9223,5.9648,6.1079,6.3826,6.6224,6.8158,6.9396,7.1098,7.3342,7.6746,7.8486,7.8757,8.042,8.1194,8.1271,8.2316,8.278,8.2935,8.4598,8.5294,8.5372,8.6261,8.661,8.661,8.661,8.661,8.661,7.3047,7.3242,7.3594,7.4961,7.5586,7.6015,7.6445,7.6914,7.7187,7.7187,7.7539,7.8125,7.8945,7.9414,8.0156,8.1484,8.164,8.1367,8.0625,8.0039,7.9179,7.8005,7.7458,7.695,7.6481,7.6944,7.6313,7.4481,7.2323,7.0792,6.9855,6.8366,6.7424,6.699,6.7736,6.7961,6.7961,6.9396,7.044,7.1253,7.222,7.2839,7.3264,7.3728,7.4115,7.4386,7.4038,7.4154,7.4386,7.4038,7.4154,7.4463,7.4463,7.4734,7.4889,7.3999,7.3187,7.2413,7.1523,7.1291,7.1291,7.1214,7.1175,7.1137,7.1137,7.0827,7.0286,6.9435,6.8932,6.8274,6.7036,6.5102,6.3129,6.1389,5.9377,5.7559,5.6205,5.5973,0.0,5.6553,5.6553,5.6863,5.7714,5.7404,5.7404,5.7946,5.7482,0.0,5.93,6.0422,6.1621,6.282,6.5025,6.7191,6.9319,7.0982,7.3071,7.5662,7.7906,7.9183,7.9608,8.0923,8.1504,8.1581,8.2857,8.3399,8.3515,8.5217,8.5875,8.5952,8.6416,8.661,8.661,8.661,8.661,8.661,7.3672,7.4297,7.5078,7.5937,7.6211,7.6484,7.7109,7.7422,7.7539,7.7422,7.8164,7.8984,7.9805,8.0547,8.1367,8.2226,8.1601,8.0586,7.918,7.9453,7.8711,7.6562,7.707,7.7344,7.7187,7.7187,7.6758,7.5898,7.3667,7.2452,7.2179,7.0481,6.9552,6.9273,6.9207,6.9473,7.0015,7.0286,7.1253,7.2607,7.2877,7.3419,7.4115,7.4231,7.4773,7.5392,7.4579,7.4811,7.5392,7.4541,7.4734,7.5314,7.5314,7.5817,7.6243,7.5353,7.4077,7.28,7.191,7.1678,7.1872,7.2607,7.3342,7.3883,7.3883,7.3342,7.2491,7.1523,7.0711,6.9628,6.7849,6.5412,6.3168,6.1543,5.9068,5.7095,5.6476,0.0,5.7134,5.7637,5.8101,5.8836,5.9957,5.9532,5.8913,5.8333,5.8836,5.9029,5.8681,6.1273,6.3632,6.5489,6.6224,6.781,7.0363,7.2839,7.5237,7.7519,7.8525,7.9415,8.0227,8.1117,8.1581,8.1813,8.3399,8.4173,8.4405,8.5952,8.661,8.661,8.661,8.661,8.661,8.661,8.661,8.661,7.5351,7.5625,7.5976,7.6836,7.7617,7.789,7.7305,7.8398,7.9062,7.8398,7.9023,7.9844,8.0703,8.0937,8.1367,8.2226,8.2187,8.1992,8.1719,8.0469,7.9531,7.914,7.8594,7.7969,7.7226,7.7187,7.6758,7.5898,7.5507,7.4531,7.3085,7.2611,7.1589,7.0222,7.0699,7.0556,7.0092,7.1562,7.2336,7.2723,7.4154,7.4811,7.5005,7.574,7.6552,7.7171,7.632,7.6552,7.7171,7.6281,7.6088,7.6204,7.6204,7.6281,7.6243,7.5353,7.4928,7.4541,7.3728,7.3496,7.3535,7.3651,7.3806,7.3883,7.3883,7.3806,7.3226,7.164,7.1175,7.0363,6.7926,6.5412,6.3362,6.2356,5.9455,5.7521,5.8101,0.0,5.6244,5.9145,5.8333,5.841,6.0692,6.1466,6.2046,6.2665,6.2162,6.2704,6.4715,6.4677,6.5721,6.8119,6.8352,6.9628,7.2181,7.3999,7.5469,7.663,7.8216,7.9415,8.0227,8.1117,8.189,8.2664,8.367,8.4482,8.5178,8.6184,8.661,8.661,8.661,8.661,8.661,8.661,8.661,8.661,7.582,7.6289,7.6719,7.7148,7.8047,7.8515,7.7969,7.8906,7.957,7.918,7.9883,8.0547,8.0976,8.1406,8.1875,8.2265,8.1875,8.1797,8.2265,8.1094,8.0,7.9101,7.8711,7.8086,7.7226,7.7187,7.6992,7.6601,7.6133,7.5508,7.4687,7.3977,7.3222,7.2444,7.2612,7.2491,7.2142,7.2955,7.3535,7.3999,7.4811,7.5662,7.6552,7.6939,7.7635,7.8332,7.7945,7.7751,7.7713,7.779,7.7481,7.7171,7.7635,7.779,7.7635,7.6746,7.5546,7.4386,7.3999,7.4231,7.4541,7.4541,7.4889,7.5237,7.5237,7.4889,7.4309,7.3496,7.2645,7.133,6.9241,6.6417,6.4097,6.3245,6.0228,0.0,0.0,5.8372,5.8797,6.0344,6.0654,6.1737,6.429,6.4097,6.4135,6.4986,6.4251,6.4483,6.6108,6.5837,6.7036,7.0054,7.0595,7.1833,7.3922,7.5198,7.6475,7.7829,7.9067,8.0111,8.0923,8.1813,8.2161,8.22,8.3979,8.4714,8.4753,8.6068,8.661,8.661,8.661,8.661,8.661,8.661,8.661,8.661,7.6211,7.6758,7.7265,7.7461,7.8281,7.8867,7.8789,7.9648,8.0234,8.0039,8.0742,8.1289,8.1289,8.1914,8.2304,8.2304,8.1679,8.1601,8.2265,8.1679,8.0625,7.914,7.8711,7.8359,7.8086,7.7695,7.75,7.75,7.6836,7.6289,7.5898,7.4987,7.4417,7.4193,7.4038,7.3922,7.3922,7.4115,7.4657,7.543,7.5624,7.663,7.7983,7.7983,7.8525,7.926,7.9067,7.868,7.8332,7.8834,7.8564,7.8099,7.8796,7.8989,7.8873,7.8216,7.663,7.5082,7.5082,7.5546,7.5972,7.5779,7.6359,7.69,7.6475,7.6049,7.5585,7.5198,7.4077,7.2607,7.0672,6.7887,6.5528,6.4445,0.0,0.0,0.0,6.0383,6.1195,6.2162,6.3284,6.4986,6.7539,6.665,6.6147,6.6766,6.6224,6.6224,6.7036,6.7268,6.8854,7.2065,7.2839,7.3883,7.5392,7.6281,7.7558,7.9299,7.9918,8.0769,8.1813,8.2471,8.2664,8.2509,8.4443,8.5062,8.4792,8.6068,8.661,8.661,8.661,8.661,8.661,8.661,8.661,8.6648,7.7109,7.7148,7.7461,7.8242,7.8672,7.9062,7.9531,8.1015,8.1836,8.1015,8.164,8.2187,8.2187,8.2265,8.2304,8.2304,8.2226,8.2226,8.2304,8.2226,8.1797,8.0859,7.9336,7.9219,8.0703,7.9219,7.8398,7.8398,7.8359,7.7461,7.5898,7.5702,7.5083,7.4208,7.4131,7.4038,7.396,7.4695,7.5508,7.6359,7.7171,7.8061,7.8912,7.8912,7.9415,7.9995,7.926,7.9453,7.9918,7.9221,7.895,7.8912,7.8989,7.8989,7.8989,7.8912,7.8757,7.8602,7.8602,7.868,7.8525,7.7713,7.8177,7.837,7.6784,7.6978,7.7055,7.543,7.5005,7.4154,7.164,6.9744,6.7965,6.6301,0.0,0.0,6.3091,6.1389,6.1427,6.5373,6.5296,6.5915,6.8468,6.8584,6.8545,6.8622,6.8545,6.8854,6.9667,7.0479,7.2104,7.4734,7.4889,7.5353,7.6281,7.7171,7.8448,8.0111,8.0188,8.1078,8.2703,8.278,8.3592,8.5024,8.5217,8.572,8.6416,8.6571,8.661,8.661,8.661,8.661,8.661,8.661,8.661,8.6726,7.8633,7.8476,7.8359,7.8672,8.0,8.0859,8.0312,8.1406,8.2187,8.1836,8.2109,8.2304,8.2304,8.2304,8.2304,8.2304,8.2304,8.2304,8.2304,8.2304,8.1914,8.1054,8.039,8.0117,8.0195,7.957,7.9258,7.9258,7.9258,7.8906,7.8242,7.7617,7.7335,7.7399,7.6742,7.6668,7.7094,7.7403,7.7713,7.8022,7.837,7.8989,7.9724,7.9724,8.0266,8.0962,8.0653,8.042,8.0227,8.0459,8.0188,7.984,8.0382,8.0536,8.0536,8.0536,8.0188,7.9879,8.042,7.9801,7.8912,7.8602,7.8757,7.8834,7.8177,7.8254,7.8332,7.7674,7.6668,7.543,7.3922,7.1833,6.9976,6.8738,0.0,6.5102,6.5218,6.487,6.5025,6.6069,6.6882,6.7926,6.9396,6.9551,6.9783,7.0324,7.0363,7.0711,7.1562,7.2916,7.4347,7.5856,7.6436,7.6862,7.721,7.8564,7.984,8.1001,8.1001,8.1929,8.3592,8.3592,8.394,8.4598,8.5643,8.5991,8.5836,8.6377,8.661,8.661,8.661,8.661,8.661,8.661,8.661,8.6726,7.9531,7.957,7.9453,7.9531,8.1094,8.2031,8.125,8.1797,8.2304,8.2304,8.2304,8.2304,8.2304,8.2304,8.2304,8.2304,8.2304,8.2304,8.2304,8.2304,8.2148,8.1836,8.1289,8.0976,8.0937,8.039,8.0117,8.0117,8.0117,7.9961,7.9687,7.9023,7.9011,7.9422,7.8748,7.8718,7.9144,7.9144,7.926,7.9453,7.9453,7.9918,8.0614,8.0614,8.1001,8.1504,8.1504,8.1117,8.0691,8.131,8.1117,8.073,8.131,8.1504,8.1504,8.1504,8.1078,8.073,8.1349,8.0653,7.9724,7.9453,7.9569,7.9647,7.9105,7.9183,7.9299,7.9067,7.8061,7.6862,7.574,7.4077,7.2452,7.1021,6.9628,6.839,6.7501,6.7694,6.7771,6.7423,6.8468,6.9512,7.0324,7.0402,7.0672,7.1253,7.1562,7.2181,7.3303,7.4734,7.5895,7.6784,7.7906,7.8486,7.8486,7.9647,8.0769,8.1929,8.1929,8.2819,8.4482,8.4482,8.4637,8.4946,8.6107,8.6261,8.5759,8.6339,8.661,8.661,8.661,8.661,8.661,8.661,8.661,8.6726,7.957,8.0195,8.0703,8.0976,8.1719,8.2304,8.2304,8.2304,8.2304,8.2304,8.2304,8.2304,8.2304,8.2304,8.2304,8.2304,8.2304,8.2304,8.2304,8.2304,8.2695,8.3554,8.1914,8.1836,8.3554,8.1914,8.1015,8.1015,8.1015,8.0586,7.9726,7.9726,7.9687,7.9608,7.9597,7.9545,7.9439,7.9439,7.9826,8.0406,8.0406,8.0846,8.1504,8.1504,8.1504,8.1504,8.1504,8.1504,8.1504,8.1504,8.1504,8.1504,8.1504,8.1504,8.1504,8.1504,8.1542,8.1542,8.1542,8.1542,8.131,8.0459,8.0885,8.1078,7.9415,7.9647,7.9995,7.9183,7.9028,7.8486,7.6746,7.6397,7.5585,7.3032,7.1872,7.1021,7.0131,6.9357,6.9125,6.9938,7.0015,7.0363,7.1214,7.1291,7.1291,7.1291,7.2104,7.3342,7.5044,7.5933,7.6823,7.7674,7.9337,8.0188,8.0227,8.0227,8.1078,8.2819,8.278,8.367,8.5294,8.5294,8.5797,8.661,8.661,8.661,8.661,8.661,8.661,8.661,8.661,8.661,8.661,8.661,8.661,8.6726,8.125,8.1679,8.1836,8.1914,8.2148,8.2304,8.2304,8.2304,8.2304,8.2304,8.2304,8.2304,8.2304,8.2304,8.2304,8.2304,8.2304,8.2304,8.2304,8.2304,8.2422,8.2695,8.2187,8.2148,8.2695,8.2187,8.1914,8.1914,8.1914,8.1797,8.1523,8.0898,8.0898,8.1328,8.0704,8.0708,8.1158,8.1158,8.1226,8.1311,8.1291,8.1387,8.1504,8.1504,8.1504,8.1504,8.1504,8.1504,8.1504,8.1504,8.1929,8.2393,8.2393,8.2393,8.2393,8.2393,8.2857,8.3322,8.3322,8.3322,8.3128,8.2238,8.1774,8.1542,8.162,8.1387,8.1039,8.0807,8.0266,7.9531,7.8409,7.7713,7.6668,7.4695,7.4154,7.369,7.2839,7.2529,7.2258,7.1872,7.1833,7.1678,7.133,7.1291,7.1562,7.2181,7.3535,7.485,7.5933,7.6823,7.7983,7.9415,7.9956,8.0498,8.1117,8.1117,8.2006,8.3708,8.3089,8.3979,8.6184,8.5565,8.5797,8.661,8.661,8.661,8.661,8.661,8.661,8.661,8.661,8.661,8.661,8.661,8.661,8.6726,8.2031,8.2304,8.2304,8.2304,8.2304,8.2304,8.2304,8.2304,8.2304,8.2304,8.2304,8.2304,8.2304,8.2304,8.2304,8.2304,8.2304,8.2304,8.2304,8.2304,8.2304,8.2304,8.2304,8.2304,8.2304,8.2304,8.2304,8.2304,8.2304,8.2304,8.2304,8.1758,8.1758,8.2148,8.164,8.1631,8.2078,8.2078,8.1928,8.1758,8.1785,8.1658,8.1504,8.1504,8.1504,8.1504,8.1504,8.1504,8.1504,8.1504,8.2084,8.2857,8.3206,8.3322,8.3322,8.3322,8.367,8.4095,8.4095,8.4095,8.4057,8.3824,8.2896,8.2161,8.2664,8.2122,8.1504,8.1504,8.1078,8.0459,7.9647,7.9028,7.8254,7.6862,7.6359,7.5856,7.5005,7.4579,7.4077,7.3226,7.3109,7.2916,7.2375,7.2336,7.2684,7.3535,7.485,7.5972,7.6862,7.8022,7.9144,8.0188,8.0885,8.131,8.1504,8.22,8.3051,8.4095,8.3554,8.4482,8.6571,8.6068,8.6107,8.661,8.661,8.661,8.661,8.661,8.661,8.661,8.661,8.661,8.661,8.661,8.661,8.6726,8.2148,8.2304,8.2304,8.2304,8.2304,8.2304,8.2304,8.2304,8.2304,8.2304,8.2304,8.2304,8.2304,8.2304,8.2304,8.2304,8.2304,8.2304,8.2304,8.2304,8.2304,8.2304,8.2304,8.2304,8.2304,8.2304,8.2304,8.2304,8.2304,8.2304,8.2304,8.2304,8.2304,8.2304,8.2304,8.2304,8.2304,8.2304,8.2164,8.1921,8.1907,8.1736,8.1542,8.1504,8.1542,8.162,8.162,8.1658,8.1736,8.1813,8.2316,8.3051,8.394,8.4211,8.4211,8.4211,8.425,8.4327,8.4327,8.4327,8.4482,8.5217,8.4211,8.3012,8.2935,8.2238,8.1581,8.1542,8.1504,8.1233,8.0382,8.0188,7.9956,7.9144,7.8332,7.7519,7.6746,7.5895,7.5044,7.4231,7.4038,7.3999,7.3922,7.396,7.4347,7.516,7.6011,7.6939,7.7867,7.9376,8.0227,8.0304,8.1852,8.2355,8.162,8.3206,8.3979,8.3979,8.4134,8.5024,8.6494,8.6571,8.661,8.661,8.661,8.661,8.661,8.661,8.661,8.661,8.661,8.661,8.661,8.661,8.661,8.6726,8.2148,8.2304,8.2304,8.2304,8.2304,8.2304,8.2304,8.2304,8.2304,8.2304,8.2304,8.2304,8.2304,8.2304,8.2304,8.2304,8.2304,8.2304,8.2304,8.2304,8.2304,8.2304,8.2304,8.2304,8.2304,8.2304,8.2304,8.2304,8.2304,8.2304,8.2304,8.2304,8.2304,8.2304,8.2304,8.2304,8.2304,8.2304,8.2225,8.2051,8.1951,8.1813,8.1658,8.1542,8.1929,8.2509,8.2509,8.2973,8.3631,8.425,8.4173,8.394,8.4792,8.5024,8.5024,8.5024,8.5526,8.6068,8.6068,8.6068,8.6107,8.6261,8.5526,8.4598,8.394,8.3128,8.2316,8.1658,8.1504,8.1233,8.0382,8.0188,7.9956,7.9144,7.8834,7.8641,7.8448,7.7674,7.6823,7.5972,7.5276,7.4579,7.396,7.4463,7.5198,7.6049,7.6939,7.8061,7.9569,7.9995,8.0498,8.1194,8.1581,8.2006,8.2509,8.2896,8.3089,8.3089,8.4405,8.5217,8.5604,8.63,8.661,8.661,8.661,8.661,8.661,8.661,8.661,8.661,8.661,8.661,8.661,8.661,8.661,8.6842,8.2226,8.2304,8.2304,8.2304,8.2304,8.2304,8.2304,8.2304,8.2304,8.2304,8.2304,8.2304,8.2304,8.2304,8.2304,8.2304,8.2304,8.2304,8.2304,8.2304,8.2304,8.2304,8.2304,8.25,8.289,8.25,8.2304,8.2304,8.2304,8.2304,8.2304,8.2304,8.2304,8.2304,8.2304,8.2304,8.2304,8.2304,8.2226,8.2147,8.2465,8.253,8.2432,8.2703,8.3128,8.3515,8.3438,8.3708,8.4211,8.5024,8.5024,8.483,8.5643,8.5913,8.5913,8.5913,8.6261,8.661,8.661,8.661,8.661,8.661,8.6261,8.5604,8.4366,8.3438,8.2548,8.1697,8.1504,8.1349,8.0923,8.0807,8.0691,8.0266,7.984,7.9569,7.9569,7.8834,7.8138,7.7674,7.6862,7.6165,7.574,7.6475,7.7132,7.7597,7.8409,7.9299,8.015,8.0614,8.1039,8.1504,8.189,8.2355,8.278,8.3592,8.3786,8.3438,8.4714,8.5526,8.5952,8.6377,8.661,8.661,8.661,8.661,8.661,8.661,8.661,8.661,8.661,8.661,8.661,8.661,8.7151,8.8041,8.2304,8.2304,8.2304,8.2304,8.2304,8.2304,8.2304,8.2304,8.2304,8.2304,8.2304,8.2304,8.2304,8.2304,8.2304,8.2304,8.2304,8.2304,8.2304,8.2422,8.2539,8.2539,8.2656,8.3086,8.3828,8.3125,8.2656,8.2539,8.2383,8.2304,8.2304,8.2304,8.2304,8.2304,8.2304,8.2304,8.2304,8.2304,8.2226,8.2226,8.3047,8.3245,8.3111,8.3963,8.4326,8.4314,8.4289,8.4405,8.4637,8.5294,8.5526,8.5643,8.6377,8.661,8.661,8.661,8.661,8.661,8.661,8.661,8.661,8.661,8.661,8.6184,8.4675,8.3747,8.2973,8.2122,8.1929,8.1929,8.1929,8.1929,8.189,8.1736,8.1117,8.0575,8.0459,7.9724,7.9221,7.9221,7.8448,7.7906,7.7906,7.8564,7.9067,7.9183,7.984,8.0266,8.042,8.1271,8.1658,8.1504,8.2355,8.2857,8.3012,8.4405,8.4908,8.4521,8.5217,8.5836,8.6377,8.6532,8.661,8.661,8.661,8.661,8.661,8.661,8.661,8.661,8.661,8.661,8.661,8.661,8.7693,8.9279,8.2304,8.2304,8.2304,8.2304,8.2304,8.2304,8.2304,8.2304,8.2304,8.2304,8.2304,8.2304,8.2304,8.2304,8.2304,8.2304,8.2304,8.2304,8.2304,8.3008,8.3437,8.3437,8.414,8.4609,8.4726,8.4609,8.4179,8.3437,8.2656,8.2304,8.2304,8.2304,8.2304,8.2304,8.2304,8.2304,8.2304,8.2304,8.2304,8.2344,8.3086,8.2936,8.2377,8.3795,8.4316,8.4366,8.4946,8.5604,8.63,8.6377,8.6416,8.6455,8.6571,8.661,8.661,8.661,8.661,8.661,8.661,8.661,8.661,8.661,8.661,8.6339,8.5372,8.5062,8.4714,8.3902,8.3747,8.3747,8.3747,8.3747,8.3515,8.2741,8.2509,8.22,8.1426,8.0575,8.0034,8.0034,7.9337,7.8834,7.8834,7.8912,7.9299,7.9995,8.015,8.0536,8.1271,8.2161,8.2277,8.1542,8.2355,8.3167,8.3902,8.4134,8.4946,8.6261,8.6377,8.6107,8.5488,8.6261,8.661,8.661,8.661,8.661,8.661,8.661,8.661,8.661,8.661,8.661,8.661,8.661,8.7693,8.9201,8.2304,8.2304,8.2304,8.2304,8.2304,8.2304,8.2304,8.2304,8.2304,8.2304,8.2304,8.2304,8.2304,8.2304,8.25,8.2969,8.2578,8.2695,8.3672,8.3672,8.3828,8.4297,8.4687,8.5117,8.5625,8.5156,8.4961,8.5039,8.3672,8.3047,8.3008,8.2539,8.2304,8.2304,8.2304,8.2304,8.2304,8.2304,8.2304,8.2422,8.3711,8.401,8.3809,8.5349,8.5846,8.5836,8.5991,8.6261,8.661,8.661,8.661,8.661,8.661,8.661,8.661,8.661,8.661,8.661,8.661,8.661,8.661,8.661,8.661,8.6494,8.6107,8.6029,8.5643,8.4366,8.4095,8.4095,8.4095,8.4095,8.3979,8.3592,8.3128,8.2664,8.2277,8.1465,8.0769,8.0266,8.0304,8.0227,7.9724,8.0111,8.0536,8.0923,8.0923,8.1078,8.1504,8.1852,8.2122,8.2238,8.2587,8.3438,8.4753,8.4753,8.5372,8.661,8.661,8.6416,8.6029,8.6416,8.661,8.661,8.661,8.661,8.661,8.661,8.661,8.661,8.661,8.661,8.6726,8.7693,8.8544,8.9317]},{"header":{"parameterUnit":"m.s-1","parameterCategory":1,"la1":30.6,"la2":28.766,"lo1":-90.7593,"lo2":-88.6598,"dy":0.0162,"dx":0.0183,"nx":116,"ny":114,"refTime":"2024-03-26T06:00:00:Z","depth":0,"parameterNumber":3,"parameterNumberName":"V-component_of_WINDS"},"data":[0.0,0.0,0.0,0.0,0.0,0.0,0.0,0.0,0.0,0.0,0.0,0.0,0.0,0.0,0.0,0.0,0.0,0.0,0.0,0.0,0.0,0.0,0.0,0.0,0.0,0.0,0.0,0.0,0.0,0.0,0.0,0.0,0.0,0.0,0.0,0.0,0.0,0.0,0.0,0.0,0.0,0.0,0.0,0.0,0.0,0.0,0.0,0.0,0.0,0.0,0.0,0.0,0.0,0.0,0.0,0.0,0.0,0.0,0.0,0.0,0.0,0.0,0.0,0.0,0.0,0.0,0.0,0.0,0.0,0.0,0.0,0.0,0.0,0.0,0.0,0.0,0.0,0.0,0.0,0.0,0.0,0.0,0.0,0.0,0.0,0.0,0.0,0.0,0.0,0.0,0.0,0.0,0.0,0.0,0.0,0.0,0.0,0.0,0.0,0.0,0.0,0.0,0.0,0.0,0.0,0.0,0.0,0.0,0.0,0.0,0.0,0.0,0.0,0.0,0.0,0.0,0.0,0.0,0.0,0.0,0.0,0.0,0.0,0.0,0.0,0.0,0.0,0.0,0.0,0.0,0.0,0.0,0.0,0.0,0.0,0.0,0.0,0.0,0.0,0.0,0.0,0.0,0.0,0.0,0.0,0.0,0.0,0.0,0.0,0.0,0.0,0.0,0.0,0.0,0.0,0.0,0.0,0.0,0.0,0.0,0.0,0.0,0.0,0.0,0.0,0.0,0.0,0.0,0.0,0.0,0.0,0.0,0.0,0.0,0.0,0.0,0.0,0.0,0.0,0.0,0.0,0.0,0.0,0.0,0.0,0.0,0.0,0.0,0.0,0.0,0.0,0.0,0.0,0.0,0.0,0.0,0.0,0.0,0.0,0.0,0.0,0.0,0.0,0.0,0.0,0.0,0.0,0.0,0.0,0.0,0.0,0.0,0.0,0.0,0.0,0.0,0.0,0.0,0.0,0.0,0.0,0.0,0.0,0.0,0.0,0.0,0.0,0.0,0.0,0.0,0.0,0.0,0.0,0.0,0.0,0.0,0.0,0.0,0.0,0.0,0.0,0.0,0.0,0.0,0.0,0.0,0.0,0.0,0.0,0.0,0.0,0.0,0.0,0.0,0.0,0.0,0.0,0.0,0.0,0.0,0.0,0.0,0.0,0.0,0.0,0.0,0.0,0.0,0.0,0.0,0.0,0.0,0.0,0.0,0.0,0.0,0.0,0.0,0.0,0.0,0.0,0.0,0.0,0.0,0.0,0.0,0.0,0.0,0.0,0.0,0.0,0.0,0.0,0.0,0.0,0.0,0.0,0.0,0.0,0.0,0.0,0.0,0.0,0.0,0.0,0.0,0.0,0.0,0.0,0.0,0.0,0.0,0.0,0.0,0.0,0.0,0.0,0.0,0.0,0.0,0.0,0.0,0.0,0.0,0.0,0.0,0.0,0.0,0.0,0.0,0.0,0.0,0.0,0.0,0.0,0.0,0.0,0.0,0.0,0.0,0.0,0.0,0.0,0.0,0.0,0.0,0.0,0.0,0.0,0.0,0.0,0.0,0.0,0.0,0.0,0.0,0.0,0.0,0.0,0.0,0.0,0.0,0.0,0.0,0.0,0.0,0.0,0.0,0.0,0.0,0.0,0.0,0.0,0.0,0.0,0.0,0.0,0.0,0.0,0.0,0.0,0.0,0.0,0.0,0.0,0.0,0.0,0.0,0.0,0.0,0.0,0.0,0.0,0.0,0.0,0.0,0.0,0.0,0.0,0.0,0.0,0.0,0.0,0.0,0.0,0.0,0.0,0.0,0.0,0.0,0.0,0.0,0.0,0.0,0.0,0.0,0.0,0.0,0.0,0.0,0.0,0.0,0.0,0.0,0.0,0.0,0.0,0.0,0.0,0.0,0.0,0.0,0.0,0.0,0.0,0.0,0.0,0.0,0.0,0.0,0.0,0.0,0.0,0.0,0.0,0.0,0.0,0.0,0.0,0.0,0.0,0.0,0.0,0.0,0.0,0.0,0.0,0.0,0.0,0.0,0.0,0.0,0.0,0.0,0.0,0.0,0.0,0.0,0.0,0.0,0.0,0.0,0.0,0.0,0.0,0.0,0.0,0.0,0.0,0.0,0.0,0.0,0.0,0.0,0.0,0.0,0.0,0.0,0.0,0.0,0.0,0.0,0.0,0.0,0.0,0.0,0.0,0.0,0.0,0.0,0.0,0.0,0.0,0.0,0.0,0.0,0.0,0.0,0.0,0.0,0.0,0.0,0.0,0.0,0.0,0.0,0.0,0.0,0.0,0.0,0.0,0.0,0.0,0.0,0.0,0.0,0.0,0.0,0.0,0.0,0.0,0.0,0.0,0.0,0.0,0.0,0.0,0.0,0.0,0.0,0.0,0.0,0.0,0.0,0.0,0.0,0.0,0.0,0.0,0.0,0.0,0.0,0.0,0.0,0.0,0.0,0.0,0.0,0.0,0.0,0.0,0.0,0.0,0.0,0.0,0.0,0.0,0.0,0.0,0.0,0.0,0.0,0.0,0.0,0.0,0.0,0.0,0.0,0.0,0.0,0.0,0.0,0.0,0.0,0.0,0.0,0.0,0.0,0.0,0.0,0.0,0.0,0.0,0.0,0.0,0.0,0.0,0.0,0.0,0.0,0.0,0.0,0.0,0.0,0.0,0.0,0.0,0.0,0.0,0.0,0.0,0.0,0.0,0.0,0.0,0.0,0.0,0.0,0.0,0.0,0.0,0.0,0.0,0.0,0.0,0.0,0.0,0.0,0.0,0.0,0.0,0.0,0.0,0.0,0.0,0.0,0.0,0.0,0.0,0.0,0.0,0.0,0.0,0.0,0.0,0.0,0.0,0.0,0.0,0.0,0.0,0.0,0.0,0.0,0.0,0.0,0.0,0.0,0.0,0.0,0.0,0.0,0.0,0.0,0.0,0.0,0.0,0.0,0.0,0.0,0.0,0.0,0.0,0.0,0.0,0.0,0.0,0.0,0.0,0.0,0.0,0.0,0.0,0.0,0.0,0.0,0.0,0.0,0.0,0.0,0.0,0.0,0.0,0.0,0.0,0.0,0.0,0.0,0.0,0.0,0.0,0.0,0.0,0.0,0.0,0.0,0.0,0.0,0.0,0.0,0.0,0.0,0.0,0.0,0.0,0.0,0.0,0.0,0.0,0.0,0.0,0.0,0.0,0.0,0.0,0.0,0.0,0.0,0.0,0.0,0.0,0.0,0.0,0.0,0.0,0.0,0.0,0.0,0.0,0.0,0.0,0.0,0.0,0.0,0.0,0.0,0.0,0.0,0.0,0.0,0.0,0.0,0.0,0.0,0.0,0.0,0.0,0.0,0.0,0.0,0.0,0.0,0.0,0.0,0.0,0.0,0.0,0.0,0.0,0.0,0.0,0.0,0.0,0.0,0.0,0.0,0.0,0.0,0.0,0.0,0.0,0.0,0.0,0.0,0.0,0.0,0.0,0.0,0.0,0.0,0.0,0.0,0.0,0.0,0.0,0.0,0.0,0.0,0.0,0.0,0.0,0.0,0.0,0.0,0.0,0.0,0.0,0.0,0.0,0.0,0.0,0.0,0.0,0.0,0.0,0.0,0.0,0.0,0.0,0.0,0.0,0.0,0.0,0.0,0.0,0.0,0.0,0.0,0.0,0.0,0.0,0.0,0.0,0.0,0.0,0.0,0.0,0.0,0.0,0.0,0.0,0.0,0.0,0.0,0.0,0.0,0.0,0.0,0.0,0.0,0.0,0.0,0.0,0.0,0.0,0.0,0.0,0.0,0.0,0.0,0.0,0.0,0.0,0.0,0.0,0.0,0.0,0.0,0.0,0.0,0.0,0.0,0.0,0.0,0.0,0.0,0.0,0.0,0.0,0.0,0.0,0.0,0.0,0.0,0.0,0.0,0.0,0.0,0.0,0.0,0.0,0.0,0.0,0.0,0.0,0.0,0.0,0.0,0.0,0.0,0.0,0.0,0.0,0.0,0.0,0.0,0.0,0.0,0.0,0.0,0.0,0.0,0.0,0.0,0.0,0.0,0.0,0.0,0.0,0.0,0.0,0.0,0.0,0.0,0.0,0.0,0.0,0.0,0.0,0.0,0.0,0.0,0.0,0.0,0.0,0.0,0.0,0.0,0.0,0.0,0.0,0.0,0.0,0.0,0.0,0.0,0.0,0.0,0.0,0.0,0.0,0.0,0.0,0.0,0.0,0.0,0.0,0.0,0.0,0.0,0.0,0.0,0.0,0.0,0.0,0.0,0.0,0.0,0.0,0.0,0.0,0.0,0.0,0.0,0.0,0.0,0.0,0.0,0.0,0.0,0.0,0.0,0.0,0.0,0.0,0.0,0.0,0.0,0.0,0.0,0.0,0.0,0.0,0.0,0.0,0.0,0.0,0.0,0.0,0.0,0.0,0.0,0.0,0.0,0.0,0.0,0.0,0.0,0.0,0.0,0.0,0.0,0.0,0.0,0.0,0.0,0.0,0.0,0.0,0.0,0.0,0.0,0.0,0.0,0.0,0.0,0.0,0.0,0.0,0.0,0.0,0.0,0.0,0.0,0.0,0.0,0.0,0.0,0.0,0.0,0.0,0.0,0.0,0.0,0.0,0.0,0.0,0.0,0.0,0.0,0.0,0.0,0.0,0.0,0.0,0.0,0.0,0.0,0.0,0.0,0.0,0.0,0.0,0.0,0.0,0.0,0.0,0.0,0.0,0.0,0.0,0.0,0.0,0.0,0.0,0.0,0.0,0.0,0.0,0.0,0.0,0.0,0.0,0.0,0.0,0.0,0.0,0.0,0.0,0.0,0.0,0.0,0.0,0.0,0.0,0.0,0.0,0.0,0.0,0.0,0.0,0.0,0.0,0.0,0.0,0.0,0.0,0.0,0.0,0.0,0.0,0.0,0.0,0.0,0.0,0.0,0.0,0.0,0.0,0.0,0.0,0.0,0.0,0.0,0.0,0.0,0.0,0.0,0.0,0.0,0.0,0.0,0.0,0.0,0.0,0.0,0.0,0.0,0.0,0.0,0.0,0.0,0.0,0.0,0.0,0.0,0.0,0.0,0.0,0.0,0.0,0.0,0.0,0.0,0.0,0.0,0.0,0.0,0.0,0.0,0.0,0.0,0.0,0.0,0.0,0.0,0.0,0.0,0.0,0.0,0.0,0.0,0.0,0.0,0.0,0.0,0.0,0.0,0.0,0.0,0.0,0.0,0.0,0.0,0.0,0.0,0.0,0.0,0.0,0.0,0.0,0.0,0.0,0.0,0.0,0.0,0.0,0.0,0.0,0.0,0.0,0.0,0.0,0.0,0.0,0.0,0.0,0.0,0.0,0.0,0.0,0.0,0.0,0.0,0.0,0.0,0.0,0.0,0.0,0.0,0.0,0.0,0.0,0.0,0.0,0.0,0.0,0.0,0.0,0.0,0.0,0.0,0.0,0.0,0.0,0.0,0.0,0.0,0.0,0.0,0.0,0.0,0.0,0.0,0.0,0.0,0.0,0.0,0.0,0.0,0.0,0.0,0.0,0.0,0.0,0.0,0.0,0.0,0.0,0.0,0.0,0.0,0.0,0.0,0.0,0.0,0.0,0.0,0.0,0.0,0.0,0.0,0.0,0.0,0.0,0.0,0.0,0.0,0.0,0.0,0.0,0.0,0.0,0.0,0.0,0.0,0.0,0.0,0.0,0.0,0.0,0.0,0.0,0.0,0.0,0.0,0.0,0.0,0.0,0.0,0.0,0.0,0.0,0.0,0.0,0.0,0.0,0.0,0.0,0.0,0.0,0.0,0.0,0.0,0.0,0.0,0.0,0.0,0.0,0.0,0.0,0.0,0.0,0.0,0.0,0.0,0.0,0.0,0.0,0.0,0.0,0.0,0.0,0.0,0.0,0.0,0.0,0.0,0.0,0.0,0.0,0.0,0.0,0.0,0.0,0.0,0.0,0.0,0.0,0.0,0.0,0.0,0.0,0.0,0.0,0.0,0.0,0.0,0.0,0.0,0.0,0.0,0.0,0.0,0.0,0.0,0.0,0.0,0.0,0.0,0.0,0.0,0.0,0.0,0.0,0.0,0.0,0.0,0.0,0.0,-0.766,0.0,0.0,0.0,0.0,0.0,0.0,0.0,0.0,0.0,0.0,0.0,0.0,0.0,0.0,0.0,0.0,0.0,0.0,0.0,0.0,0.0,0.0,0.0,0.0,-0.6926,-0.6753,-0.6508,-0.6982,-0.6859,-0.5975,0.0,0.0,0.0,0.0,0.0,-0.7033,-0.644,-0.6007,-0.5622,-0.4976,-0.4221,-0.3408,-0.3335,-0.3289,-0.3282,0.0,0.0,0.0,0.0,0.0,0.0,0.0,0.0,0.0,0.0,0.0,0.0,0.0,0.0,0.0,0.0,0.0,0.0,0.0,0.0,0.0,0.0,0.0,0.0,0.0,0.0,0.0,0.0,0.0,0.0,0.0,0.0,0.0,0.0,0.0,0.0,0.0,0.0,0.0,0.0,0.0,0.0,0.0,0.0,0.0,0.0,0.0,0.0,0.0,0.0,0.0,0.0,0.0,0.0,0.0,0.0,0.0,0.0,0.0,0.0,0.0,0.0,0.0,0.0,0.0,0.0,0.0,0.0,0.0,0.0,0.0,-0.7736,0.0,0.0,0.0,0.0,0.0,0.0,0.0,0.0,0.0,0.0,0.0,0.0,0.0,0.0,0.0,0.0,0.0,0.0,0.0,0.0,0.0,-0.6641,-0.6973,-0.7007,-0.6669,-0.5909,-0.6667,-0.6351,-0.4577,-0.6198,0.0,0.0,-0.608,-0.6132,-0.6132,-0.5952,-0.5487,-0.4629,-0.4428,-0.3392,-0.179,-0.1831,-0.178,-0.1763,-0.3584,0.0,0.0,0.0,0.0,0.0,0.0,0.0,0.0,0.0,0.0,0.0,0.0,0.0,0.0,0.0,0.0,0.0,0.0,0.0,0.0,0.0,0.0,0.0,0.0,0.0,0.0,0.0,0.0,0.0,0.0,0.0,0.0,0.0,0.0,0.0,0.0,0.0,0.0,0.0,0.0,0.0,0.0,0.0,0.0,0.0,0.0,0.0,0.0,0.0,0.0,0.0,0.0,0.0,0.0,0.0,0.0,0.0,0.0,0.0,0.0,0.0,0.0,0.0,-1.0424,-1.0632,-1.1097,-1.0561,-1.0295,-1.0251,-0.9305,-0.8709,-0.853,0.0,0.0,0.0,0.0,0.0,0.0,0.0,0.0,0.0,0.0,0.0,0.0,0.0,0.0,0.0,0.0,0.0,0.0,0.0,0.0,-0.6837,-0.7265,-0.7312,-0.7008,-0.6034,-0.6145,-0.5721,-0.4671,-0.4886,-0.5023,-0.5001,-0.5018,-0.5027,-0.5027,-0.4191,-0.3588,-0.3436,-0.2619,-0.2089,-0.1948,-0.203,-0.2044,-0.199,-0.2127,-0.2104,-0.2113,0.0,0.0,0.0,0.0,0.0,0.0,0.0,0.0,0.0,0.0,0.0,0.0,0.0,0.0,0.0,0.0,0.0,0.0,0.0,0.0,0.0,0.0,0.0,0.0,0.0,0.0,0.0,0.0,0.0,0.0,0.0,0.0,0.0,0.0,0.0,0.0,0.0,0.0,0.0,0.0,0.0,-0.8374,-0.8847,0.0,0.0,0.0,0.0,0.0,0.0,0.0,0.0,0.0,0.0,0.0,0.0,0.0,-0.9022,-0.9682,-1.0172,-1.0599,-1.069,-1.1649,-1.2407,-1.2956,-1.248,-1.2088,-1.223,-1.255,0.0,-1.0301,-0.93,0.0,0.0,0.0,0.0,0.0,0.0,0.0,0.0,0.0,0.0,0.0,0.0,0.0,0.0,0.0,0.0,0.0,0.0,0.0,0.0,0.0,-0.662,-0.6049,-0.4549,-0.503,-0.4789,-0.3137,-0.4176,-0.4574,-0.3934,-0.3924,-0.3924,-0.3924,-0.3488,-0.3295,-0.3354,-0.2471,-0.2105,-0.2178,-0.2252,-0.2288,-0.2283,-0.2109,-0.1985,-0.1899,-0.1804,0.0,0.0,0.0,0.0,0.0,0.0,0.0,0.0,0.0,0.0,0.0,0.0,0.0,0.0,0.0,0.0,0.0,0.0,0.0,0.0,0.0,0.0,0.0,0.0,0.0,0.0,0.0,0.0,0.0,0.0,0.0,0.0,0.0,0.0,0.0,0.0,0.0,0.0,0.0,-0.8364,-0.8542,-0.7987,-0.8289,-0.8472,0.0,0.0,0.0,0.0,0.0,0.0,0.0,0.0,0.0,-0.9462,-1.0406,-1.1228,-1.1768,-1.2038,-1.234,-1.2692,-1.3204,-1.3677,-1.3966,-1.3632,-1.3584,-1.3506,-1.376,-1.3468,-1.2571,-1.0723,-0.9362,-0.8415,0.0,0.0,0.0,0.0,-0.8961,-0.8401,0.0,0.0,0.0,0.0,0.0,0.0,0.0,0.0,0.0,0.0,0.0,0.0,-0.6037,-0.5829,-0.5066,-0.3354,-0.4053,-0.3867,-0.1939,-0.3312,-0.3775,-0.2893,-0.2845,-0.2828,-0.2843,-0.2856,-0.307,-0.3137,-0.2619,-0.2341,-0.2414,-0.2476,-0.2517,-0.2533,-0.2427,-0.2251,-0.2029,-0.1928,-0.1851,-0.1789,0.0,0.0,0.0,0.0,0.0,0.0,0.0,0.0,0.0,0.0,0.0,0.0,0.0,0.0,0.0,0.0,0.0,0.0,0.0,0.0,0.0,0.0,0.0,0.0,0.0,0.0,0.0,0.0,0.0,0.0,0.0,0.0,0.0,0.0,0.0,0.0,0.0,-0.8466,-0.8608,-0.7928,-0.8017,-0.8072,0.0,0.0,0.0,0.0,0.0,0.0,-0.8664,-0.936,-1.0319,-1.1328,-1.246,-1.3185,-1.3634,-1.3562,-1.3857,-1.4383,-1.4361,-1.4308,-1.4217,-1.433,-1.427,-1.4374,-1.4493,-1.4527,-1.4455,-1.2471,-1.0482,-0.9058,-0.972,-0.9729,-0.9481,-1.0371,-1.0009,-0.9184,0.0,0.0,0.0,0.0,0.0,0.0,0.0,0.0,0.0,0.0,0.0,-0.5802,-0.6278,-0.5579,-0.4594,-0.3682,-0.3673,-0.3143,-0.2005,-0.1935,-0.1829,-0.1851,-0.1766,-0.1732,-0.1763,-0.1944,-0.202,-0.2229,-0.2383,-0.2517,-0.2632,-0.2694,-0.2722,-0.2721,-0.2657,-0.2559,-0.2421,-0.2132,-0.2023,-0.2157,-0.301,0.0,0.0,0.0,0.0,0.0,0.0,0.0,0.0,0.0,0.0,0.0,0.0,0.0,0.0,0.0,0.0,0.0,0.0,0.0,0.0,0.0,0.0,0.0,0.0,0.0,0.0,0.0,0.0,0.0,0.0,0.0,0.0,0.0,0.0,0.0,0.0,0.0,0.0,-0.9746,-0.9069,0.0,0.0,0.0,0.0,-0.7977,-0.9069,-0.9999,-1.0578,-1.1734,-1.2568,-1.3202,-1.3828,-1.4304,-1.4274,-1.4183,-1.4229,-1.4256,-1.4223,-1.4223,-1.4269,-1.4283,-1.4289,-1.4296,-1.4861,-1.5212,-1.5106,-1.4339,-1.3014,-1.1328,-1.0901,-1.0696,-1.0883,-1.2604,-1.2807,-1.2216,0.0,0.0,0.0,0.0,0.0,-0.6371,-0.6465,-0.6624,-0.6778,-0.6905,-0.6317,-0.5795,-0.5431,-0.4681,-0.3843,-0.2957,-0.2864,-0.2692,-0.217,-0.2003,-0.1895,-0.1868,-0.1761,-0.1771,-0.1918,-0.2041,-0.2207,-0.2418,-0.2568,-0.2684,-0.2765,-0.2806,-0.2826,-0.2823,-0.2782,-0.2729,-0.2652,-0.2349,-0.2172,-0.2078,-0.225,-0.2358,0.0,0.0,0.0,0.0,0.0,0.0,0.0,0.0,0.0,0.0,0.0,0.0,0.0,0.0,0.0,0.0,0.0,0.0,0.0,0.0,0.0,0.0,0.0,0.0,0.0,0.0,0.0,0.0,0.0,0.0,0.0,0.0,0.0,0.0,0.0,0.0,0.0,-1.1955,-0.9863,0.0,-0.9632,-0.9398,-0.9478,-1.0199,-1.1084,-1.1851,-1.2368,-1.3219,-1.371,-1.3985,-1.4492,-1.4935,-1.497,-1.5049,-1.5132,-1.4847,-1.4814,-1.4862,-1.4808,-1.4517,-1.4388,-1.4369,-1.4848,-1.5132,-1.5188,-1.4625,-1.3985,-1.3366,-1.2845,-1.2742,-1.2813,-1.3356,-1.3451,-1.2978,0.0,0.0,0.0,0.0,-0.6029,-0.6236,-0.6373,-0.6589,-0.6632,-0.6449,-0.5935,-0.5335,-0.4593,-0.3754,-0.3057,-0.2626,-0.2484,-0.2438,-0.2328,-0.2112,-0.1971,-0.1933,-0.1864,-0.191,-0.209,-0.2233,-0.2399,-0.259,-0.272,-0.2815,-0.2874,-0.2894,-0.2904,-0.2902,-0.2882,-0.2856,-0.2814,-0.2593,-0.239,-0.22,-0.203,-0.1839,-0.1941,0.0,0.0,0.0,0.0,0.0,0.0,0.0,0.0,0.0,0.0,0.0,0.0,0.0,0.0,0.0,0.0,0.0,0.0,0.0,0.0,0.0,0.0,0.0,0.0,0.0,0.0,0.0,0.0,0.0,0.0,0.0,0.0,0.0,0.0,0.0,-1.0512,-1.3316,-1.1586,-1.047,-1.1532,-1.1255,-1.1482,-1.2436,-1.2943,-1.3297,-1.3981,-1.4433,-1.4643,-1.4613,-1.4965,-1.5272,-1.5195,-1.5348,-1.5375,-1.5271,-1.5238,-1.5259,-1.5162,-1.4916,-1.4778,-1.4719,-1.5011,-1.5292,-1.5195,-1.4577,-1.436,-1.4436,-1.4024,-1.4033,-1.3973,-1.3909,-1.3684,-1.3411,0.0,0.0,0.0,-0.5528,-0.579,-0.5895,-0.5983,-0.6443,-0.6476,-0.5588,-0.4971,-0.4408,-0.3771,-0.2876,-0.2503,-0.2683,-0.2586,-0.2502,-0.2472,-0.2131,-0.193,-0.1933,-0.1966,-0.2042,-0.2166,-0.2399,-0.2593,-0.2744,-0.2834,-0.2908,-0.2964,-0.2964,-0.2964,-0.2964,-0.2964,-0.2947,-0.2916,-0.286,-0.2683,-0.2427,-0.227,-0.1929,-0.1632,0.0,0.0,0.0,0.0,0.0,0.0,0.0,0.0,0.0,0.0,0.0,0.0,0.0,0.0,0.0,0.0,0.0,0.0,0.0,0.0,0.0,0.0,0.0,0.0,0.0,0.0,0.0,0.0,0.0,0.0,0.0,0.0,0.0,-1.0725,-1.0785,-1.1681,-1.4022,-1.4314,-1.4124,-1.3475,-1.3465,-1.3605,-1.426,-1.4378,-1.452,-1.5162,-1.5161,-1.5205,-1.5132,-1.5285,-1.5176,-1.5169,-1.512,-1.5382,-1.557,-1.5533,-1.5458,-1.519,-1.5896,-1.5695,-1.5183,-1.5176,-1.5169,-1.5149,-1.4808,-1.4652,-1.4668,-1.4373,-1.434,-1.4215,-1.4036,-1.394,-1.36,0.0,0.0,-0.538,-0.5631,-0.578,-0.5888,-0.6198,-0.6437,-0.6338,-0.57,-0.5088,-0.4526,-0.3866,-0.3057,-0.265,-0.281,-0.2634,-0.2502,-0.2472,-0.211,-0.1918,-0.1962,-0.2097,-0.2267,-0.2474,-0.2587,-0.2728,-0.29,-0.2947,-0.299,-0.3028,-0.3028,-0.3028,-0.3028,-0.3028,-0.3022,-0.2826,-0.2811,-0.2921,-0.2787,-0.2484,-0.2323,-0.1965,0.0,0.0,0.0,0.0,0.0,0.0,0.0,0.0,0.0,0.0,0.0,0.0,0.0,0.0,0.0,0.0,0.0,0.0,0.0,0.0,0.0,0.0,0.0,0.0,0.0,0.0,0.0,0.0,0.0,0.0,0.0,-1.0559,-1.1323,-1.1911,-1.2573,-1.3377,-1.4388,-1.4609,-1.4456,-1.4436,-1.4256,-1.4381,-1.4562,-1.4893,-1.5014,-1.5243,-1.5403,-1.5341,-1.5221,-1.5269,-1.543,-1.5126,-1.5276,-1.5296,-1.5375,-1.5533,-1.5432,-1.5452,-1.5465,-1.5282,-1.5247,-1.5221,-1.5259,-1.5156,-1.4923,-1.4753,-1.4496,-1.4312,-1.4217,-1.4352,-1.4177,-1.4082,-1.3905,0.0,-0.5233,-0.5424,-0.5546,-0.5652,-0.579,-0.6026,-0.6263,-0.6065,-0.5069,-0.4856,-0.4482,-0.3278,-0.2836,-0.2702,-0.2791,-0.2624,-0.2469,-0.2363,-0.2108,-0.1993,-0.2067,-0.2255,-0.2453,-0.2654,-0.2743,-0.2863,-0.3018,-0.3036,-0.3061,-0.3091,-0.3103,-0.311,-0.311,-0.3122,-0.2932,-0.2931,-0.2919,-0.3081,-0.3016,-0.294,-0.2615,-0.2354,-0.2006,-0.1944,-0.2361,-0.5072,-0.5766,-0.5533,-0.6077,0.0,0.0,0.0,0.0,0.0,0.0,0.0,0.0,0.0,0.0,0.0,0.0,0.0,0.0,0.0,0.0,0.0,0.0,0.0,0.0,0.0,0.0,0.0,0.0,-1.108,-1.2001,-1.277,-1.3389,-1.3903,-1.4629,-1.4949,-1.5265,-1.516,-1.5039,-1.5053,-1.4991,-1.5396,-1.5389,-1.5465,-1.5677,-1.5594,-1.5594,-1.5655,-1.5588,-1.5377,-1.552,-1.5486,-1.5282,-1.5493,-1.5574,-1.5348,-1.5486,-1.5459,0.0,-1.533,-1.5194,-1.5245,-1.4997,-1.4862,0.0,0.0,0.0,0.0,0.0,-1.4245,-1.4136,0.0,-0.5262,-0.5365,-0.5339,-0.5488,-0.5635,-0.5752,-0.6064,-0.5758,-0.4208,-0.4511,-0.4169,-0.2433,-0.2527,-0.2676,-0.2687,-0.2568,-0.241,-0.2213,-0.2124,-0.2125,-0.223,-0.2431,-0.2609,-0.2759,-0.2881,-0.2998,-0.3112,-0.3116,-0.3131,-0.3159,-0.3189,-0.3201,-0.32,-0.3027,-0.3038,-0.3239,-0.3213,-0.3186,-0.315,-0.3063,-0.2965,-0.2665,-0.2402,-0.2341,-0.2215,-0.2331,-0.2077,-0.2012,-0.2462,0.0,0.0,0.0,0.0,0.0,0.0,0.0,0.0,0.0,0.0,0.0,0.0,0.0,0.0,0.0,0.0,0.0,0.0,0.0,0.0,0.0,0.0,0.0,0.0,-1.1859,-1.2583,-1.3566,-1.3606,-1.3847,-1.455,-1.5519,-1.5981,-1.5667,-1.5574,-1.5588,-1.5681,-1.5786,-1.5862,-1.5876,0.0,0.0,0.0,0.0,-1.594,-1.5642,-1.5764,-1.5683,-1.5391,-1.5669,-1.5676,-1.5247,-1.571,-1.5815,-1.5262,-1.5371,-1.5337,-1.5194,-1.5052,-1.4984,-1.4943,-1.4631,-1.4428,-1.4299,-1.4299,-1.4299,-1.4278,0.0,-0.5262,-0.5373,-0.5168,-0.5332,-0.5515,-0.5739,-0.6064,-0.5758,-0.4208,-0.4467,-0.419,-0.2446,-0.2405,-0.2578,-0.2649,-0.248,-0.232,-0.2207,-0.2184,-0.2258,-0.2446,-0.2608,-0.2765,-0.2915,-0.3037,-0.3134,-0.3205,-0.323,-0.3245,-0.325,-0.3281,-0.3283,-0.326,-0.3084,-0.3303,-0.3303,-0.3298,-0.3277,-0.3447,-0.3179,-0.3041,-0.2857,-0.2869,-0.2784,-0.2736,-0.259,-0.2607,-0.2515,-0.2356,-0.2924,-0.3673,-0.3365,-0.5609,0.0,0.0,0.0,0.0,0.0,0.0,0.0,0.0,0.0,0.0,0.0,0.0,0.0,0.0,0.0,0.0,0.0,0.0,0.0,-1.1688,-1.2596,-1.3526,-1.4089,-1.4685,-1.5106,-1.5221,-1.5396,-1.5568,-1.5866,-1.5716,-1.5683,-1.5893,-1.6021,-1.6021,-1.5947,-1.6008,0.0,-1.6035,-1.6069,-1.594,-1.5642,-1.5669,-1.5527,-1.5228,0.0,0.0,-1.5601,-1.5655,-1.5696,-1.571,-1.5499,-1.5398,-1.5357,-1.5201,-1.5072,-1.4943,-1.4631,-1.4428,-1.4299,-1.4299,-1.4299,-1.4278,0.0,-0.5377,-0.5413,-0.5137,-0.5294,-0.5517,-0.5706,-0.5949,-0.56,-0.42,-0.4432,-0.3984,-0.233,-0.2248,-0.2357,-0.2356,-0.2218,-0.2151,-0.2196,-0.2285,-0.2435,-0.2661,-0.2815,-0.2958,-0.3093,-0.3156,-0.3216,-0.3276,-0.3291,-0.3298,-0.3299,-0.3121,-0.3336,-0.3322,-0.3352,-0.3366,-0.3366,-0.3366,-0.335,-0.3317,-0.3272,-0.3174,-0.3037,-0.3082,-0.2988,-0.2921,-0.2843,-0.2814,-0.2794,-0.2677,-0.248,-0.291,-0.661,-0.8467,-0.9181,0.0,0.0,0.0,0.0,0.0,0.0,0.0,0.0,0.0,0.0,0.0,0.0,0.0,0.0,-1.0101,-1.0585,0.0,-1.1921,-1.2596,-1.3363,-1.4061,-1.4658,-1.5126,-1.5411,-1.5411,-1.5608,-1.5832,-1.6062,-1.6015,-1.6001,-1.6076,-1.6144,-1.6157,-1.6083,-1.6368,-1.6429,-1.6205,-1.6415,-1.6313,-1.5866,-1.6008,-1.5893,-1.552,-1.5676,-1.575,-1.5945,-1.5744,-1.5744,-1.573,-1.5506,-1.5411,-1.5398,-1.5248,-1.5099,-1.495,-1.4713,-1.4536,-1.4394,-1.4326,-1.4299,-1.4278,0.0,-0.5434,-0.5497,-0.515,-0.5336,-0.5588,-0.561,-0.584,-0.5495,-0.4127,-0.4215,-0.3833,-0.2176,-0.2057,-0.2101,-0.2027,-0.2003,-0.2064,-0.2233,-0.2418,-0.2628,-0.287,-0.3013,-0.3137,-0.3246,-0.326,-0.329,-0.3339,-0.3351,-0.3347,-0.333,-0.3157,-0.3377,-0.3369,-0.3404,-0.342,-0.342,-0.3427,-0.3412,-0.3381,-0.3351,-0.3306,-0.3242,-0.3103,-0.3002,-0.293,-0.2894,-0.2955,-0.2974,-0.2952,-0.3837,-0.6025,-1.1709,-1.2507,-1.1022,-0.9058,-0.8365,0.0,0.0,0.0,0.0,0.0,0.0,0.0,0.0,-0.9147,-0.949,-0.9982,-1.0329,-1.0857,-1.1545,-1.2052,-1.2617,-1.3526,-1.3994,-1.4462,-1.5092,-1.5391,-1.5533,-1.5499,-1.5954,-1.6239,-1.6171,-1.6225,-1.6239,-1.6171,-1.6334,-1.6361,-1.6178,-1.6598,-1.6714,-1.6402,-1.672,-1.6659,-1.6171,-1.6347,-1.6252,-1.59,-1.5995,-1.5988,-1.59,-1.59,-1.5832,-1.5716,-1.5533,-1.5438,-1.5398,-1.5248,-1.5113,-1.4991,-1.4808,-1.4665,-1.4536,-1.4367,-1.4299,-1.4285,0.0,-0.5434,-0.5497,-0.515,-0.5307,-0.5465,-0.559,-0.584,-0.5479,-0.4066,-0.4127,-0.3708,-0.1909,-0.1809,-0.1876,-0.1866,-0.2076,-0.2264,-0.239,-0.2593,-0.2815,-0.3056,-0.3159,-0.3242,-0.3102,-0.3365,-0.3395,-0.3401,-0.3456,-0.3441,-0.3363,-0.342,-0.3418,-0.3369,-0.3426,-0.3452,-0.3454,-0.348,-0.3475,-0.3444,-0.3414,-0.3381,-0.334,-0.3242,-0.3118,-0.299,-0.2931,-0.2969,-0.298,-0.2865,-0.7462,-1.3082,-1.402,-1.4053,-1.3429,-1.1043,-0.9626,-0.8833,-0.8843,-0.8488,-0.8397,-0.875,-0.8764,-0.8933,0.0,-1.0093,-1.027,-1.098,-1.1321,-1.1742,-1.2101,-1.2759,-1.3376,-1.3756,-1.4407,-1.4943,-1.5153,-1.5655,-1.5954,-1.5818,-1.5981,-1.6205,-1.6449,-1.6252,-1.6205,-1.6456,-1.6259,-1.6232,-1.6463,-1.6415,-1.6483,-1.6693,-1.6619,-1.6537,-1.6469,-1.6246,-1.6103,-1.6056,-1.5934,-1.594,-1.6056,-1.6056,-1.6049,-1.6015,-1.5737,-1.554,-1.5398,-1.5248,-1.5174,-1.5133,-1.4848,-1.4726,-1.4679,-1.4401,-1.4299,-1.4299,0.0,0.0,-0.5346,-0.5121,-0.5284,-0.5377,-0.5343,-0.5576,-0.5315,-0.387,-0.3901,-0.3468,-0.1745,-0.1617,-0.1665,-0.1682,-0.2751,-0.3076,-0.2334,-0.3606,-0.3981,-0.314,-0.3269,-0.3356,-0.3399,-0.3442,-0.3464,-0.3464,-0.349,-0.3483,-0.3446,-0.3472,-0.3469,-0.3446,-0.3472,-0.3483,-0.3484,-0.3495,-0.3495,-0.348,-0.345,-0.341,-0.3355,-0.3247,-0.3282,-0.3098,-0.3034,-0.2911,0.0,-0.5966,-0.9718,-1.3425,-1.4072,-1.4366,-1.3953,-1.2224,-1.0458,-0.8809,-0.8607,-0.8639,-0.8832,-0.9015,-0.9408,-0.993,-1.0636,-1.0928,-1.1226,-1.1816,-1.2298,-1.2732,-1.3119,-1.3593,-1.4075,0.0,-1.4889,-1.5174,-1.5411,-1.5737,-1.5825,-1.5499,-1.5676,-1.5974,-1.6361,-1.6286,-1.63,-1.6503,-1.649,-1.6483,-1.6517,-1.6632,-1.6673,-1.6619,-1.6727,-1.6666,-1.6402,-1.6361,-1.6252,-1.6083,-1.6015,-1.6022,-1.6076,-1.5988,-1.5906,-1.5818,-1.5689,-1.5554,-1.5398,-1.5248,-1.5181,-1.516,-1.4957,-1.4875,-1.4828,-1.4441,-1.4299,-1.4285,0.0,0.0,0.0,-0.5202,-0.5327,-0.5333,-0.5178,-0.5393,-0.5194,-0.4086,-0.3866,-0.3181,-0.1629,-0.149,-0.1523,-0.1545,-0.3083,-0.3631,-0.2249,-0.4223,-0.4728,-0.3164,-0.3328,-0.343,-0.3468,-0.3499,-0.3513,-0.3513,-0.3524,-0.352,-0.3502,-0.3509,-0.3509,-0.3502,-0.352,-0.3527,-0.3527,-0.3534,-0.3531,-0.3513,-0.3482,-0.3418,-0.3328,-0.3398,-0.3204,-0.3171,-0.2933,-0.3772,-0.5234,-0.8417,-1.0675,-1.2255,-1.3185,-1.3465,-1.3082,-1.1887,-1.029,-0.8853,-0.8501,-0.8904,-0.9374,-0.9544,-1.0202,-1.0941,-1.1477,-1.183,-1.2203,-1.2759,-1.3166,-1.3532,-1.3899,-1.4183,-1.4523,-1.5038,-1.5194,-1.5337,-1.5601,-1.573,-1.5628,-1.5174,-1.5282,-1.5533,-1.5906,-1.6056,-1.6218,-1.6442,-1.6564,-1.6619,-1.6585,-1.6795,-1.6836,-1.6653,-1.6822,-1.6781,-1.6497,-1.651,-1.6435,-1.6266,-1.6185,-1.6144,-1.6137,-1.5988,-1.5839,-1.5696,-1.5655,-1.5554,-1.5398,-1.5248,-1.5181,-1.5167,-1.5025,-1.4943,-1.4862,-1.4496,-1.436,-1.434,0.0,0.0,0.0,0.0,-0.5411,-0.5395,-0.5367,-0.5526,-0.5416,-0.48,-0.4092,-0.3063,-0.1555,-0.1446,-0.1482,-0.1483,-0.2764,-0.3156,-0.205,-0.3965,-0.4465,-0.3328,-0.3315,-0.344,-0.3499,-0.331,-0.3544,-0.3544,-0.3572,-0.3558,-0.3502,-0.3531,-0.3527,-0.3506,-0.3562,-0.3587,-0.3589,-0.3618,-0.3596,-0.354,-0.3513,-0.3412,-0.3466,-0.3302,-0.3101,-0.2897,-0.2833,-0.5784,-0.9484,-0.9047,-0.9775,-1.092,-1.1505,-1.1277,-1.0624,-0.9383,-0.8964,-0.8852,-0.891,-0.9361,-0.9944,-1.0527,-1.1131,-1.1775,-1.2515,-1.2915,-1.3254,-1.3709,-1.3933,-1.4095,-1.4258,-1.4407,-1.4611,-1.493,-1.5215,-1.5459,-1.5615,-1.5642,-1.5479,-1.5031,-1.4855,-1.4835,0.0,-1.5404,-1.5839,-1.6286,-1.632,-1.6442,-1.6727,-1.6754,-1.6822,-1.6965,-1.6829,-1.6822,-1.6958,-1.6666,-1.6592,-1.6727,-1.6442,-1.63,-1.63,-1.6144,-1.5995,-1.5839,-1.5696,-1.5554,-1.5398,-1.5248,-1.5181,-1.5167,-1.5025,-1.4875,-1.4726,-1.4563,-1.4502,-1.4482,0.0,0.0,0.0,0.0,0.0,-0.5513,-0.5508,-0.5501,-0.5267,-0.4748,-0.3635,0.0,0.0,0.0,0.0,0.0,-0.3281,-0.4364,-0.4249,-0.7402,-0.7458,-0.3286,-0.3401,-0.3362,-0.3594,-0.3471,-0.3517,-0.3517,-0.3527,-0.3531,-0.3531,-0.354,-0.3551,-0.3562,-0.358,-0.3589,-0.3814,-0.3825,-0.3583,-0.3538,-0.3448,-0.3344,-0.3421,-0.3028,-0.5199,-0.7981,0.0,-0.7907,-0.91,-0.8518,-0.8558,-0.8959,-0.964,-0.9425,-0.8954,-0.8916,-0.9298,-0.9801,-0.9652,-1.0256,-1.1009,-1.1613,-1.221,-1.2793,-1.3342,-1.362,-1.3783,-1.3831,-1.3729,-1.358,-1.3437,-1.3614,-1.3905,-1.4312,-1.4869,-1.5309,-1.5466,-1.5655,-1.5432,-1.4489,-1.4679,0.0,0.0,0.0,0.0,-1.6259,-1.6395,-1.6585,-1.689,-1.6904,-1.6931,-1.6978,-1.6931,-1.6876,-1.6829,-1.6727,-1.6598,-1.6456,-1.6252,-1.6212,-1.6307,-1.6151,-1.5995,-1.5845,-1.5703,-1.5554,-1.5398,-1.5248,-1.5181,-1.5167,-1.5025,-1.4997,-1.4991,-1.4638,-1.4577,-1.4624,0.0,0.0,0.0,0.0,0.0,0.0,0.0,0.0,0.0,0.0,0.0,0.0,0.0,0.0,0.0,0.0,0.0,-0.4383,-0.3897,-0.8103,-0.8296,-0.3317,-0.3082,-0.3239,-0.3464,-0.3552,-0.3621,-0.3466,-0.3499,-0.355,-0.3614,-0.3636,-0.3657,-0.3679,-0.3495,-0.3728,-0.373,-0.373,-0.3689,-0.3614,-0.3465,-0.3315,-0.3529,-0.5851,-0.8613,0.0,-0.9275,-0.861,-0.8549,-0.8177,-0.8047,-0.806,-0.8439,-0.8336,-0.8103,-0.8477,-0.9652,-1.0703,-1.06,-1.1145,-1.1999,-1.2549,-1.3091,-1.358,-1.3926,-1.3994,-1.3919,-1.3654,-1.3322,-1.299,-1.2698,-1.2712,-1.2996,-1.3715,-1.4231,-1.4726,-1.5255,-1.5404,-1.5153,-1.4326,-1.4428,-1.4394,0.0,0.0,0.0,-1.5927,-1.6273,-1.6558,-1.6802,-1.6924,-1.6978,-1.6978,-1.6978,-1.6931,-1.6836,-1.6829,-1.668,-1.6381,-1.6178,-1.613,-1.6225,-1.613,-1.5967,-1.5771,-1.5676,-1.552,-1.5323,-1.5221,-1.5181,-1.5174,-1.5079,-1.5072,-1.5065,-1.4719,-1.4618,-1.4624,0.0,0.0,0.0,0.0,0.0,0.0,0.0,0.0,0.0,0.0,0.0,0.0,0.0,0.0,0.0,0.0,0.0,0.0,-0.1479,-0.5818,-0.6762,-0.2937,-0.2917,-0.3027,-0.3292,-0.3302,-0.3377,-0.3346,-0.3265,-0.338,-0.3317,-0.3575,-0.3605,-0.3613,-0.3504,-0.3546,-0.3547,-0.3546,-0.3674,-0.3532,-0.3706,-0.3632,-0.3986,-1.0637,-1.2805,-1.1864,-0.9055,-0.7986,-0.8044,-0.8044,-0.7955,-0.7948,-0.8019,-0.7968,-0.8043,-0.8128,-0.9891,-1.1675,-1.1653,-1.2162,-1.2895,-1.3336,-1.377,-1.4122,-1.4258,-1.4041,-1.3675,-1.322,-1.2745,-1.2318,-1.2006,-1.1748,-1.1965,-1.3139,-1.3403,-1.3865,-1.5038,-1.4984,-1.4753,0.0,0.0,0.0,0.0,0.0,0.0,-1.535,0.0,-1.6361,-1.6537,-1.6822,-1.6978,-1.6978,-1.6978,-1.6978,-1.6978,-1.6965,-1.6815,-1.653,-1.6225,-1.6083,-1.6083,-1.6076,-1.5906,-1.5628,-1.5628,-1.5459,-1.5181,-1.5181,-1.5181,-1.5181,-1.5174,-1.5092,-1.4964,-1.4801,-1.4652,-1.4502,0.0,0.0,0.0,0.0,0.0,0.0,0.0,0.0,0.0,0.0,0.0,0.0,0.0,0.0,0.0,0.0,0.0,0.0,-0.142,-0.2596,-0.2954,-0.1966,-0.2178,-0.2148,-0.2011,-0.2086,-0.2137,-0.2161,-0.2514,-0.2904,-0.2984,-0.3,-0.3033,-0.3079,-0.3104,-0.3126,-0.3326,-0.3303,-0.3254,-0.3536,-0.7768,-0.8641,-0.7527,-0.9333,-0.9645,-0.9032,-0.8231,-0.7974,-0.7999,-0.7999,-0.8001,-0.8043,-0.8005,-0.8035,-0.8335,-1.0162,-1.1657,-1.2617,-1.2712,-1.3017,-1.3641,-1.3987,-1.4156,-1.4224,-1.415,-1.3722,-1.3186,-1.263,-1.1803,-1.1016,-1.0487,-1.0792,-1.1402,-1.2264,-1.3431,0.0,-1.5398,-1.5744,0.0,-1.5086,0.0,-1.5092,-1.4462,-1.4909,0.0,0.0,-1.5757,-1.6232,-1.6836,-1.6937,-1.6978,-1.6978,-1.6978,-1.6978,-1.6978,-1.6754,-1.6659,-1.6686,-1.6279,-1.6083,-1.6076,-1.5961,-1.575,-1.5466,-1.5466,-1.5357,-1.5181,-1.5181,-1.5181,-1.5174,-1.5065,-1.5065,-1.5099,-1.4835,-1.4713,-1.4658,0.0,0.0,0.0,0.0,0.0,0.0,0.0,0.0,0.0,0.0,0.0,0.0,0.0,0.0,0.0,0.0,0.0,0.0,0.0,-0.2355,-0.1533,-0.16,-0.3593,-0.3764,-0.1705,-0.1752,-0.1665,-0.1855,-0.2024,-0.2235,-0.2496,-0.251,-0.2541,-0.2425,-0.2448,-0.263,-0.2806,-0.5417,-0.6301,0.0,0.0,-0.9812,-0.8907,-0.8666,-0.8236,-0.8054,-0.8035,-0.7992,-0.7962,-0.7998,-0.7973,-0.8282,-1.0126,-1.0703,-1.0868,-1.1803,-1.2798,-1.3521,-1.3619,-1.3865,-1.4095,-1.4333,-1.4292,-1.4075,-1.3593,-1.3071,-1.242,-1.1497,-1.0677,-0.9992,-0.9517,-0.9829,-1.0514,-1.1592,0.0,0.0,-1.5269,-1.5716,-1.5832,0.0,-1.5683,0.0,-1.5147,-1.5425,-1.571,0.0,-1.5995,-1.6266,-1.6754,-1.6904,-1.6978,-1.6978,-1.6978,-1.6978,-1.6978,-1.6741,-1.6666,-1.6748,-1.6368,-1.6144,-1.6076,-1.5927,-1.5689,-1.5411,0.0,-1.5323,-1.5181,-1.5181,-1.5181,-1.5174,-1.5092,-1.5113,-1.5153,-1.4923,-1.4801,-1.4719,0.0,0.0,0.0,0.0,0.0,0.0,0.0,0.0,0.0,0.0,-0.6125,0.0,0.0,0.0,0.0,0.0,0.0,0.0,0.0,0.0,-0.2411,-0.2406,-0.6062,-0.6261,-0.2742,-0.2611,-0.2371,-0.1738,-0.1792,-0.1769,-0.1771,-0.193,-0.1956,-0.1985,-0.2027,-0.2342,-0.3231,-0.8377,-1.009,-0.9698,-0.9115,-0.8885,-0.8807,0.0,-0.8136,-0.8086,-0.8071,-0.8001,-0.7986,-0.8154,-0.8329,-0.9007,-1.2995,-1.4254,-1.4064,-1.3126,-1.3461,-1.4393,-1.4536,-1.4562,-1.4434,-1.4523,-1.4292,-1.381,-1.2929,-1.2291,-1.1531,-1.0276,-0.9612,-0.9178,-0.8899,-0.9015,-0.9646,-1.1145,-1.2054,-1.3186,-1.4991,-1.5391,-1.5662,-1.609,-1.5934,-1.5825,-1.5934,-1.5845,-1.6001,-1.651,-1.6435,-1.6429,-1.6571,-1.6836,-1.6978,-1.6978,-1.6978,-1.6978,-1.6978,-1.6829,-1.6748,-1.6748,-1.6449,-1.6232,-1.6076,-1.5927,-1.5689,-1.5411,0.0,0.0,-1.5181,-1.5181,-1.5181,-1.5181,-1.5181,-1.5181,-1.5167,-1.5045,-1.4903,-1.4746,0.0,0.0,0.0,0.0,0.0,0.0,0.0,0.0,0.0,0.0,-0.6417,-0.6083,0.0,0.0,0.0,0.0,0.0,0.0,0.0,0.0,0.0,-0.6842,-0.7585,-0.7667,-0.697,-0.6956,-0.5222,-0.1618,-0.1741,-0.1778,-0.1603,-0.1723,-0.1869,-0.1801,-0.1806,-0.4038,-0.778,-0.8811,-0.9207,-0.9093,-0.8974,-0.8851,-0.889,-0.8779,0.0,0.0,-0.8192,-0.7992,-0.818,-0.9136,-0.9804,-1.0692,-1.349,-1.435,-1.4283,-1.4312,-1.455,-1.4736,-1.4944,-1.4903,-1.4977,-1.4753,-1.4285,-1.3682,-1.2908,-1.1809,-1.0744,-1.0012,-0.9205,-0.8587,-0.8418,-0.8804,-0.9646,-1.1145,-1.223,-1.3512,-1.5309,-1.5791,-1.6083,-1.6408,-1.651,-1.6517,-1.6415,-1.6497,0.0,0.0,0.0,-1.6741,-1.689,-1.6951,-1.6978,-1.6978,-1.6978,-1.6978,-1.6978,-1.6829,-1.6748,-1.6748,-1.6449,-1.6232,-1.6076,-1.5927,-1.5689,-1.5411,-1.5411,0.0,-1.5181,-1.5181,-1.5181,-1.5181,-1.5181,-1.5181,-1.5181,-1.5153,-1.5059,-1.4909,0.0,0.0,0.0,0.0,0.0,0.0,0.0,-0.6898,-0.7152,-0.7541,-0.727,-0.6825,-0.6323,-0.6319,-0.6529,0.0,0.0,0.0,0.0,0.0,0.0,-0.8021,-0.8052,-0.7965,-0.7958,-0.8044,-0.697,-0.4914,0.0,-0.3877,-0.161,-0.1703,-0.2902,-0.5076,-0.5393,-0.6811,-0.8937,-0.8858,-0.8858,-0.8911,-0.895,-0.8866,-0.8821,-0.8601,0.0,0.0,-0.8072,-0.8032,-0.8086,-0.8698,-0.9705,-1.1184,-1.3511,-1.435,-1.4339,-1.4449,-1.4738,-1.4812,-1.5038,-1.5194,-1.5147,-1.5004,-1.4285,-1.3315,-1.2176,-1.105,-0.9992,-0.9083,-0.8554,-0.8228,-0.816,-0.8635,-0.9401,-1.0514,-1.1382,-1.2596,-1.455,-1.5079,-1.5574,-1.6422,-1.6727,-1.6842,-1.6768,-1.6829,-1.687,0.0,0.0,-1.6904,-1.6978,-1.6978,-1.6978,-1.6978,-1.6978,-1.6978,-1.6978,-1.691,-1.6829,-1.6748,-1.6524,-1.63,-1.6076,-1.5845,-1.5622,-1.5404,-1.5323,0.0,-1.5181,-1.5181,-1.5181,-1.5181,-1.5181,-1.5181,-1.5181,-1.5181,-1.5092,-1.4964,0.0,0.0,0.0,0.0,0.0,0.0,0.0,-0.7469,-0.7667,-0.8104,-0.8223,-0.7883,-0.7124,-0.6593,-0.6452,0.0,0.0,0.0,0.0,0.0,0.0,0.0,0.0,-0.8038,-0.8038,0.0,0.0,-0.8037,-0.8039,0.0,0.0,0.0,0.0,0.0,-0.8472,-0.8659,-0.8689,-0.889,-0.8865,0.0,0.0,-0.8879,-0.8876,0.0,0.0,0.0,0.0,-0.7985,-0.8052,-0.7963,-0.8964,-1.0445,-1.2678,-1.3732,-1.3995,-1.417,-1.4563,-1.497,-1.5357,-1.5445,-1.5391,-1.5262,-1.4285,-1.2976,-1.1538,-1.0419,-0.9374,-0.8309,-0.8065,-0.8038,-0.8038,-0.8452,-0.9069,-0.991,-1.05,-1.1586,-1.3682,-1.4312,-1.5025,-1.6279,-1.6754,-1.6978,-1.6978,-1.6978,0.0,0.0,0.0,0.0,-1.6978,-1.6978,-1.6978,-1.6978,-1.6978,-1.6978,-1.6978,-1.6978,-1.6904,-1.6748,-1.6592,-1.6381,-1.6123,-1.5818,-1.5601,-1.5452,-1.5296,0.0,0.0,-1.5181,-1.5181,-1.5181,-1.5181,-1.5181,-1.5181,-1.5181,-1.5113,-1.5011,0.0,0.0,0.0,0.0,0.0,0.0,0.0,-0.7935,-0.8407,-0.8804,-0.8817,-0.9003,-0.9384,-0.7563,-0.6351,0.0,0.0,0.0,0.0,0.0,0.0,0.0,0.0,0.0,0.0,0.0,0.0,-0.7965,-0.7972,0.0,0.0,0.0,0.0,0.0,0.0,-0.8053,-0.8072,-0.8716,0.0,0.0,0.0,0.0,0.0,0.0,0.0,0.0,0.0,-0.7959,-0.7985,-0.8017,-0.8096,-0.8477,-0.999,-1.1775,-1.3278,-1.3492,-1.438,-1.5384,-1.5567,-1.5906,-1.6076,-1.5527,-1.4285,-1.2874,-1.1647,-1.0249,-0.9028,-0.8384,-0.814,-0.8038,-0.8038,-0.8201,-0.871,-0.9863,-1.0324,-1.1267,-1.3376,-1.4272,-1.5065,-1.6008,-1.6632,-1.6978,-1.6978,-1.6978,0.0,0.0,0.0,0.0,-1.6978,-1.6978,-1.6978,-1.6978,-1.6978,-1.6978,-1.6978,-1.6978,-1.6904,-1.6748,-1.6592,-1.6442,-1.6279,-1.5974,-1.5757,-1.5608,-1.5459,0.0,0.0,-1.5181,-1.5181,-1.5181,-1.5181,-1.5181,-1.5181,-1.5181,-1.5174,-1.5147,0.0,0.0,0.0,0.0,0.0,0.0,-0.7665,-0.7942,-0.8556,-0.9821,-0.9884,-0.9838,-1.0357,-0.8202,-0.6736,-0.6753,0.0,0.0,0.0,0.0,0.0,0.0,0.0,0.0,0.0,0.0,-0.8038,-0.8038,-0.8045,0.0,0.0,0.0,0.0,0.0,0.0,-0.8004,-0.8033,-0.8247,0.0,0.0,0.0,0.0,0.0,0.0,0.0,0.0,0.0,0.0,-0.7985,-0.7956,-0.8189,-0.8639,-0.8954,-1.023,-1.159,-1.282,-1.3831,-1.4774,-1.5554,-1.5967,-1.6069,-1.5649,-1.4353,-1.2834,-1.1545,-1.0168,-0.896,-0.8275,-0.8079,-0.8038,-0.8038,-0.8092,-0.8377,-0.9123,-0.9266,-0.9924,-1.1755,-1.2427,-1.3356,-1.5072,-1.5723,-1.6286,0.0,0.0,0.0,0.0,0.0,0.0,-1.6978,-1.6978,-1.6978,-1.6978,-1.6978,-1.6978,-1.6978,-1.6978,-1.6856,-1.6612,-1.6551,-1.6395,-1.6164,-1.5859,-1.5689,-1.5628,-1.5377,0.0,0.0,-1.5181,-1.5181,-1.5181,-1.5181,-1.5181,-1.5181,-1.5181,-1.5181,-1.5174,0.0,0.0,0.0,0.0,0.0,-0.7127,-0.7701,-0.7898,-0.8547,-0.9852,-1.0244,-1.0442,-1.0684,-0.9182,-0.7922,-0.7151,-0.7095,0.0,0.0,0.0,0.0,0.0,0.0,0.0,0.0,0.0,-0.8038,-0.8038,-0.8038,-0.8038,0.0,0.0,-0.8038,-0.8038,0.0,0.0,0.0,0.0,0.0,0.0,0.0,0.0,0.0,0.0,0.0,0.0,0.0,0.0,0.0,0.0,0.0,-0.8604,-0.8384,-0.8994,-1.0086,-1.1796,-1.3044,-1.4095,-1.512,-1.5669,-1.5879,-1.5581,-1.4265,-1.2712,-1.145,-1.0086,-0.8886,-0.8187,-0.8038,-0.8038,-0.8038,-0.8038,-0.8187,-0.8635,-0.8655,-0.9164,-1.0731,-1.128,-1.221,-1.4055,0.0,-1.5411,0.0,0.0,0.0,0.0,0.0,0.0,0.0,-1.6978,-1.6978,-1.6978,-1.6978,-1.6978,-1.6978,-1.6978,-1.6829,-1.6524,-1.6524,-1.6368,-1.6076,-1.5818,-1.5683,-1.5628,-1.5364,0.0,0.0,-1.5181,-1.5181,-1.5181,-1.5181,-1.5181,-1.5181,-1.5181,-1.5181,-1.5181,0.0,0.0,0.0,0.0,0.0,0.0,-0.7385,-0.7854,-0.8314,-0.8491,-0.9771,-1.0681,-1.0681,-1.0724,-0.9697,-0.7304,-0.7105,0.0,0.0,0.0,0.0,0.0,0.0,0.0,0.0,0.0,-0.8038,-0.8038,-0.8038,-0.8038,-0.8038,-0.8038,-0.8038,-0.8038,0.0,0.0,0.0,0.0,0.0,0.0,0.0,0.0,-0.8038,0.0,0.0,0.0,0.0,0.0,0.0,0.0,0.0,0.0,0.0,-0.8255,-0.8798,-1.0304,-1.2006,-1.3539,-1.415,-1.4964,-1.5567,-1.5262,-1.3953,-1.2461,-1.1402,-1.0012,-0.8771,-0.8167,-0.8038,-0.8038,-0.8038,-0.8038,-0.8187,-0.8635,-0.8838,-0.9408,-1.0758,-1.1457,-1.2162,-1.3078,-1.3722,-1.4441,-1.5343,0.0,0.0,0.0,0.0,0.0,0.0,-1.6978,-1.6978,-1.6978,-1.6978,-1.6978,-1.6978,-1.6978,-1.6829,-1.6524,-1.6524,-1.6368,-1.6076,-1.592,-1.5771,0.0,0.0,0.0,0.0,-1.5181,-1.5181,-1.5181,-1.5181,-1.5181,-1.5181,-1.5181,-1.5181,-1.5181,0.0,0.0,0.0,0.0,0.0,0.0,0.0,-0.7087,-0.7368,-0.8086,-0.8166,-0.8287,-0.8247,-0.971,-0.9714,-0.7271,-0.706,0.0,0.0,0.0,0.0,0.0,0.0,0.0,0.0,-0.7963,-0.8032,-0.802,-0.802,-0.7969,-0.7954,-0.7962,-0.7975,-0.7985,-0.7985,-0.8038,0.0,0.0,0.0,0.0,0.0,-0.7979,-0.8038,0.0,0.0,0.0,0.0,0.0,0.0,0.0,0.0,0.0,0.0,0.0,0.0,-0.9117,-1.0548,-1.2006,-1.2603,-1.3281,-1.3661,-1.3044,-1.2271,-1.1389,-1.0337,-0.9496,-0.8771,-0.816,-0.8038,-0.8038,-0.8038,-0.8038,-0.8255,-0.8906,-0.9144,-0.9537,-1.0371,-1.1179,-1.2169,-1.3471,-1.5153,-1.6279,0.0,0.0,0.0,0.0,0.0,0.0,0.0,-1.6978,-1.6978,-1.6978,-1.6978,-1.6978,-1.6978,-1.6978,-1.6829,-1.6524,-1.6524,-1.6368,-1.6076,-1.5825,-1.5683,0.0,0.0,0.0,0.0,-1.5181,-1.5181,-1.5181,-1.5181,-1.5181,-1.5181,-1.5181,-1.5181,-1.5181,0.0,0.0,0.0,0.0,0.0,0.0,0.0,-0.6606,-0.6854,-0.7609,-0.7343,-0.7037,-0.6791,-0.8335,-0.8766,-0.7259,-0.7118,0.0,0.0,0.0,0.0,0.0,0.0,0.0,-0.8007,-0.8007,-0.8052,-0.8024,-0.8408,-0.873,-0.8653,-0.8497,-0.8214,-0.8027,-0.8037,-0.8039,0.0,0.0,0.0,0.0,-0.8018,-0.8004,-0.7963,0.0,0.0,0.0,0.0,0.0,0.0,0.0,0.0,0.0,0.0,0.0,0.0,0.0,-0.9347,-1.0419,-1.1246,-1.1952,-1.2325,-1.1796,-1.1246,-1.0616,-0.9795,-0.9171,-0.8628,-0.814,-0.8038,-0.8038,-0.8038,-0.8038,-0.8208,-0.8737,-0.8994,-0.9361,-1.0019,-1.0928,0.0,-1.3736,0.0,0.0,0.0,0.0,0.0,0.0,0.0,0.0,0.0,-1.6978,-1.6978,-1.6978,-1.6978,-1.6978,-1.6978,-1.6924,-1.6768,-1.6524,-1.6469,-1.6313,-1.6076,-1.5832,-1.5689,0.0,0.0,0.0,0.0,-1.5181,-1.5181,-1.5181,-1.5181,-1.5181,-1.5181,-1.5181,-1.5181,-1.5181,0.0,0.0,0.0,0.0,0.0,0.0,0.0,-0.6435,-0.6469,-0.7,-0.7069,-0.689,-0.6371,-0.6821,-0.7114,-0.7082,-0.7151,0.0,0.0,0.0,0.0,0.0,0.0,0.0,-0.7911,-0.8021,-0.8019,-0.7948,-0.9223,-0.9846,-0.9909,-0.9225,-0.8626,-0.7973,-0.796,-0.8007,0.0,0.0,0.0,0.0,-0.7984,-0.7957,0.0,0.0,0.0,0.0,0.0,0.0,0.0,0.0,0.0,0.0,0.0,0.0,0.0,0.0,0.0,0.0,0.0,-1.086,-1.1382,-1.1199,-1.0649,-1.0039,-0.9598,-0.896,0.0,-0.8099,-0.8038,-0.8045,-0.8065,-0.8052,-0.8106,-0.8316,-0.8587,-0.9028,-0.9754,-1.0853,0.0,0.0,-1.5113,0.0,0.0,0.0,0.0,0.0,0.0,0.0,0.0,-1.6978,-1.6978,-1.6978,-1.6971,-1.6965,-1.6965,-1.6822,-1.6666,-1.6503,-1.6374,-1.6225,-1.6062,-1.5906,-1.5757,0.0,0.0,0.0,0.0,-1.5181,-1.5181,-1.5181,-1.5181,-1.5181,-1.5181,-1.5181,-1.5181,-1.5181,0.0,0.0,0.0,0.0,0.0,0.0,0.0,0.0,0.0,0.0,-0.6512,-0.6433,-0.6276,-0.6805,-0.713,0.0,0.0,0.0,0.0,0.0,0.0,0.0,0.0,0.0,-0.7311,-0.7727,-0.7968,-0.7981,-0.972,-1.0724,-1.1152,-1.0074,-0.9039,-0.8041,-0.8043,-0.7994,0.0,0.0,0.0,0.0,-0.7515,-0.7608,0.0,0.0,0.0,0.0,-0.8038,-0.8038,0.0,0.0,0.0,0.0,0.0,0.0,0.0,0.0,-0.8133,-0.8411,-0.8574,0.0,-0.9449,-0.8954,-0.8866,-0.8818,0.0,-0.8364,-0.8269,-0.8079,-0.8038,-0.8106,-0.8336,-0.8194,-0.8275,-0.9001,-0.9279,-0.9578,-1.01,-1.206,0.0,0.0,0.0,0.0,0.0,0.0,0.0,0.0,0.0,0.0,0.0,-1.6978,-1.6978,-1.6978,-1.6863,-1.6802,-1.6802,-1.6768,-1.6619,-1.6361,-1.6327,-1.6171,-1.59,-1.5757,-1.5608,0.0,0.0,0.0,-1.5181,-1.5181,-1.5181,-1.5181,-1.5181,-1.5181,-1.5181,-1.5181,-1.5181,-1.5181,0.0,0.0,0.0,0.0,0.0,0.0,0.0,0.0,0.0,0.0,-0.6335,-0.6283,-0.6344,-0.6771,-0.7111,0.0,0.0,0.0,0.0,0.0,0.0,0.0,0.0,-0.7665,-0.7511,-0.7791,-0.8227,-0.8678,-0.9882,-1.0733,-1.1165,-1.0385,-0.9493,-0.8673,-0.8156,-0.7955,0.0,0.0,0.0,-0.7943,-0.7608,0.0,0.0,0.0,0.0,0.0,-0.7858,-0.7878,0.0,-0.7957,-0.7984,-0.8011,0.0,0.0,0.0,0.0,-0.7929,-0.8058,-0.8045,-0.8377,-0.8635,-0.8241,-0.8269,-0.8343,-0.818,-0.8153,-0.814,-0.8058,-0.8038,-0.8085,-0.8248,-0.8147,-0.8269,-0.896,-0.9259,-0.9869,-1.1219,0.0,-1.4529,-1.5771,0.0,0.0,0.0,0.0,0.0,0.0,0.0,-1.706,-1.6985,-1.6978,-1.6951,-1.6876,-1.6795,-1.6748,-1.6748,-1.6619,-1.6469,-1.6307,-1.6171,-1.6015,-1.5845,-1.5628,-1.5493,0.0,0.0,0.0,-1.5181,-1.5181,-1.5181,-1.5181,-1.5181,-1.5181,-1.5181,-1.5181,-1.5181,-1.5181,0.0,0.0,0.0,0.0,0.0,0.0,0.0,0.0,0.0,0.0,0.0,0.0,0.0,0.0,0.0,0.0,0.0,0.0,0.0,0.0,0.0,0.0,-0.7674,-0.7956,-0.8077,-0.8035,-0.8412,-0.9191,-1.0023,-1.0559,-1.0862,-1.0548,-0.9962,-0.9157,-0.8347,-0.7999,-0.8038,-0.8038,-0.7963,-0.7959,-0.7963,0.0,0.0,0.0,0.0,0.0,0.0,0.0,0.0,-0.7828,-0.7882,-0.7977,-0.7801,0.0,0.0,0.0,0.0,0.0,-0.8045,-0.8309,-0.8472,-0.8282,-0.8255,-0.8269,-0.8241,-0.8133,-0.8038,-0.8038,-0.8038,-0.8058,-0.8126,-0.816,-0.833,-0.8804,-0.9225,-1.0304,-1.261,-1.3668,-1.4767,0.0,0.0,0.0,0.0,0.0,0.0,0.0,0.0,-1.7005,-1.6985,-1.6978,-1.691,-1.6754,-1.6727,-1.6693,-1.6646,-1.6422,-1.63,-1.6273,-1.5988,-1.5845,-1.5811,-1.5533,-1.5398,-1.5371,0.0,0.0,-1.5181,-1.5181,-1.5181,-1.5181,-1.5181,-1.5181,-1.5181,-1.5181,-1.5181,-1.5181,0.0,0.0,0.0,0.0,0.0,0.0,0.0,0.0,0.0,0.0,0.0,0.0,0.0,0.0,0.0,0.0,0.0,0.0,0.0,0.0,0.0,-0.7183,-0.7228,-0.7651,-0.8505,-0.8146,-0.8099,-0.8202,-1.0384,-1.1371,-1.1509,-1.096,-0.978,-0.8256,-0.8041,-0.7969,-0.8038,-0.8038,-0.8024,-0.7997,-0.7784,0.0,0.0,0.0,0.0,0.0,0.0,0.0,0.0,-0.7678,-0.7726,-0.7801,-0.7522,0.0,0.0,0.0,0.0,0.0,-0.8269,-0.854,-0.8581,-0.8174,-0.8174,-0.8235,-0.8106,-0.8058,-0.8038,-0.8038,-0.8038,-0.8153,-0.854,-0.8716,-0.8988,0.0,0.0,-1.1708,0.0,0.0,0.0,0.0,0.0,0.0,0.0,0.0,0.0,0.0,0.0,0.0,-1.6985,-1.6978,-1.691,-1.6754,-1.6625,-1.6435,-1.6185,-1.6266,-1.6246,-1.6117,-1.594,-1.5791,-1.5669,-1.5493,-1.5343,-1.5215,0.0,-1.5181,-1.5181,-1.5181,-1.5181,-1.5181,-1.5181,-1.5181,-1.5181,-1.5181,-1.5181,-1.5181,0.0,0.0,0.0,0.0,0.0,0.0,0.0,0.0,0.0,0.0,0.0,0.0,0.0,0.0,0.0,0.0,0.0,0.0,0.0,0.0,-0.7489,-0.774,-0.7637,-0.7764,-0.824,-0.835,-0.8669,-0.9405,-1.0524,-1.1308,-1.181,-1.0778,-0.9712,-0.8641,-0.8181,-0.8024,-0.8038,-0.8038,-0.8038,-0.8031,0.0,0.0,0.0,0.0,0.0,0.0,0.0,0.0,0.0,0.0,-0.7624,-0.776,-0.7461,0.0,0.0,0.0,0.0,0.0,-0.7909,-0.8174,-0.8316,-0.8194,-0.8397,-0.8547,-0.8235,-0.8099,-0.8085,-0.8241,-0.8275,-0.8418,-0.8866,-0.9205,-0.9741,-1.0744,0.0,0.0,0.0,0.0,0.0,0.0,0.0,0.0,0.0,0.0,0.0,0.0,0.0,0.0,-1.6863,-1.6775,-1.6666,-1.6517,-1.6361,-1.6178,-1.5961,-1.5947,-1.5913,-1.5839,-1.5689,-1.5581,-1.5513,-1.5357,-1.5248,-1.5181,0.0,-1.5181,-1.5181,-1.5181,-1.5181,-1.5181,-1.5181,-1.5181,-1.5181,-1.5181,-1.5181,-1.5181,0.0,0.0,0.0,0.0,0.0,0.0,0.0,0.0,0.0,0.0,0.0,0.0,0.0,0.0,0.0,0.0,0.0,0.0,0.0,-0.7353,-0.7577,-0.8038,-0.8113,-0.8228,-0.8404,-0.8743,-0.9435,-1.0493,-1.0819,-1.1335,-1.1979,-1.0772,-0.9849,-0.9178,-0.8499,-0.814,-0.8038,-0.8038,-0.8038,-0.8038,0.0,0.0,0.0,0.0,0.0,0.0,0.0,0.0,0.0,0.0,0.0,0.0,0.0,0.0,0.0,-0.7461,-0.74,-0.7434,-0.7726,-0.795,-0.814,-0.833,-0.8581,-0.8737,-0.8567,-0.8411,-0.8404,-0.8771,-0.8818,-0.8913,-0.9293,-0.9842,0.0,-1.1938,0.0,0.0,0.0,0.0,0.0,0.0,0.0,0.0,0.0,0.0,0.0,0.0,0.0,0.0,-1.6653,-1.6537,-1.6388,-1.6205,-1.609,-1.594,-1.575,-1.5642,-1.5601,-1.5635,-1.5486,-1.5411,-1.5404,-1.5255,-1.5181,-1.5181,-1.5181,-1.5181,-1.5181,-1.5181,-1.5181,-1.5181,-1.5181,-1.5181,-1.5181,-1.5181,-1.5181,-1.5181,0.0,0.0,0.0,0.0,0.0,0.0,0.0,0.0,0.0,0.0,0.0,0.0,0.0,0.0,0.0,0.0,0.0,0.0,0.0,-0.7292,-0.7394,-0.7434,-0.8085,-0.8777,-0.9483,-0.953,-0.9856,-1.0493,-1.1335,-1.1782,-1.183,-1.1043,-1.0202,-0.9347,-0.8872,-0.8431,-0.8038,-0.8038,-0.8038,-0.8024,-0.7882,0.0,0.0,0.0,0.0,0.0,0.0,0.0,0.0,0.0,0.0,0.0,0.0,0.0,-0.7597,-0.7584,-0.7482,-0.7522,-0.8228,-0.8336,-0.8323,-0.8608,-0.8499,-0.8492,-0.915,-0.9184,-0.9239,-0.9815,-0.9822,-0.9781,-0.9958,-1.0812,-1.1837,-1.2901,0.0,0.0,0.0,0.0,0.0,0.0,0.0,0.0,0.0,0.0,0.0,0.0,0.0,0.0,-1.6354,-1.6334,-1.6191,-1.5893,-1.5879,-1.573,-1.5445,-1.5432,-1.5499,-1.5635,-1.5486,-1.5411,-1.5404,-1.5255,-1.5181,-1.5181,-1.5181,-1.5181,-1.5181,-1.5181,-1.5181,-1.5181,-1.5181,-1.5181,-1.5181,-1.5181,-1.5181,-1.5181,0.0,0.0,0.0,0.0,0.0,0.0,0.0,0.0,0.0,0.0,0.0,-0.8472,-0.8107,0.0,0.0,0.0,0.0,0.0,0.0,-0.7285,-0.7577,-0.8038,-0.833,-0.8791,-0.9456,-1.0012,-1.0731,-1.1613,-1.2135,-1.2196,-1.1809,-1.0785,-0.9924,-0.9211,-0.8574,-0.8248,-0.8174,-0.8079,-0.8092,-0.8167,-0.8018,-0.7896,0.0,0.0,0.0,0.0,0.0,0.0,0.0,0.0,-0.7285,-0.7475,-0.7251,-0.7434,-0.7692,-0.7509,-0.7414,-0.7455,-0.7828,-0.8031,-0.8194,-0.8492,-0.8696,-0.894,-0.9415,-0.9544,-0.9815,-1.0704,-1.0914,-1.1043,-1.1382,0.0,-1.2623,-1.3573,0.0,0.0,0.0,0.0,0.0,0.0,0.0,0.0,0.0,0.0,0.0,0.0,0.0,0.0,-1.6035,-1.594,-1.5839,-1.5723,-1.5628,-1.5527,-1.5411,-1.5316,-1.5296,-1.5357,-1.5296,-1.5269,-1.5269,-1.5208,-1.5181,-1.5181,-1.5181,-1.5181,-1.5181,-1.5181,-1.5181,-1.5181,-1.5181,-1.5181,-1.5181,-1.5181,-1.5181,-1.5181,0.0,0.0,0.0,0.0,0.0,0.0,0.0,0.0,-0.7696,0.0,0.0,0.0,0.0,-0.8581,0.0,0.0,0.0,0.0,-0.7075,-0.7258,-0.7597,-0.8106,-0.8357,-0.8743,-0.93,-1.0283,-1.1165,-1.1932,-1.2379,-1.2257,-1.1599,-1.0595,-0.9829,-0.9266,-0.8615,-0.8384,-0.8465,-0.8269,-0.8214,-0.8255,-0.8052,-0.7902,0.0,0.0,0.0,0.0,0.0,0.0,0.0,0.0,-0.7238,-0.7428,-0.7258,-0.7455,-0.7726,-0.7611,-0.7516,-0.7475,-0.7624,-0.778,-0.7984,-0.833,-0.875,-0.9286,-1.0066,-1.0283,-1.0629,-1.1728,-1.1891,-1.1938,-1.2291,-1.2522,0.0,0.0,0.0,0.0,0.0,0.0,0.0,0.0,0.0,0.0,0.0,0.0,0.0,0.0,0.0,0.0,0.0,-1.5622,-1.5547,-1.5499,-1.5391,-1.5337,-1.5337,-1.5235,-1.5181,-1.5181,-1.5181,-1.5181,-1.5181,-1.5181,-1.5181,-1.5181,-1.5181,-1.5181,-1.5181,-1.5181,-1.5181,-1.4993,-1.4993,-1.4993,-1.4993,-1.4993,-1.4993,-1.5187,0.0,0.0,0.0,0.0,0.0,0.0,0.0,0.0,-0.7509,-0.7509,-0.7481,0.0,0.0,0.0,0.0,0.0,0.0,0.0,-0.7111,-0.7293,-0.7366,-0.7373,-0.8079,-0.8682,-0.913,-1.0317,-1.1009,-1.1172,-1.1918,-1.1898,-1.1145,-1.0555,-1.0032,-0.9585,-0.9137,-0.894,-0.8913,-0.8608,-0.8397,-0.8241,-0.7936,-0.7814,-0.778,0.0,0.0,0.0,0.0,0.0,0.0,0.0,-0.7265,-0.7217,-0.7665,-0.7712,-0.7665,-0.795,-0.7834,-0.7638,-0.7773,-0.7712,-0.7712,-0.8167,-0.8621,-0.9422,-1.1212,-1.1504,-1.1742,-1.2942,-1.2718,-1.2352,-1.2494,-1.2515,0.0,0.0,0.0,0.0,0.0,0.0,0.0,0.0,0.0,0.0,0.0,0.0,0.0,0.0,0.0,0.0,0.0,-1.5411,-1.5337,-1.5187,-1.5181,-1.5181,-1.5181,-1.5181,-1.5181,-1.5181,-1.5181,-1.5181,-1.5181,-1.5181,-1.5181,-1.5181,-1.5181,-1.5181,-1.5181,-1.5181,-1.4805,-1.4422,-1.4422,-1.4422,-1.4422,-1.4422,-1.4805,-1.5201,0.0,0.0,0.0,0.0,0.0,0.0,0.0,0.0,-0.7484,-0.7484,-0.7478,0.0,0.0,0.0,0.0,0.0,0.0,0.0,-0.686,-0.6953,-0.7156,-0.736,-0.778,-0.8072,-0.8208,-0.9178,-1.0378,-1.1796,-1.1809,-1.1491,-1.0833,-1.0134,-0.9625,-0.9286,-0.915,-0.8913,-0.8615,-0.852,-0.8397,-0.8255,-0.8052,-0.7909,-0.7787,0.0,0.0,0.0,0.0,0.0,0.0,0.0,0.0,0.0,-0.7333,-0.7678,-0.8024,-0.7794,-0.7896,-0.8031,-0.7862,-0.7936,-0.818,-0.8628,-0.9388,-1.0337,-1.1504,-1.1816,-1.2352,-1.4082,-1.396,-1.3587,-1.3743,-1.3675,0.0,0.0,0.0,0.0,0.0,0.0,0.0,0.0,0.0,0.0,0.0,0.0,0.0,0.0,0.0,0.0,0.0,-1.5248,-1.5181,-1.5038,-1.5126,-1.5133,-1.5031,-1.5133,-1.5181,-1.5181,-1.5181,-1.5181,-1.5181,-1.5181,-1.5181,-1.5181,-1.4805,-1.4617,-1.4617,-1.4247,-1.4059,-1.387,-1.4241,-1.4241,-1.387,-1.4241,-1.4422,-1.4617,0.0,0.0,0.0,0.0,0.0,0.0,-0.7484,-0.7534,-0.7483,-0.7472,-0.7258,-0.6863,0.0,0.0,0.0,-0.6725,-0.675,0.0,-0.6791,-0.6898,-0.7122,-0.736,-0.7597,-0.7896,-0.8248,-0.9083,-0.9971,-1.0907,-1.0968,-1.0717,-1.0181,-0.9978,-0.9747,-0.9517,-0.9693,-0.949,-0.9008,-0.8886,-0.8648,-0.8336,-0.8126,-0.7984,-0.7882,0.0,0.0,0.0,0.0,0.0,0.0,0.0,0.0,0.0,-0.7244,-0.7543,-0.7882,-0.7726,-0.7794,-0.7896,-0.7828,-0.8038,-0.8404,-0.8974,-0.9903,-1.1002,-1.2257,-1.28,-1.3383,-1.4624,-1.4496,-1.419,-1.4285,-1.4122,0.0,0.0,0.0,0.0,0.0,0.0,0.0,0.0,0.0,0.0,0.0,0.0,0.0,0.0,0.0,0.0,0.0,-1.5099,-1.5031,-1.4882,-1.4964,-1.4964,-1.4882,-1.4964,-1.5004,-1.5004,-1.4819,-1.4633,-1.4639,-1.4752,-1.4805,-1.4617,-1.4183,-1.3971,-1.3971,-1.3602,-1.3228,-1.3421,-1.3657,-1.3676,-1.3493,-1.3676,-1.4052,-1.4429,0.0,0.0,-0.6406,-0.6431,0.0,0.0,-0.7384,-0.7434,-0.7492,-0.7516,-0.6835,-0.6345,0.0,0.0,0.0,-0.6617,-0.6722,-0.6746,-0.6791,-0.6953,-0.7183,-0.7366,-0.7556,-0.8058,-0.892,-0.9564,-0.9618,-0.9069,-0.97,-0.9788,-0.9374,-0.9964,-1.0168,-1.0066,-1.0473,-1.0324,-0.9741,-0.9415,-0.8954,-0.8418,-0.8133,-0.8011,-0.797,-0.7699,0.0,0.0,0.0,0.0,0.0,0.0,0.0,0.0,-0.7326,-0.74,-0.7482,-0.7719,-0.7631,-0.7509,-0.778,-0.8085,-0.852,-0.9286,-1.0324,-1.1599,-1.3302,-1.4116,-1.4563,-1.476,0.0,-1.4394,-1.438,-1.4143,0.0,0.0,0.0,0.0,0.0,0.0,0.0,0.0,0.0,0.0,0.0,0.0,0.0,0.0,0.0,0.0,0.0,-1.495,-1.4875,-1.4726,-1.4733,-1.4733,-1.4719,-1.4733,-1.474,-1.4557,-1.4192,-1.401,-1.3833,-1.4082,-1.4015,-1.3639,-1.3511,-1.3468,-1.3295,-1.2917,-1.2557,-1.276,-1.2881,-1.2928,-1.2928,-1.2928,-1.3487,-1.4253,0.0,0.0,-0.6406,-0.6431,0.0,0.0,-0.6603,-0.6937,-0.7227,-0.7492,-0.7061,-0.6662,-0.6352,-0.6476,0.0,-0.6393,-0.6471,-0.6607,-0.6695,-0.6763,-0.6966,-0.7353,-0.7855,-0.8384,-0.8927,-0.875,-0.8587,-0.8459,-0.9293,-0.953,-0.9211,-0.9693,-0.9964,-1.0053,-1.0148,-0.9863,-0.9259,-0.873,-0.8364,-0.8119,-0.7936,-0.7794,-0.7685,-0.7624,-0.7428,0.0,0.0,0.0,0.0,0.0,0.0,0.0,-0.7326,-0.7611,-0.7862,-0.7692,-0.7848,-0.8092,-0.8153,-0.8479,-0.9028,-1.0005,-1.1484,-1.2949,-1.3933,-1.434,-1.4652,-1.516,-1.5215,-1.5133,-1.5018,0.0,0.0,0.0,0.0,0.0,0.0,0.0,0.0,0.0,0.0,0.0,0.0,0.0,0.0,0.0,0.0,0.0,-1.4801,-1.4787,-1.4719,-1.4563,-1.4679,-1.4679,-1.4563,-1.4679,-1.4557,0.0,-1.4003,-1.3638,-1.2907,-1.3334,-1.3358,-1.2806,-1.2776,-1.2639,-1.2359,-1.2173,-1.2234,-1.2322,-1.2727,-1.2739,-1.2361,-1.2739,-1.3116,-1.3305,0.0,0.0,0.0,0.0,0.0,0.0,0.0,0.0,-0.6721,-0.6892,-0.6768,-0.6547,-0.6311,-0.64,0.0,0.0,-0.639,-0.6539,-0.6688,-0.677,-0.7014,-0.7461,-0.8052,-0.8384,-0.8397,-0.8316,-0.8167,-0.795,-0.8486,-0.8777,-0.8845,-0.9367,-0.9768,-1.0053,-1.0127,-0.9781,-0.9123,-0.8676,-0.8309,-0.8024,-0.7875,-0.7814,-0.7794,-0.7651,-0.7455,-0.7244,-0.717,0.0,0.0,0.0,0.0,0.0,0.0,0.0,-0.7611,-0.7604,-0.7712,-0.7902,-0.8194,-0.8703,-0.9537,-1.1158,-1.2481,-1.3566,-1.4245,-1.4462,-1.4618,-1.5011,-1.5147,-1.5133,-1.4903,0.0,0.0,0.0,0.0,0.0,0.0,0.0,0.0,0.0,0.0,0.0,0.0,0.0,0.0,0.0,0.0,-1.4794,-1.4638,-1.4631,-1.4529,-1.4306,-1.4196,-1.4024,-1.3945,-1.3774,-1.3668,-1.3443,-1.3195,-1.2663,-1.2006,-1.2489,-1.2363,-1.2174,-1.2113,-1.198,-1.1906,-1.1906,-1.1976,-1.2091,-1.2528,-1.2361,-1.2172,-1.255,-1.2739,-1.2928,0.0,0.0,0.0,0.0,0.0,0.0,0.0,0.0,0.0,-0.6316,-0.631,-0.6263,-0.6318,-0.6331,-0.6338,0.0,0.0,0.0,-0.6654,-0.6851,-0.7163,-0.7617,-0.8133,-0.8255,-0.7936,-0.8099,-0.8024,-0.7678,-0.7719,-0.8018,-0.8574,-0.9123,-0.9632,-1.0093,-1.0114,-0.9761,-0.9123,-0.8696,-0.8303,-0.795,-0.7794,-0.7814,-0.7896,-0.7651,-0.7461,-0.7312,-0.7183,-0.7143,-0.7163,-0.7319,0.0,0.0,0.0,0.0,-0.7231,-0.7482,-0.7489,-0.7536,-0.8113,-0.8947,-1.0141,-1.2182,-1.3166,-1.377,-1.4312,-1.4455,-1.4509,-1.4638,-1.4808,-1.4848,0.0,0.0,0.0,0.0,0.0,0.0,0.0,0.0,0.0,0.0,0.0,0.0,0.0,0.0,0.0,0.0,0.0,-1.4597,-1.4441,-1.4414,-1.4285,-1.4041,-1.368,-1.3333,-1.3333,-1.2866,-1.2582,-1.2626,-1.2191,-1.1687,-1.146,-1.1661,-1.1754,-1.1748,-1.165,-1.1672,-1.1792,-1.1808,-1.1884,-1.1998,-1.2123,-1.2172,-1.2172,-1.2172,-1.2361,-1.2928,0.0,0.0,0.0,0.0,0.0,0.0,0.0,0.0,0.0,0.0,-0.6223,-0.6191,-0.6304,-0.6338,-0.6338,-0.6338,-0.6281,-0.6349,-0.6491,0.0,0.0,-0.7767,-0.7984,-0.8187,-0.8391,-0.8052,-0.7909,-0.7984,-0.7611,-0.7923,-0.8886,-0.9225,-0.9693,-1.0229,-0.9727,-0.9374,-0.9089,-0.8147,-0.7712,-0.7645,-0.7489,-0.7441,-0.7455,-0.7414,-0.7305,-0.717,-0.7149,-0.7143,-0.7163,-0.7319,-0.7272,0.0,0.0,0.0,-0.7346,-0.7394,-0.7482,-0.7672,-0.8147,-0.9476,-1.1029,-1.223,-1.3085,-1.3715,-1.4055,-1.4231,-1.4333,0.0,-1.4577,0.0,0.0,0.0,0.0,0.0,0.0,0.0,0.0,0.0,0.0,0.0,0.0,0.0,0.0,0.0,0.0,0.0,-1.4428,-1.4292,-1.4136,-1.4,-1.3912,-1.3871,-1.3356,-1.3184,-1.3184,-1.2815,-1.2312,-1.2003,-1.158,-1.1511,-1.1455,-1.1487,-1.1504,-1.1504,-1.1487,-1.1547,-1.1667,-1.1775,-1.1884,-1.1998,-1.2123,-1.2172,-1.2172,-1.2172,-1.2172,-1.2361,0.0,0.0,0.0,0.0,0.0,0.0,0.0,0.0,0.0,0.0,0.0,-0.6091,-0.6311,-0.6338,-0.6338,-0.6338,-0.6338,-0.6322,-0.6464,-0.6817,-0.7143,-0.7421,-0.7584,-0.7726,-0.7855,-0.7665,-0.7597,-0.7665,-0.7556,-0.8031,-0.9062,-0.9367,-0.9788,-1.0249,-0.9564,-0.9123,-0.8845,-0.797,-0.7502,-0.7339,-0.7272,-0.7244,-0.7244,-0.7244,-0.7197,-0.7143,-0.7143,-0.7197,-0.7278,-0.7346,-0.738,-0.7394,-0.7373,0.0,0.0,0.0,-0.7421,-0.7658,-0.8533,-0.9585,-1.0738,-1.1952,-1.2691,-1.3268,-1.3817,-1.4061,-1.4217,-1.4387,-1.4462,0.0,0.0,0.0,0.0,0.0,0.0,0.0,0.0,0.0,0.0,0.0,0.0,0.0,0.0,0.0,0.0,0.0,-1.4204,-1.4102,-1.3953,-1.3878,-1.3633,-1.3383,-1.2873,-1.2532,-1.2362,-1.1775,-1.1436,-1.1339,-1.1356,-1.1302,-1.1357,-1.1422,-1.1455,-1.1455,-1.1455,-1.1525,-1.1639,-1.1694,-1.1824,-1.1993,-1.2047,-1.2112,-1.2172,-1.2172,-1.2172,-1.2361,0.0,0.0,0.0,0.0,0.0,0.0,0.0,0.0,0.0,0.0,0.0,-0.603,-0.6186,0.0,0.0,0.0,-0.6338,-0.6322,-0.6464,-0.6688,-0.6892,-0.7082,-0.7197,-0.7258,-0.7258,-0.7292,-0.7312,-0.7312,-0.7468,-0.8113,-0.9218,-0.9442,-0.989,-1.0473,-0.9754,-0.9191,-0.8723,-0.8052,-0.7617,-0.7353,-0.7204,-0.7143,-0.7143,-0.7183,-0.7197,-0.7204,-0.7244,-0.7333,-0.7434,-0.7468,-0.7509,-0.7529,-0.7455,-0.7373,0.0,0.0,0.0,-0.7651,-0.8655,-0.9395,-1.0154,-1.1321,-1.206,-1.2684,-1.3397,-1.3763,-1.4041,0.0,-1.4346,0.0,0.0,0.0,0.0,0.0,0.0,0.0,0.0,0.0,0.0,0.0,0.0,0.0,0.0,0.0,0.0,0.0,-1.398,-1.3905,-1.379,-1.3579,-1.3343,-1.2901,-1.2359,-1.1849,-1.1548,-1.0948,-1.0797,-1.0922,-1.1101,-1.1199,-1.1232,-1.1351,-1.1411,-1.1411,-1.1438,-1.1509,-1.159,-1.1623,-1.1759,-1.1949,-1.1976,-1.2063,-1.2172,-1.2172,-1.2172,-1.2361,0.0,0.0,0.0,0.0,0.0,0.0,0.0,0.0,0.0,0.0,0.0,-0.5874,-0.6023,-0.6173,-0.6338,-0.6338,-0.6338,-0.6322,-0.6464,-0.6485,-0.6627,-0.6926,-0.6946,0.0,-0.6953,-0.7082,-0.7149,-0.7149,-0.7305,-0.8065,-0.9367,-0.9388,-1.0012,-1.109,-1.0487,-0.9741,-0.8899,-0.8431,-0.814,-0.7943,-0.7366,-0.7143,-0.7156,-0.7305,-0.736,-0.738,-0.7522,-0.7584,-0.7611,-0.774,-0.7604,-0.7407,-0.7543,-0.7387,-0.7149,0.0,0.0,0.0,-0.8187,-0.8852,-0.9571,-1.0215,-1.1131,-1.204,-1.2651,-1.3234,-1.3736,-1.4034,0.0,0.0,0.0,0.0,0.0,0.0,0.0,0.0,0.0,0.0,0.0,0.0,0.0,0.0,0.0,0.0,0.0,0.0,-1.3729,-1.3648,-1.3641,-1.2997,-1.2752,-1.2746,-1.1788,-1.1288,-1.1415,-1.0909,-1.0797,-1.0922,-1.0933,-1.0998,-1.1118,-1.1232,-1.1281,-1.1286,-1.1406,-1.146,-1.1471,-1.159,-1.171,-1.1841,-1.1944,-1.2063,-1.2172,-1.2172,-1.2172,-1.2361,0.0,0.0,0.0,0.0,0.0,0.0,0.0,0.0,0.0,0.0,0.0,0.0,0.0,-0.6227,-0.6338,-0.6338,-0.6338,-0.6281,-0.6335,-0.6424,-0.6566,-0.677,-0.6783,-0.6871,-0.7061,-0.7027,-0.7048,-0.7143,-0.7292,-0.7862,-0.8811,-0.9198,-0.9659,-1.0154,-0.9944,-0.9673,-0.9306,-0.837,-0.7889,-0.7733,-0.7414,-0.7231,-0.7143,-0.7204,-0.7224,-0.7231,0.0,0.0,-0.759,-0.7543,-0.7584,-0.7645,-0.7611,-0.7455,-0.7272,-0.717,-0.736,-0.7678,-0.8024,-0.8459,-0.8994,-0.9788,-1.048,-1.1151,-1.1857,-1.2556,-1.3166,-1.3559,-1.3763,0.0,0.0,0.0,0.0,0.0,0.0,0.0,0.0,0.0,0.0,0.0,0.0,0.0,0.0,0.0,0.0,0.0,0.0,-1.3338,-1.2723,-1.2742,-1.2395,-1.1655,-1.1283,-1.0952,-1.084,-1.0749,-1.0645,-1.0688,-1.0846,-1.0944,-1.0992,-1.1183,-1.127,-1.1281,-1.14,-1.1455,-1.146,-1.1504,-1.1639,-1.1824,-1.1862,-1.1998,-1.2172,-1.2172,-1.2172,-1.2172,0.0,0.0,0.0,-0.582,0.0,-0.5895,-0.5942,-0.5867,-0.5874,-0.6078,0.0,0.0,0.0,0.0,-0.6338,-0.6338,-0.6302,-0.6315,-0.6268,-0.6349,-0.6471,-0.662,-0.6675,-0.679,-0.6987,-0.7,-0.7021,-0.7068,-0.7272,-0.7726,-0.8425,-0.892,-0.932,-0.9605,-0.9456,-0.9469,-0.9551,-0.8703,-0.8194,-0.7943,-0.759,-0.7414,-0.7373,-0.7482,-0.755,0.0,0.0,0.0,0.0,-0.7665,-0.7658,-0.7733,-0.7685,-0.757,-0.7428,-0.7326,-0.7475,-0.7712,-0.7909,-0.818,-0.8628,-0.9523,-0.9897,-1.029,-1.1246,-1.185,-1.2359,-1.2915,-1.3227,0.0,0.0,0.0,0.0,0.0,0.0,0.0,0.0,0.0,0.0,0.0,0.0,0.0,0.0,0.0,0.0,0.0,0.0,0.0,-1.2333,-1.2243,-1.1739,-1.081,-1.0844,-1.0689,-1.0324,-1.0438,-1.052,-1.0558,-1.0721,-1.084,-1.0927,-1.1123,-1.1237,-1.1281,-1.14,-1.1455,-1.1455,-1.1455,-1.1574,-1.1759,-1.1803,-1.1938,-1.2112,-1.2156,-1.2172,-1.2172,-0.563,-0.5956,-0.6166,-0.5867,-0.5935,-0.5983,-0.584,-0.5813,-0.582,-0.582,0.0,0.0,0.0,0.0,0.0,-0.6281,-0.641,-0.6424,-0.6281,-0.6281,-0.6342,-0.6478,-0.662,-0.6702,-0.6715,-0.6987,-0.7061,-0.6939,-0.7224,-0.7665,-0.8248,-0.8554,-0.9008,-0.9557,-0.9137,-0.9184,-0.9571,-0.9408,-0.9103,-0.8655,-0.7909,-0.7699,-0.7868,-0.8153,0.0,0.0,-0.8642,-0.8608,0.0,-0.8147,-0.7862,-0.7645,-0.7773,-0.7719,-0.7604,-0.7604,-0.7699,-0.7814,0.0,0.0,0.0,-0.9354,-0.9354,-0.9483,-1.0799,-1.1111,-1.1341,-1.2088,-1.2603,-1.2969,0.0,0.0,0.0,0.0,0.0,0.0,0.0,0.0,0.0,0.0,-1.3607,-1.3492,-1.3193,-1.3302,-1.3268,0.0,-1.2963,-1.2795,-1.2308,-1.182,-1.1119,-1.0199,-1.0313,-1.0318,-1.0199,-1.0318,-1.0438,-1.0552,-1.0552,-1.0683,-1.0916,-1.1041,-1.1161,-1.1275,-1.1395,-1.1455,-1.1455,-1.1455,-1.1531,-1.165,-1.1775,-1.1889,-1.2009,-1.2129,-1.2172,-1.2172,-0.5915,-0.6098,-0.6234,-0.6146,-0.6166,-0.6179,-0.6139,-0.6132,-0.6173,0.0,0.0,0.0,-0.6505,-0.6654,-0.6742,-0.6742,-0.6776,-0.6736,-0.6586,-0.6681,-0.6763,-0.6803,-0.6736,-0.6803,-0.7014,-0.6892,-0.6905,-0.7082,-0.7163,-0.7346,-0.7631,-0.8038,-0.8425,-0.8804,-0.9001,-0.9042,-0.8933,-0.8567,-0.8587,-0.8811,-0.8058,-0.8038,0.0,0.0,0.0,0.0,0.0,-0.8506,-0.8601,0.0,-0.8221,-0.8187,-0.7902,-0.7787,-0.7733,-0.7631,-0.7699,-0.7814,-0.7814,0.0,0.0,0.0,0.0,0.0,-0.9442,-0.9971,-1.0507,-1.1043,-1.1599,-1.2101,-1.2467,-1.2617,-1.2725,-1.2854,-1.3146,-1.3322,-1.322,-1.3261,-1.3261,-1.3159,-1.3146,-1.3112,-1.303,-1.3057,-1.3003,0.0,-1.2895,-1.2542,-1.1698,-1.0908,-1.0263,-1.0074,-1.0101,-1.0106,-1.0068,-1.0193,-1.0313,-1.0433,-1.0514,-1.0634,-1.0791,-1.0916,-1.1036,-1.1156,-1.127,-1.1373,-1.1455,-1.1455,-1.158,-1.177,-1.1808,-1.1944,-1.2123,-1.2161,-1.2172,-1.2172,-0.603,-0.6152,-0.6281,-0.6335,-0.6403,-0.6464,-0.6532,-0.6485,-0.6498,0.0,0.0,0.0,-0.677,-0.7041,-0.7156,-0.7027,-0.7014,-0.6953,-0.6803,-0.6817,-0.6831,-0.6831,-0.681,-0.6878,-0.7048,-0.6939,-0.6966,-0.7143,-0.7143,-0.7217,-0.7373,-0.7638,-0.7889,-0.8126,-0.8391,-0.8438,-0.8316,-0.8058,-0.8187,-0.854,-0.8289,0.0,0.0,-0.8526,-0.8615,0.0,0.0,0.0,-0.9117,-0.8757,-0.8567,0.0,0.0,0.0,-0.7977,-0.7828,-0.7889,-0.7991,-0.7923,-0.797,-0.814,-0.854,0.0,0.0,-0.9015,-0.9313,-0.9618,0.0,-1.0588,-1.1084,-1.147,-1.1762,-1.1965,-1.2026,-1.2359,-1.2671,-1.284,-1.2881,-1.2861,-1.2779,-1.2718,-1.2678,-1.2678,-1.2732,-1.2732,-1.2644,-1.2718,-1.2351,-1.1195,-1.056,-1.0075,-0.9878,-0.9873,-0.9894,-0.9943,-1.0014,-1.0139,-1.0313,-1.0427,-1.0574,-1.0742,-1.0862,-1.1014,-1.1177,-1.1243,-1.134,-1.1455,-1.1455,-1.1542,-1.1677,-1.1781,-1.1906,-1.2036,-1.2134,-1.2172,-1.2172,0.0,-0.6166,-0.6308,-0.6471,-0.6614,-0.6756,-0.6926,-0.6837,-0.681,0.0,-0.6797,-0.6756,-0.7048,-0.7421,-0.7536,-0.7265,-0.7224,-0.7156,-0.7014,-0.6858,-0.6776,-0.6776,-0.6892,-0.6953,-0.6953,-0.7075,-0.7143,-0.7143,-0.7143,-0.721,-0.7346,-0.738,-0.7461,-0.7577,-0.7611,-0.7685,-0.7787,-0.7821,-0.7909,-0.8052,-0.8506,-0.8737,0.0,0.0,-0.9496,-0.9673,-0.9802,-0.9856,-0.9808,-0.9374,-0.8893,0.0,0.0,0.0,0.0,0.0,-0.8147,0.0,-0.8099,-0.8085,-0.8269,0.0,-0.8608,0.0,-0.9069,-0.8974,-0.8845,-0.9225,-0.9652,-1.0046,-1.0358,-1.0772,-1.1111,-1.1246,-1.1545,-1.1965,-1.2569,-1.2535,-1.2454,-1.2454,-1.2338,-1.2264,-1.2264,-1.2379,-1.2454,-1.2454,-1.2454,-1.1939,-1.1054,-1.0738,-1.023,-0.9671,-0.9671,-0.9715,-0.9818,-0.9829,-0.9954,-1.0182,-1.0324,-1.0503,-1.0721,-1.0846,-1.1031,-1.1253,-1.1253,-1.133,-1.1455,-1.1455,-1.1465,-1.1498,-1.1732,-1.1824,-1.1868,-1.2091,-1.2172,-1.2172,-0.6193,-0.624,-0.6342,-0.6607,-0.6681,-0.679,-0.7054,-0.7075,-0.7156,-0.7434,-0.7624,-0.7801,-0.7991,-0.7977,-0.7929,-0.7868,-0.7753,-0.7617,-0.7475,-0.7326,-0.7238,-0.7238,-0.7149,-0.7102,-0.7102,-0.7129,-0.7143,-0.7143,-0.7143,-0.7156,-0.719,-0.7441,-0.7502,-0.7428,-0.7665,-0.7719,-0.7658,-0.7896,0.0,-0.7896,-0.8343,0.0,-0.9429,-0.9395,-0.9625,-0.9964,-0.9992,-1.0086,-1.0141,-0.9802,-0.915,-0.8486,0.0,0.0,0.0,0.0,0.0,0.0,0.0,0.0,0.0,0.0,0.0,0.0,-0.8397,-0.8608,-0.8886,0.0,-0.9103,-0.9456,-0.9876,-1.0222,-1.046,-1.0493,-1.0948,-1.1504,-1.2108,-1.2169,-1.2149,-1.2149,-1.2121,-1.2108,-1.2108,-1.2135,-1.2149,-1.2149,-1.1848,-1.1384,-1.0908,-1.0451,-1.0139,-0.9671,-0.9671,-0.9682,-0.9704,-0.9791,-0.9911,-1.0057,-1.028,-1.046,-1.0596,-1.0715,-1.0905,-1.1134,-1.1134,-1.1259,-1.1455,-1.1455,-1.1514,-1.1618,-1.1759,-1.1873,-1.1971,-1.2118,-1.2172,-1.2172,-0.6247,-0.6338,-0.6376,-0.6749,-0.6871,-0.7075,-0.7522,-0.7522,-0.7611,-0.7991,-0.8235,-0.8316,-0.8174,-0.8221,-0.8201,-0.8052,-0.7896,-0.778,-0.7706,-0.7563,-0.7448,-0.7373,-0.7373,-0.7333,-0.7258,-0.7258,-0.7258,-0.7258,-0.7177,-0.7177,-0.7258,-0.7414,-0.7407,-0.7272,-0.757,-0.7624,-0.7502,-0.7801,-0.7923,-0.7977,-0.8574,0.0,-0.9408,-0.9632,-0.9903,-1.0175,-1.0243,-1.0317,-1.0317,-0.9869,-0.9462,0.0,0.0,-0.8648,-0.8662,0.0,-0.8486,-0.8574,0.0,0.0,0.0,-0.8587,0.0,0.0,0.0,-0.8431,-0.8513,-0.8581,-0.8655,-0.8825,-0.9198,-0.9517,-0.9788,-1.0019,-1.0365,-1.0819,-1.1423,-1.1633,-1.1728,-1.1728,-1.1728,-1.1755,-1.1837,-1.1904,-1.1979,-1.2054,-1.1911,-1.1431,-1.0767,-1.0613,-1.0139,-0.9487,-0.9487,-0.9514,-0.9579,-0.9633,-0.9753,-0.9932,-1.0177,-1.0356,-1.0476,-1.0655,-1.0873,-1.1101,-1.1101,-1.1237,-1.1455,-1.1455,-1.1493,-1.1563,-1.1748,-1.1857,-1.1928,-1.2107,-1.2172,-1.2172,-0.6338,-0.6359,-0.6437,-0.6858,-0.7068,-0.7366,-0.7909,-0.7916,-0.8018,-0.8465,-0.8608,-0.8547,-0.8248,-0.8323,-0.8336,-0.818,-0.7923,-0.7821,-0.7929,-0.7726,-0.7543,-0.7421,-0.7556,-0.7556,-0.7373,-0.7428,-0.7428,-0.7373,-0.7272,-0.7278,-0.7373,-0.74,-0.7346,-0.7238,-0.7461,-0.7536,-0.7509,-0.7692,0.0,-0.8221,0.0,-0.911,-0.9178,-0.9808,-1.0148,-1.0304,-1.0473,-1.0514,-1.0419,-0.9944,-0.9795,-0.9693,-0.8967,-0.9015,0.0,0.0,0.0,0.0,0.0,0.0,0.0,0.0,0.0,-0.854,0.0,0.0,0.0,-0.8418,-0.835,0.0,0.0,0.0,0.0,0.0,0.0,0.0,0.0,-1.0948,0.0,-1.1294,-1.1233,-1.1274,-1.1511,-1.1613,-1.1721,-1.1877,-1.1891,-1.1557,-1.059,-1.0608,-1.028,-0.9307,-0.9302,-0.9351,-0.9449,-0.9497,-0.9617,-0.9807,-1.0074,-1.0269,-1.0394,-1.0606,-1.0846,-1.1101,-1.1101,-1.1237,-1.1455,-1.1455,-1.1455,-1.1476,-1.1726,-1.1819,-1.1846,-1.2085,-1.2172,-1.2172,-0.6338,-0.6363,-0.6552,-0.6871,-0.7156,-0.7455,-0.7787,-0.7936,-0.8174,-0.8628,-0.8581,-0.8594,-0.8811,-0.8391,-0.8235,-0.8601,-0.8011,-0.7848,-0.837,-0.7902,-0.759,-0.7577,-0.7712,-0.7658,-0.738,-0.7631,-0.7631,-0.7373,-0.7489,-0.7489,-0.7373,-0.7509,-0.7563,-0.7543,-0.7441,-0.7611,-0.795,0.0,-0.8011,0.0,-0.8872,-0.896,0.0,-0.9774,-1.0148,-1.0317,-1.0595,-1.0609,-1.048,0.0,-1.0134,-0.9802,0.0,-0.9442,-0.9198,0.0,0.0,0.0,0.0,0.0,0.0,0.0,-0.9673,0.0,0.0,0.0,-0.8886,-0.8397,0.0,0.0,0.0,0.0,0.0,0.0,0.0,0.0,-0.9754,-1.0019,-1.0399,-1.0934,-1.0649,-1.0622,-1.1165,-1.1111,-1.1111,-1.1253,-1.1267,-1.1034,-1.0303,-1.0413,-1.0185,-0.9302,-0.9302,-0.9313,-0.9323,-0.9541,-0.9661,-0.9693,-1.0041,-1.0269,-1.0389,-1.052,-1.077,-1.1101,-1.1101,-1.1237,-1.1455,-1.1455,-1.1455,-1.1476,-1.1726,-1.1819,-1.1846,-1.2085,-1.2172,-1.2172,-0.6274,-0.6376,-0.6566,-0.6878,-0.7102,-0.7394,-0.7868,-0.8438,-0.8825,-0.8838,-0.9083,-0.9245,-0.9198,0.0,0.0,0.0,0.0,-0.7346,0.0,0.0,-0.7136,-0.7726,-0.7862,-0.7841,-0.7631,-0.7746,-0.7753,-0.7624,-0.7611,-0.7563,-0.7509,-0.7651,-0.7631,-0.7475,-0.7672,-0.7814,-0.7916,0.0,-0.8289,0.0,0.0,0.0,0.0,-0.9897,-1.0331,-1.0555,-1.0677,-1.0677,-1.0582,0.0,-1.0283,0.0,0.0,0.0,0.0,0.0,0.0,0.0,0.0,0.0,0.0,0.0,0.0,0.0,-0.9001,0.0,-0.8743,0.0,0.0,0.0,0.0,0.0,0.0,0.0,-0.8981,0.0,0.0,0.0,-0.9462,0.0,0.0,0.0,-1.0731,-1.0799,-1.0806,-1.0778,-1.0934,-1.062,-0.9912,-1.0187,-0.9918,-0.9204,-0.9269,-0.9302,-0.9302,-0.9405,-0.953,-0.9671,-0.9889,-1.0128,-1.0389,-1.0503,-1.0759,-1.1101,-1.1101,-1.1237,-1.1455,-1.1455,-1.1455,-1.1471,-1.1645,-1.1754,-1.1846,-1.2085,-1.2172,-1.2172,-0.6403,-0.6498,-0.6668,-0.6892,-0.7115,-0.7441,-0.7957,-0.8594,-0.8994,-0.8947,-0.9239,-0.9469,-0.9496,-0.9039,0.0,0.0,-0.6746,-0.634,0.0,0.0,-0.6581,-0.6943,-0.77,0.0,-0.733,-0.7654,-0.7855,-0.7814,-0.7746,-0.7699,-0.7658,-0.7767,-0.7719,-0.757,-0.7936,-0.8085,-0.8085,0.0,-0.8737,-0.8886,-0.9327,-0.951,-0.9578,-1.0086,-1.0466,-1.0717,-1.0717,-1.0717,-1.067,-1.0344,-1.0453,0.0,-1.0202,0.0,0.0,0.0,0.0,0.0,-1.0032,0.0,0.0,0.0,0.0,0.0,0.0,0.0,0.0,0.0,0.0,0.0,0.0,0.0,0.0,0.0,0.0,-0.8879,0.0,-0.875,0.0,0.0,0.0,0.0,0.0,-1.0405,-1.0446,-1.0378,-1.0541,-1.0379,-0.9732,-0.9918,-0.987,-0.9275,-0.9215,-0.9275,-0.9302,-0.934,-0.9459,-0.9671,-0.9786,-1.003,-1.0389,-1.0471,-1.0726,-1.1101,-1.1101,-1.1237,-1.1455,-1.1455,-1.1455,-1.1465,-1.159,-1.171,-1.1841,-1.2047,-1.214,-1.2172,-0.6688,-0.681,-0.6919,-0.6926,-0.7292,-0.7685,-0.7991,-0.8065,-0.8289,-0.8866,-0.8696,0.0,0.0,0.0,0.0,0.0,0.0,-0.4918,-0.5366,0.0,-0.6003,-0.4712,-0.6989,-0.7617,0.0,-0.7359,-0.7963,-0.7814,-0.7957,-0.795,-0.7801,-0.7807,-0.7882,-0.8024,-0.8187,-0.8418,-0.8703,-0.9001,-0.9381,-0.9781,-0.9802,-1.0066,-1.0439,0.0,-1.0466,-1.0717,-1.0717,0.0,0.0,-1.0704,-1.0711,0.0,0.0,0.0,0.0,0.0,0.0,0.0,0.0,0.0,0.0,-1.0039,0.0,0.0,0.0,0.0,-1.0059,0.0,0.0,0.0,0.0,0.0,0.0,-0.8988,0.0,0.0,0.0,0.0,0.0,0.0,0.0,0.0,0.0,-0.9849,-0.991,0.0,-0.9937,-0.9797,-0.9825,-0.9732,-0.9585,-0.9688,-0.928,-0.9193,-0.9302,-0.9421,-0.9546,-0.9671,-0.9786,-1.003,-1.0384,-1.0389,-1.065,-1.1101,-1.1101,-1.1237,-1.1455,-1.1455,-1.1455,-1.1465,-1.159,-1.171,-1.1835,-1.1949,-1.2069,-1.2172,-0.7122,-0.7272,-0.7305,-0.7102,-0.736,-0.7699,-0.7991,-0.8289,-0.873,0.0,0.0,0.0,0.0,-0.8584,-0.7479,0.0,0.0,-0.4413,-0.416,-0.528,0.0,0.0,0.0,-0.7992,0.0,0.0,-0.8214,-0.7963,-0.8018,-0.8011,-0.7963,-0.7963,-0.7991,-0.8052,-0.8303,-0.852,0.0,0.0,0.0,0.0,0.0,-1.0575,-1.1192,0.0,0.0,-1.0717,-1.0717,-1.0717,0.0,-1.0839,-1.0873,-1.0732,-1.0598,-1.0424,-1.0365,-1.0016,-1.0047,0.0,0.0,0.0,-1.0455,-0.9922,0.0,0.0,0.0,0.0,0.0,0.0,0.0,0.0,0.0,0.0,0.0,-0.9144,-0.9042,-0.8872,0.0,0.0,0.0,0.0,0.0,0.0,0.0,0.0,0.0,0.0,-0.9503,0.0,-0.9394,-0.9429,-0.9401,-0.9434,-0.9187,-0.9188,-0.9302,-0.9345,-0.947,-0.9671,-0.9709,-0.9916,-1.0269,-1.0351,-1.0558,-1.0867,-1.1031,-1.1188,-1.134,-1.1422,-1.1455,-1.146,-1.1498,-1.1639,-1.1835,-1.1944,-1.2063,-1.2172,-0.7434,-0.757,-0.7597,-0.7346,-0.7509,-0.776,-0.8004,-0.8513,0.0,0.0,-0.9716,0.0,-0.904,0.0,-0.6528,0.0,-0.3971,-0.3424,-0.3087,-0.4276,0.0,-0.385,-0.627,0.0,0.0,0.0,0.0,0.0,-0.7945,-0.814,-0.8038,-0.8038,-0.8038,-0.8058,-0.8465,-0.8669,-0.8757,-0.9523,-0.9815,0.0,0.0,-1.0785,0.0,0.0,-1.0853,-1.1009,0.0,-1.0717,-1.0738,-1.0699,-1.0637,-1.0677,-1.0257,-1.0153,-1.0159,-0.9844,-0.9783,-0.9905,-0.9808,-0.9979,0.0,-0.9831,-0.9795,0.0,-0.9645,0.0,0.0,0.0,0.0,0.0,0.0,0.0,0.0,-0.9388,-0.9144,-0.8838,0.0,-0.8438,0.0,0.0,0.0,0.0,0.0,0.0,0.0,0.0,0.0,0.0,0.0,-0.9341,-0.9404,-0.9367,-0.9359,-0.9286,-0.9302,-0.9302,-0.9427,-0.9671,-0.9671,-0.9856,-1.021,-1.0329,-1.0514,-1.0748,-1.0998,-1.1166,-1.1281,-1.1406,-1.1455,-1.1455,-1.1455,-1.1607,-1.183,-1.19,-1.2031,-1.2172,-0.7611,-0.7726,-0.778,-0.7645,-0.7733,0.0,0.0,0.0,-0.9211,0.0,-0.8932,-0.8408,-0.9166,-0.6319,-0.4553,-0.4553,-0.3188,0.0,-0.214,-0.3263,0.0,0.0,-0.405,-0.4695,-0.3408,0.0,0.0,0.0,0.0,-0.833,-0.8058,-0.8052,-0.8045,-0.8065,-0.8676,-0.8859,-0.8771,-0.9822,-1.0195,-1.0114,-1.0548,-1.0738,-1.0758,-1.0731,-1.109,-1.1538,-1.0934,-1.0717,-1.0591,-1.0339,-1.0303,-1.0283,-0.9869,-0.9823,-0.9877,-0.9618,-0.9727,-0.9871,-0.9624,-0.9745,-0.9908,-0.9787,0.0,0.0,0.0,0.0,-1.0715,0.0,0.0,0.0,0.0,0.0,0.0,-0.9673,-0.9334,-0.8933,-0.837,0.0,0.0,0.0,0.0,0.0,0.0,0.0,0.0,0.0,0.0,0.0,0.0,-0.9222,-0.9343,-0.963,-0.9508,-0.9344,-0.9302,-0.9307,-0.9432,-0.9671,-0.9677,-0.9862,-1.0199,-1.0329,-1.0509,-1.0732,-1.0992,-1.1161,-1.1275,-1.14,-1.1455,-1.1455,-1.1455,-1.1607,-1.1819,-1.183,-1.1976,-1.2172,-0.7753,-0.7875,-0.797,0.0,-0.7957,-0.8031,0.0,0.0,0.0,0.0,-0.8423,-0.7202,-0.8024,-0.6201,-0.4467,-0.3193,-0.2852,0.0,0.0,0.0,0.0,-0.2114,-0.4583,-0.5185,-0.3531,-0.5933,0.0,-0.6861,0.0,-0.8336,-0.8364,-0.8262,-0.8147,-0.8072,-0.8784,-0.8893,-0.8608,-0.9659,-1.0215,-1.0399,-1.0629,-1.0989,0.0,0.0,-1.109,-1.1538,-1.0934,-1.0585,-1.0358,-1.0432,-1.0391,-1.0166,-0.9846,-0.976,-0.9619,-0.9181,-0.9243,-0.9355,-0.9293,-0.9383,-0.949,-0.974,-0.959,-0.9572,0.0,0.0,0.0,0.0,0.0,0.0,0.0,0.0,0.0,0.0,-0.9096,0.0,0.0,0.0,0.0,-0.8811,0.0,0.0,0.0,0.0,0.0,0.0,0.0,0.0,-0.8981,0.0,-0.905,-0.9359,-0.9189,-0.9063,-0.9302,-0.9394,-0.9519,-0.9671,-0.9753,-0.9889,-1.0074,-1.0291,-1.0416,-1.0498,-1.0922,-1.1118,-1.1161,-1.1368,-1.1455,-1.1455,-1.1455,-1.1607,-1.1841,-1.2015,-1.2118,-1.2172,-0.7909,-0.8085,0.0,-0.8235,0.0,0.0,-0.7599,0.0,0.0,-0.9459,-0.7785,0.0,-0.7353,-0.5364,-0.3649,-0.2807,-0.2627,0.0,-0.2495,0.0,0.0,-0.2226,-0.3574,-0.3973,-0.2831,-0.48,0.0,-0.6189,0.0,-0.7956,-0.8391,-0.8309,-0.8221,-0.8167,-0.8784,-0.8954,-0.8832,-0.9761,-1.0358,-1.0697,-1.0711,-1.0921,0.0,-1.0846,-1.0839,-1.1001,-1.067,-1.0417,-1.0303,-1.0257,-1.0141,-0.987,-0.9467,-0.9405,-0.9467,-0.9068,-0.9117,-0.9198,-0.915,-0.922,-0.9318,-0.9658,-0.9529,-0.9383,-0.9806,-1.0025,-1.0031,0.0,0.0,0.0,0.0,0.0,0.0,0.0,0.0,0.0,0.0,0.0,0.0,0.0,-0.8818,0.0,0.0,0.0,0.0,0.0,0.0,0.0,0.0,0.0,-0.9162,-0.9311,-0.9274,-0.9336,-0.9383,-0.9606,-0.9726,-0.9742,-0.9807,-0.99,-1.003,-1.0275,-1.0384,-1.0411,-1.0835,-1.1052,-1.1118,-1.1302,-1.1406,-1.1465,-1.1574,-1.1726,-1.1917,-1.2102,-1.2172,-1.2172,-0.7865,-0.8104,0.0,0.0,0.0,0.0,0.0,-0.7847,0.0,-0.8065,0.0,-0.6256,-0.6717,-0.425,-0.2721,-0.2695,0.0,-0.2645,-0.2533,-0.2526,-0.2448,-0.2277,-0.2262,-0.2189,-0.2045,-0.32,0.0,0.0,0.0,-0.741,-0.8384,-0.8343,-0.8316,-0.8316,-0.8764,-0.9049,-0.9232,-0.9924,-1.0466,-1.0853,-1.0778,-1.0758,-1.0778,-1.0645,-1.0591,-1.0438,-1.0438,-1.0302,-1.0283,-0.9777,-0.9698,-0.9541,-0.9024,-0.9139,-0.9285,-0.9188,-0.9226,-0.928,-0.9182,-0.9231,-0.9334,-0.9454,-0.9405,-0.9474,-0.978,-0.9689,-0.9746,-1.0031,-1.0052,-0.9896,0.0,0.0,0.0,0.0,0.0,0.0,0.0,0.0,0.0,0.0,0.0,0.0,0.0,0.0,0.0,0.0,0.0,0.0,0.0,0.0,-0.9255,-0.9281,-0.9492,-0.9618,-0.953,-0.9829,-0.9943,-0.9883,-0.9883,-0.9932,-1.003,-1.0291,-1.04,-1.0405,-1.0764,-1.0987,-1.1112,-1.1226,-1.1351,-1.1504,-1.1732,-1.1889,-1.2004,-1.2129,-1.2172,-1.2172,-0.6975,0.0,0.0,0.0,0.0,-0.7873,-0.6634,-0.5537,-0.5381,-0.6689,-0.4746,-0.3866,-0.5364,-0.3824,-0.2698,-0.2692,-0.2692,0.0,0.0,0.0,0.0,-0.2398,-0.2345,-0.2271,-0.217,-0.3304,-0.4419,0.0,0.0,-0.7683,-0.8994,-0.875,-0.8567,-0.8465,-0.8913,-0.9198,-0.9367,-0.9741,0.0,-1.0426,-1.0772,-1.0982,-1.1084,-1.0672,-1.0554,-1.0573,-1.016,-0.9883,-0.9625,-0.9713,-0.9501,-0.9144,-0.922,-0.9269,-0.9302,-0.928,-0.9291,-0.9302,-0.928,-0.9291,-0.9334,-0.9454,-0.947,-0.9481,-0.9733,-0.9661,-0.9573,-0.9573,-0.9684,-0.9561,-0.9221,0.0,0.0,0.0,0.0,0.0,0.0,0.0,0.0,0.0,0.0,-0.875,0.0,0.0,0.0,0.0,0.0,0.0,0.0,0.0,-0.8867,0.0,-0.9052,0.0,0.0,0.0,-0.9867,-1.0139,-1.0139,-1.0095,-1.003,-1.0373,-1.0476,-1.0405,-1.0764,-1.0987,-1.1112,-1.1226,-1.1406,-1.1618,-1.1764,-1.1889,-1.2004,-1.2129,-1.2172,-1.2172,0.0,0.0,0.0,0.0,0.0,0.0,0.0,-0.3743,0.0,-0.4371,-0.3951,-0.3935,-0.4775,-0.3458,-0.2699,-0.2714,-0.2702,-0.2673,-0.2628,-0.2611,-0.2548,-0.2429,-0.238,0.0,-0.2203,-0.2581,-0.3862,-0.5842,0.0,0.0,-0.9035,-0.8811,-0.8669,-0.8615,-0.8988,-0.932,-0.9625,0.0,0.0,-1.0534,-1.0826,-1.09,-1.0889,-1.0612,-1.0379,-1.0162,-0.9882,-0.9648,-0.9405,-0.9479,-0.9405,-0.922,-0.922,-0.9258,-0.9302,-0.9302,-0.9302,-0.9302,-0.9302,-0.9302,-0.9318,-0.9378,-0.9394,-0.941,-0.9465,-0.9432,-0.9394,-0.9394,-0.9446,-0.9411,-0.9245,-0.8851,0.0,0.0,0.0,0.0,0.0,0.0,0.0,0.0,0.0,0.0,0.0,0.0,0.0,0.0,0.0,0.0,0.0,0.0,-0.8678,0.0,0.0,0.0,-0.947,0.0,0.0,-1.0014,-1.0079,-1.0112,-1.0123,-1.0362,-1.0471,-1.0492,-1.0791,-1.0987,-1.1123,-1.1362,-1.1569,-1.1743,-1.1862,-1.1982,-1.2091,-1.215,-1.2172,-1.2172,0.0,-0.49,0.0,0.0,-0.5569,0.0,-0.5505,-0.305,-0.14,-0.2092,-0.3493,-0.4181,-0.3905,-0.327,-0.2699,-0.2717,-0.2697,-0.2669,-0.2639,-0.2609,-0.2548,-0.2447,-0.2408,-0.2335,-0.2222,-0.2101,-0.3152,0.0,0.0,0.0,0.0,-0.8783,-0.8818,-0.8771,0.0,0.0,0.0,0.0,-1.0337,-1.0738,-1.0819,-1.0856,-1.0702,-1.0595,-1.0235,-0.9746,-0.9655,-0.9557,-0.9285,-0.9433,-0.9495,-0.9329,-0.9237,-0.9269,-0.9345,-0.9345,-0.9323,-0.9302,-0.9302,-0.9302,-0.9302,-0.9302,-0.9302,-0.9302,-0.9302,-0.9302,-0.9302,-0.9302,-0.9285,-0.9193,-0.9232,-0.8978,0.0,0.0,0.0,0.0,0.0,0.0,0.0,0.0,0.0,0.0,-0.8789,0.0,0.0,0.0,0.0,0.0,-0.9055,0.0,0.0,0.0,0.0,-0.9079,-0.9352,0.0,-1.003,-0.9916,-1.0041,-1.0134,-1.021,-1.0384,-1.0498,-1.0568,-1.0813,-1.1003,-1.1166,-1.1498,-1.171,-1.183,-1.1944,-1.2063,-1.2172,-1.2172,-1.2172,-1.2172,0.0,0.0,0.0,0.0,0.0,0.0,-0.8479,-0.4304,-0.1276,-0.1428,-0.2267,-0.2793,-0.2794,-0.2668,-0.2683,-0.2658,-0.2653,-0.2638,-0.2608,-0.2579,-0.2547,-0.2507,-0.245,-0.2376,-0.2285,-0.2163,-0.2718,0.0,0.0,0.0,0.0,-0.8794,-0.9178,0.0,0.0,0.0,0.0,-0.9964,-1.0439,-1.0758,-1.0763,-1.0876,-1.0875,-1.0414,-1.0099,-0.9891,-0.9689,-0.9481,-0.9334,-0.9536,-0.9541,-0.947,-0.9459,-0.9459,-0.947,-0.947,-0.9389,-0.9302,-0.9302,-0.9302,-0.9302,-0.9302,-0.9302,-0.9302,-0.9302,-0.9302,-0.9302,-0.9302,-0.922,-0.9073,-0.8829,-0.866,-0.8486,0.0,0.0,0.0,0.0,0.0,0.0,0.0,0.0,0.0,0.0,-0.8639,0.0,0.0,-0.8927,0.0,0.0,0.0,0.0,-0.8683,0.0,-0.9038,-0.9883,-0.9777,-0.9873,-1.0172,-1.0291,-1.0302,-1.0215,-1.0552,-1.065,-1.0568,-1.0813,-1.1047,-1.1275,-1.1531,-1.171,-1.183,-1.1944,-1.2063,-1.2172,-1.2172,-1.2172,-1.2172,0.0,0.0,0.0,0.0,0.0,0.0,0.0,-0.4104,-0.0485,-0.0485,-0.082,-0.1159,-0.1821,-0.2313,-0.2635,-0.2623,-0.262,-0.2615,-0.2602,-0.2608,-0.2583,-0.2517,-0.2491,-0.2436,-0.2345,-0.2244,-0.2834,0.0,0.0,0.0,0.0,0.0,0.0,0.0,0.0,-0.9313,-0.9462,-0.979,-1.0065,-1.0365,-1.0467,-1.0413,-1.0329,-1.017,-0.9894,-0.9719,-0.9672,-0.9546,-0.9541,-0.9639,-0.959,-0.9497,-0.9574,-0.9595,-0.9584,-0.9508,-0.9454,-0.94,-0.9323,-0.9302,-0.9302,-0.9302,-0.9302,-0.9302,-0.9302,-0.9302,-0.9302,-0.9302,-0.9269,-0.9188,-0.9019,-0.8829,-0.8622,0.0,0.0,0.0,0.0,0.0,0.0,0.0,0.0,0.0,0.0,0.0,0.0,0.0,0.0,0.0,0.0,0.0,0.0,-0.8763,0.0,-0.8872,-0.9333,-0.9612,-0.9742,-0.9883,-1.015,-1.0291,-1.0318,-1.053,-1.0721,-1.0895,-1.1058,-1.1226,-1.1395,-1.1569,-1.171,-1.183,-1.1944,-1.2063,-1.2172,-1.2172,-1.2172,-1.2172,-0.068,0.0,-0.0836,0.0,-0.1332,-0.2409,-0.5821,-0.2732,0.0,0.0,0.0,-0.0166,-0.0832,-0.1482,-0.1963,-0.2617,-0.2616,-0.2615,-0.2615,-0.2635,-0.2619,-0.2556,-0.2545,0.0,-0.2406,-0.2326,-0.2666,-0.3517,-0.481,0.0,0.0,0.0,0.0,0.0,-0.8794,-0.9564,-0.9836,-0.9856,-0.9971,-1.034,-1.0352,-1.0111,-1.0006,-0.9985,-0.9865,-0.9552,-0.9617,-0.9655,-0.9682,-0.9748,-0.9693,-0.9606,-0.9693,-0.972,-0.9704,-0.9617,-0.9541,-0.947,-0.9383,-0.9334,-0.9302,-0.9302,-0.9302,-0.9302,-0.9302,-0.9302,-0.9302,-0.9302,-0.9302,-0.9269,-0.9155,-0.8965,-0.8747,-0.8508,0.0,0.0,0.0,0.0,0.0,0.0,-0.7647,-0.7981,-0.8317,-0.8491,0.0,0.0,0.0,0.0,0.0,0.0,0.0,0.0,0.0,0.0,0.0,-0.9512,-0.9671,-0.9671,-1.0068,-1.0302,-1.0394,-1.0579,-1.0824,-1.1107,-1.1221,-1.134,-1.1465,-1.1623,-1.1743,-1.1835,-1.1982,-1.2096,-1.2172,-1.2172,-1.2172,-1.2172,-0.0,-0.0,-0.0,-0.0,-0.0,-0.0,-0.0159,-0.0,0.0,0.0,0.0,-0.0,-0.0,-0.0,-0.0662,-0.2481,-0.2646,-0.2646,-0.2646,-0.2646,-0.2646,0.0,0.0,-0.2559,-0.247,-0.2408,-0.2319,-0.2199,0.0,0.0,-0.3943,0.0,-0.779,-0.7693,-0.929,-1.0127,-1.029,-1.0195,-1.0378,-1.09,-1.031,-1.015,-1.0122,-0.9943,-0.9764,-0.9699,-0.9932,-0.9867,-0.9704,-0.9938,-0.9932,-0.9835,-0.9835,-0.9835,-0.9835,-0.9835,-0.9671,-0.9487,-0.9487,-0.9394,-0.9302,-0.9302,-0.9302,-0.9302,-0.9302,-0.9302,-0.9302,-0.9302,-0.9302,-0.9269,-0.9155,-0.9035,-0.8867,-0.8628,0.0,0.0,0.0,0.0,0.0,0.0,-0.7886,-0.833,-0.8286,-0.859,0.0,0.0,0.0,0.0,0.0,0.0,0.0,-0.8176,-0.8408,0.0,-0.9307,-0.9512,-0.9671,-0.9677,-1.0155,-1.0384,-1.04,-1.0753,-1.0987,-1.1107,-1.1221,-1.134,-1.1471,-1.1716,-1.1819,-1.1841,-1.2074,-1.2172,-1.2172,-1.2172,-1.2172,-1.2172,0.0,0.0,0.0,0.0,0.0,0.0,0.0,0.0,0.0,0.0,0.0,0.0,0.0,0.0,-0.0167,0.0,-0.2014,-0.2709,0.0,-0.2709,-0.2699,-0.2679,-0.2649,-0.2601,-0.2533,-0.2492,-0.2421,-0.2322,0.0,0.0,0.0,-0.6679,-0.7464,-0.6699,-0.8943,-1.0052,-1.0083,-1.0009,-1.0013,-1.0197,-0.991,-0.9855,-0.9833,-0.9796,-0.9813,-0.9796,-0.9867,-0.99,-0.9921,-0.9998,-0.9992,-0.9965,-0.9965,-0.9965,-0.9943,-0.9862,-0.9786,-0.9709,-0.9633,-0.9584,-0.9536,-0.9449,-0.9427,-0.9405,-0.9323,-0.9302,-0.9302,-0.9302,-0.9302,-0.9269,-0.9155,-0.9035,-0.8845,-0.8524,-0.8339,0.0,0.0,0.0,0.0,0.0,-0.7513,-0.7791,0.0,-0.8016,0.0,0.0,0.0,0.0,0.0,0.0,0.0,0.0,-0.8662,0.0,-0.9269,-0.9639,-0.9748,-0.9911,-1.0231,-1.0514,-1.0759,-1.1036,-1.1183,-1.1226,-1.1346,-1.1417,-1.1465,-1.1629,-1.1743,-1.1835,-1.1987,-1.2096,-1.2172,-1.2172,-1.2172,-1.2172,0.0,0.0,0.0,0.0,0.0,0.0,0.0,0.0,0.0,0.0,0.0,0.0,0.0,0.0,0.0,0.0,-0.1019,-0.1882,-0.2224,-0.2577,-0.2736,-0.2694,-0.2675,-0.2642,-0.2596,-0.2564,0.0,-0.2126,-0.2203,-0.2684,-0.3503,-0.6043,-0.6882,-0.6243,-0.8778,-1.0053,-1.026,-0.9888,-0.9814,-0.9968,-0.9899,-0.9824,-0.9807,-0.9878,-0.9932,-0.997,-0.9921,-0.9987,-1.0085,-1.0036,-1.0052,-1.009,-1.009,-1.0123,-1.0123,-0.9954,-0.9873,-0.9824,-0.9753,-0.9704,-0.965,-0.9574,-0.9557,-0.9536,-0.9459,-0.9443,-0.9427,-0.9383,-0.9372,-0.9334,-0.922,-0.9063,-0.8845,-0.8535,-0.8345,-0.8127,-0.7812,0.0,0.0,0.0,0.0,0.0,0.0,-0.7933,-0.8113,0.0,0.0,0.0,0.0,0.0,0.0,-0.8727,-0.88,0.0,-0.9302,-0.959,-0.9829,-1.0025,-1.0356,-1.0661,-1.0927,-1.1166,-1.127,-1.1281,-1.1449,-1.1525,-1.1536,-1.1699,-1.1813,-1.1895,-1.2009,-1.2102,-1.2172,-1.2172,-1.2172,-1.2172,0.0,0.0,0.0,0.0,0.0,0.0,0.0,0.0,0.0,0.0,0.0,0.0,0.0,0.0,0.0,0.0,0.0,0.0,0.0,-0.2077,-0.2758,-0.2532,-0.2525,-0.2679,-0.2652,-0.2624,-0.2258,-0.173,-0.2077,-0.2286,-0.2253,-0.4851,-0.605,-0.6187,-0.8777,-1.0094,-1.0323,-0.9908,-0.9979,-1.0309,-1.0009,-0.9932,-1.0036,-1.0041,-1.0117,-1.0199,-1.0085,-1.0117,-1.0199,-1.0085,-1.0123,-1.0215,-1.0215,-1.0297,-1.034,-1.0101,-0.9954,-0.9862,-0.9851,-0.9775,-0.9693,-0.9682,-0.9677,-0.9671,-0.9671,-0.9671,-0.9633,-0.9514,-0.9487,-0.9449,-0.9329,-0.9111,-0.8872,-0.8628,-0.8388,-0.8149,-0.7905,0.0,0.0,0.0,0.0,0.0,0.0,-0.8068,-0.8073,0.0,0.0,0.0,0.0,0.0,-0.8374,-0.8573,-0.8731,-0.8976,-0.9329,-0.9666,-0.9905,-1.0052,-1.053,-1.0824,-1.0938,-1.1177,-1.1286,-1.1297,-1.1536,-1.1634,-1.1656,-1.1889,-1.1987,-1.1998,-1.2123,-1.2172,-1.2172,-1.2172,-1.2172,-1.2172,0.0,0.0,0.0,0.0,0.0,0.0,0.0,0.0,0.0,0.0,0.0,0.0,0.0,0.0,0.0,0.0,0.0,-0.0,-0.0355,-0.0526,-0.1041,-0.1726,-0.1697,-0.1674,-0.1657,-0.2332,-0.2632,-0.2389,-0.2466,-0.2399,-0.2346,-0.4186,-0.5421,-0.6226,-0.8822,-0.9914,-0.9896,-0.9893,-0.991,-1.0009,-1.0041,-1.0134,-1.0172,-1.0264,-1.0318,-1.034,-1.0313,-1.0318,-1.034,-1.0307,-1.0318,-1.034,-1.034,-1.0362,-1.0356,-1.0204,-1.0139,-1.0095,-1.0003,-0.996,-0.9916,-0.9818,-0.9731,-0.9671,-0.9671,-0.9671,-0.9633,-0.9514,-0.9487,-0.9449,-0.9329,-0.9111,-0.8872,-0.8628,-0.8388,-0.8149,-0.7905,-0.7796,0.0,0.0,-0.778,-0.7763,-0.7944,-0.795,-0.8027,0.0,0.0,0.0,0.0,-0.8323,-0.8383,-0.8584,-0.897,-0.9307,-0.9579,-0.9753,-0.9992,-1.0307,-1.0786,-1.1031,-1.1069,-1.1302,-1.1411,-1.1422,-1.1569,-1.1634,-1.1656,-1.1889,-1.1987,-1.1998,-1.2123,-1.2172,-1.2172,-1.2172,-1.2172,-1.2172,0.0,0.0,0.0,0.0,0.0,0.0,0.0,0.0,0.0,0.0,0.0,0.0,0.0,0.0,0.0,0.0,0.0,0.0,0.0,0.0,-0.0173,-0.0681,-0.0676,-0.0672,-0.0667,-0.1175,-0.1499,-0.13,-0.1736,-0.2008,-0.1982,-0.3882,-0.5602,-0.6893,-0.8918,-0.9854,-0.9854,-0.9753,-0.99,-1.0014,-1.015,-1.0237,-1.0297,-1.0362,-1.0416,-1.0454,-1.0405,-1.0422,-1.0454,-1.0405,-1.0422,-1.0465,-1.0465,-1.0503,-1.0525,-1.04,-1.0286,-1.0177,-1.0052,-1.0019,-1.0019,-1.0008,-1.0003,-0.9998,-0.9998,-0.9954,-0.9878,-0.9758,-0.9688,-0.9595,-0.9421,-0.915,-0.8872,-0.8628,-0.8345,-0.8089,-0.7899,-0.7867,0.0,-0.7948,-0.7948,-0.7992,-0.8111,-0.8068,-0.8068,-0.8144,-0.8079,0.0,-0.8334,-0.8492,-0.866,-0.8829,-0.9139,-0.9443,-0.9742,-0.9976,-1.0269,-1.0634,-1.0949,-1.1128,-1.1188,-1.1373,-1.1455,-1.1465,-1.1645,-1.1721,-1.1737,-1.1976,-1.2069,-1.208,-1.2145,-1.2172,-1.2172,-1.2172,-1.2172,-1.2172,0.0,0.0,0.0,0.0,0.0,0.0,0.0,0.0,0.0,0.0,0.0,0.0,0.0,0.0,0.0,0.0,0.0,0.0,0.0,0.0,0.0,0.0,0.0,0.0,0.0,0.0,0.0,-0.0,-0.0804,-0.1107,-0.1102,-0.3848,-0.5932,-0.7587,-0.9111,-0.9764,-0.984,-0.9878,-1.0014,-1.0204,-1.0242,-1.0318,-1.0416,-1.0433,-1.0509,-1.0596,-1.0481,-1.0514,-1.0596,-1.0476,-1.0503,-1.0585,-1.0585,-1.0655,-1.0715,-1.059,-1.0411,-1.0231,-1.0106,-1.0074,-1.0101,-1.0204,-1.0307,-1.0384,-1.0384,-1.0307,-1.0188,-1.0052,-0.9938,-0.9786,-0.9536,-0.9193,-0.8878,-0.8649,-0.8301,-0.8024,-0.7937,0.0,-0.803,-0.81,-0.8166,-0.8269,-0.8426,-0.8367,-0.828,-0.8198,-0.8269,-0.8296,-0.8247,-0.8611,-0.8943,-0.9204,-0.9307,-0.953,-0.9889,-1.0237,-1.0574,-1.0895,-1.1036,-1.1161,-1.1275,-1.14,-1.1465,-1.1498,-1.1721,-1.183,-1.1862,-1.208,-1.2172,-1.2172,-1.2172,-1.2172,-1.2172,-1.2172,-1.2172,-1.2172,0.0,0.0,0.0,0.0,0.0,0.0,0.0,0.0,0.0,0.0,0.0,0.0,0.0,0.0,0.0,0.0,0.0,0.0,0.0,0.0,0.0,0.0,0.0,0.0,0.0,0.0,0.0,-0.0,-0.0165,-0.0163,-0.0319,-0.3488,-0.5949,-0.7536,-0.9151,-0.9916,-0.9851,-1.0057,-1.0166,-1.0221,-1.0422,-1.0514,-1.0541,-1.0645,-1.0759,-1.0846,-1.0726,-1.0759,-1.0846,-1.0721,-1.0693,-1.071,-1.071,-1.0721,-1.0715,-1.059,-1.053,-1.0476,-1.0362,-1.0329,-1.0335,-1.0351,-1.0373,-1.0384,-1.0384,-1.0373,-1.0291,-1.0068,-1.0003,-0.9889,-0.9546,-0.9193,-0.8905,-0.8764,-0.8356,-0.8084,-0.8166,0.0,-0.7905,-0.8312,-0.8198,-0.8209,-0.853,-0.8638,-0.872,-0.8807,-0.8736,-0.8812,-0.9095,-0.909,-0.9237,-0.9574,-0.9606,-0.9786,-1.0144,-1.04,-1.0606,-1.077,-1.0992,-1.1161,-1.1275,-1.14,-1.1509,-1.1618,-1.1759,-1.1873,-1.1971,-1.2112,-1.2172,-1.2172,-1.2172,-1.2172,-1.2172,-1.2172,-1.2172,-1.2172,0.0,0.0,0.0,0.0,0.0,0.0,0.0,0.0,0.0,0.0,0.0,0.0,0.0,0.0,0.0,0.0,0.0,0.0,0.0,0.0,0.0,0.0,0.0,0.0,0.0,0.0,0.0,0.0,0.0,0.0,-0.0,-0.3553,-0.6567,-0.9055,-0.9882,-1.0188,-1.0139,-1.0253,-1.0335,-1.04,-1.0514,-1.0634,-1.0759,-1.0813,-1.0911,-1.1009,-1.0954,-1.0927,-1.0922,-1.0933,-1.0889,-1.0846,-1.0911,-1.0933,-1.0911,-1.0786,-1.0617,-1.0454,-1.04,-1.0433,-1.0476,-1.0476,-1.0525,-1.0574,-1.0574,-1.0525,-1.0443,-1.0329,-1.021,-1.0025,-0.9731,-0.9334,-0.9008,-0.8889,-0.8465,0.0,0.0,-0.8204,-0.8263,-0.8481,-0.8524,-0.8677,-0.9035,-0.9008,-0.9014,-0.9133,-0.903,-0.9063,-0.9291,-0.9253,-0.9421,-0.9845,-0.9921,-1.0095,-1.0389,-1.0568,-1.0748,-1.0938,-1.1112,-1.1259,-1.1373,-1.1498,-1.1547,-1.1552,-1.1803,-1.1906,-1.1911,-1.2096,-1.2172,-1.2172,-1.2172,-1.2172,-1.2172,-1.2172,-1.2172,-1.2172,0.0,0.0,0.0,0.0,0.0,0.0,0.0,0.0,0.0,0.0,0.0,0.0,0.0,0.0,0.0,0.0,0.0,0.0,0.0,0.0,0.0,0.0,0.0,0.0,0.0,0.0,0.0,0.0,0.0,0.0,-0.0,-0.2782,-0.6347,-1.0427,-1.0405,-1.0389,-1.0389,-1.0416,-1.0492,-1.0601,-1.0628,-1.077,-1.096,-1.096,-1.1036,-1.1139,-1.1112,-1.1058,-1.1009,-1.1079,-1.1041,-1.0976,-1.1074,-1.1101,-1.1085,-1.0992,-1.077,-1.0552,-1.0552,-1.0617,-1.0677,-1.065,-1.0732,-1.0808,-1.0748,-1.0688,-1.0623,-1.0568,-1.0411,-1.0204,-0.9932,-0.9541,-0.9209,-0.9057,0.0,0.0,0.0,-0.8486,-0.86,-0.8736,-0.8894,-0.9133,-0.9492,-0.9367,-0.9296,-0.9383,-0.9307,-0.9307,-0.9421,-0.9454,-0.9677,-1.0128,-1.0237,-1.0384,-1.0596,-1.0721,-1.09,-1.1145,-1.1232,-1.1351,-1.1498,-1.159,-1.1618,-1.1596,-1.1868,-1.1955,-1.1917,-1.2096,-1.2172,-1.2172,-1.2172,-1.2172,-1.2172,-1.2172,-1.2172,-1.2178,0.0,0.0,0.0,0.0,0.0,0.0,0.0,0.0,0.0,0.0,0.0,0.0,0.0,0.0,0.0,0.0,0.0,0.0,0.0,0.0,0.0,0.0,0.0,0.0,0.0,0.0,0.0,0.0,0.0,0.0,-0.0,-0.033,-0.4099,-1.0594,-1.0583,-1.0405,-1.0394,-1.0498,-1.0612,-1.0732,-1.0846,-1.0971,-1.109,-1.109,-1.1161,-1.1243,-1.1139,-1.1166,-1.1232,-1.1134,-1.1096,-1.109,-1.1101,-1.1101,-1.1101,-1.109,-1.1069,-1.1047,-1.1047,-1.1058,-1.1036,-1.0922,-1.0987,-1.1014,-1.0791,-1.0819,-1.0829,-1.0601,-1.0541,-1.0422,-1.0068,-0.9802,-0.9552,-0.9318,0.0,0.0,-0.8867,-0.8628,-0.8633,-0.9188,-0.9177,-0.9264,-0.9622,-0.9639,-0.9633,-0.9644,-0.9633,-0.9677,-0.9791,-0.9905,-1.0134,-1.0503,-1.0525,-1.059,-1.0721,-1.0846,-1.1025,-1.1259,-1.127,-1.1395,-1.1623,-1.1634,-1.1748,-1.1949,-1.1976,-1.2047,-1.2145,-1.2167,-1.2172,-1.2172,-1.2172,-1.2172,-1.2172,-1.2172,-1.2172,-1.2188,0.0,0.0,0.0,0.0,0.0,0.0,0.0,0.0,0.0,0.0,0.0,0.0,0.0,0.0,0.0,0.0,0.0,0.0,0.0,0.0,0.0,0.0,0.0,0.0,0.0,0.0,0.0,0.0,0.0,0.0,0.0,0.0,-0.2701,-0.7623,-0.9933,-1.0775,-1.0835,-1.0878,-1.0922,-1.0965,-1.1014,-1.1101,-1.1204,-1.1204,-1.1281,-1.1378,-1.1335,-1.1302,-1.1275,-1.1308,-1.127,-1.1221,-1.1297,-1.1319,-1.1319,-1.1319,-1.127,-1.1226,-1.1302,-1.1215,-1.109,-1.1047,-1.1069,-1.1079,-1.0987,-1.0998,-1.1009,-1.0916,-1.0775,-1.0601,-1.0389,-1.0095,-0.9835,-0.9661,0.0,-0.915,-0.9166,-0.9117,-0.9139,-0.9285,-0.94,-0.9546,-0.9753,-0.9775,-0.9807,-0.9883,-0.9889,-0.9938,-1.0057,-1.0248,-1.0449,-1.0661,-1.0742,-1.0802,-1.0851,-1.1041,-1.1221,-1.1384,-1.1384,-1.1514,-1.1748,-1.1748,-1.1797,-1.1889,-1.2036,-1.2085,-1.2063,-1.214,-1.2172,-1.2172,-1.2172,-1.2172,-1.2172,-1.2172,-1.2172,-1.2188,0.0,0.0,0.0,0.0,0.0,0.0,0.0,0.0,0.0,0.0,0.0,0.0,0.0,0.0,0.0,0.0,0.0,0.0,0.0,0.0,0.0,0.0,0.0,0.0,0.0,0.0,0.0,0.0,0.0,0.0,0.0,0.0,-0.1379,-0.4162,-0.8972,-1.1063,-1.1123,-1.1123,-1.1139,-1.1166,-1.1166,-1.1232,-1.133,-1.133,-1.1384,-1.1455,-1.1455,-1.14,-1.134,-1.1427,-1.14,-1.1346,-1.1427,-1.1455,-1.1455,-1.1455,-1.1395,-1.1346,-1.1433,-1.1335,-1.1204,-1.1166,-1.1183,-1.1194,-1.1118,-1.1128,-1.1145,-1.1112,-1.0971,-1.0802,-1.0645,-1.0411,-1.0182,-0.9981,-0.9786,-0.9612,-0.9487,-0.9514,-0.9525,-0.9476,-0.9622,-0.9769,-0.9883,-0.9894,-0.9932,-1.0014,-1.0057,-1.0144,-1.0302,-1.0503,-1.0666,-1.0791,-1.0949,-1.1031,-1.1031,-1.1194,-1.1351,-1.1514,-1.1514,-1.1639,-1.1873,-1.1873,-1.1895,-1.1938,-1.2102,-1.2123,-1.2053,-1.2134,-1.2172,-1.2172,-1.2172,-1.2172,-1.2172,-1.2172,-1.2172,-1.2188,0.0,0.0,0.0,0.0,0.0,0.0,0.0,0.0,0.0,0.0,0.0,0.0,0.0,0.0,0.0,0.0,0.0,0.0,0.0,0.0,0.0,0.0,0.0,0.0,0.0,0.0,0.0,0.0,0.0,0.0,0.0,0.0,0.0,-0.0347,-0.8015,-1.1356,-1.0988,-1.0988,-1.1041,-1.1122,-1.1122,-1.1362,-1.1455,-1.1455,-1.1455,-1.1455,-1.1455,-1.1455,-1.1455,-1.1455,-1.1455,-1.1455,-1.1455,-1.1455,-1.1455,-1.1455,-1.146,-1.146,-1.146,-1.146,-1.1427,-1.1308,-1.1368,-1.1395,-1.1161,-1.1194,-1.1243,-1.1128,-1.1107,-1.1031,-1.0786,-1.0737,-1.0623,-1.0264,-1.0101,-0.9981,-0.9856,-0.9748,-0.9715,-0.9829,-0.984,-0.9889,-1.0008,-1.0019,-1.0019,-1.0019,-1.0134,-1.0307,-1.0547,-1.0672,-1.0797,-1.0916,-1.115,-1.127,-1.1275,-1.1275,-1.1395,-1.1639,-1.1634,-1.1759,-1.1987,-1.1987,-1.2058,-1.2172,-1.2172,-1.2172,-1.2172,-1.2172,-1.2172,-1.2172,-1.2172,-1.2172,-1.2172,-1.2172,-1.2172,-1.2188,0.0,0.0,0.0,0.0,0.0,0.0,0.0,0.0,0.0,0.0,0.0,0.0,0.0,0.0,0.0,0.0,0.0,0.0,0.0,0.0,0.0,0.0,0.0,0.0,0.0,0.0,0.0,0.0,0.0,0.0,0.0,0.0,0.0,-0.0177,-0.2466,-0.4936,-0.7279,-0.7279,-0.7821,-0.8905,-1.0702,-1.1438,-1.1455,-1.1455,-1.1455,-1.1455,-1.1455,-1.1455,-1.1455,-1.1455,-1.1514,-1.158,-1.158,-1.158,-1.158,-1.158,-1.1645,-1.171,-1.171,-1.171,-1.1683,-1.1558,-1.1493,-1.146,-1.1471,-1.1438,-1.1389,-1.1357,-1.1281,-1.1177,-1.102,-1.0922,-1.0775,-1.0498,-1.0422,-1.0356,-1.0237,-1.0193,-1.0155,-1.0101,-1.0095,-1.0074,-1.0025,-1.0019,-1.0057,-1.0144,-1.0335,-1.052,-1.0672,-1.0797,-1.096,-1.1161,-1.1237,-1.1313,-1.14,-1.14,-1.1525,-1.1764,-1.1677,-1.1803,-1.2112,-1.2025,-1.2058,-1.2172,-1.2172,-1.2172,-1.2172,-1.2172,-1.2172,-1.2172,-1.2172,-1.2172,-1.2172,-1.2172,-1.2172,-1.2188,0.0,0.0,0.0,0.0,0.0,0.0,0.0,0.0,0.0,0.0,0.0,0.0,0.0,0.0,0.0,0.0,0.0,0.0,0.0,0.0,0.0,0.0,0.0,0.0,0.0,0.0,0.0,0.0,0.0,0.0,0.0,0.0,0.0,0.0,0.0,-0.1247,-0.3404,-0.3404,-0.4832,-0.7153,-1.0223,-1.1476,-1.1455,-1.1455,-1.1455,-1.1455,-1.1455,-1.1455,-1.1455,-1.1455,-1.1536,-1.1645,-1.1694,-1.171,-1.171,-1.171,-1.1759,-1.1819,-1.1819,-1.1819,-1.1813,-1.1781,-1.165,-1.1547,-1.1618,-1.1542,-1.1455,-1.1455,-1.1395,-1.1308,-1.1194,-1.1107,-1.0998,-1.0802,-1.0732,-1.0661,-1.0541,-1.0481,-1.0411,-1.0291,-1.0275,-1.0248,-1.0172,-1.0166,-1.0215,-1.0335,-1.052,-1.0677,-1.0802,-1.0965,-1.1123,-1.127,-1.1368,-1.1427,-1.1455,-1.1552,-1.1672,-1.1819,-1.1743,-1.1873,-1.2167,-1.2096,-1.2102,-1.2172,-1.2172,-1.2172,-1.2172,-1.2172,-1.2172,-1.2172,-1.2172,-1.2172,-1.2172,-1.2172,-1.2172,-1.2188,0.0,0.0,0.0,0.0,0.0,0.0,0.0,0.0,0.0,0.0,0.0,0.0,0.0,0.0,0.0,0.0,0.0,0.0,0.0,0.0,0.0,0.0,0.0,0.0,0.0,0.0,0.0,0.0,0.0,0.0,0.0,0.0,0.0,0.0,0.0,0.0,0.0,0.0,-0.1972,-0.5549,-0.9876,-1.1487,-1.146,-1.1455,-1.146,-1.1471,-1.1471,-1.1476,-1.1487,-1.1498,-1.1569,-1.1672,-1.1797,-1.1835,-1.1835,-1.1835,-1.1841,-1.1851,-1.1851,-1.1851,-1.1873,-1.1976,-1.1835,-1.1667,-1.1656,-1.1558,-1.1465,-1.146,-1.1455,-1.1417,-1.1297,-1.127,-1.1237,-1.1123,-1.1009,-1.0895,-1.0786,-1.0666,-1.0547,-1.0433,-1.0405,-1.04,-1.0389,-1.0394,-1.0449,-1.0563,-1.0683,-1.0813,-1.0944,-1.1156,-1.1275,-1.1286,-1.1504,-1.1574,-1.1471,-1.1694,-1.1803,-1.1803,-1.1824,-1.1949,-1.2156,-1.2167,-1.2172,-1.2172,-1.2172,-1.2172,-1.2172,-1.2172,-1.2172,-1.2172,-1.2172,-1.2172,-1.2172,-1.2172,-1.2172,-1.2188,0.0,0.0,0.0,0.0,0.0,0.0,0.0,0.0,0.0,0.0,0.0,0.0,0.0,0.0,0.0,0.0,0.0,0.0,0.0,0.0,0.0,0.0,0.0,0.0,0.0,0.0,0.0,0.0,0.0,0.0,0.0,0.0,0.0,0.0,0.0,0.0,0.0,0.0,-0.0538,-0.179,-0.8794,-1.1498,-1.1476,-1.146,-1.1514,-1.1596,-1.1596,-1.1661,-1.1754,-1.1841,-1.183,-1.1797,-1.1917,-1.1949,-1.1949,-1.1949,-1.202,-1.2096,-1.2096,-1.2096,-1.2102,-1.2123,-1.202,-1.1889,-1.1797,-1.1683,-1.1569,-1.1476,-1.1455,-1.1417,-1.1297,-1.127,-1.1237,-1.1123,-1.1079,-1.1052,-1.1025,-1.0916,-1.0797,-1.0677,-1.0579,-1.0481,-1.0394,-1.0465,-1.0568,-1.0688,-1.0813,-1.0971,-1.1183,-1.1243,-1.1313,-1.1411,-1.1465,-1.1525,-1.1596,-1.165,-1.1677,-1.1677,-1.1862,-1.1976,-1.2031,-1.2129,-1.2172,-1.2172,-1.2172,-1.2172,-1.2172,-1.2172,-1.2172,-1.2172,-1.2172,-1.2172,-1.2172,-1.2172,-1.2172,-1.2205,0.0,0.0,0.0,0.0,0.0,0.0,0.0,0.0,0.0,0.0,0.0,0.0,0.0,0.0,0.0,0.0,0.0,0.0,0.0,0.0,0.0,0.0,0.0,0.0,0.0,0.0,0.0,0.0,0.0,0.0,0.0,0.0,0.0,0.0,0.0,0.0,0.0,0.0,0.0,-0.0358,-0.4322,-0.8129,-1.1585,-1.1623,-1.1683,-1.1737,-1.1726,-1.1764,-1.1835,-1.1949,-1.1949,-1.1922,-1.2036,-1.2074,-1.2074,-1.2074,-1.2123,-1.2172,-1.2172,-1.2172,-1.2172,-1.2172,-1.2123,-1.2031,-1.1857,-1.1726,-1.1601,-1.1482,-1.1455,-1.1433,-1.1373,-1.1357,-1.134,-1.1281,-1.1221,-1.1183,-1.1183,-1.1079,-1.0982,-1.0916,-1.0802,-1.0704,-1.0645,-1.0748,-1.084,-1.0905,-1.102,-1.1145,-1.1264,-1.133,-1.1389,-1.1455,-1.1509,-1.1574,-1.1634,-1.1748,-1.1775,-1.1726,-1.1906,-1.202,-1.208,-1.214,-1.2172,-1.2172,-1.2172,-1.2172,-1.2172,-1.2172,-1.2172,-1.2172,-1.2172,-1.2172,-1.2172,-1.2172,-1.2248,-1.2373,0.0,0.0,0.0,0.0,0.0,0.0,0.0,0.0,0.0,0.0,0.0,0.0,0.0,0.0,0.0,0.0,0.0,0.0,0.0,0.0,0.0,0.0,0.0,0.0,0.0,0.0,0.0,0.0,0.0,0.0,0.0,0.0,0.0,0.0,0.0,0.0,0.0,0.0,0.0,0.0,0.0,-0.4363,-1.0942,-1.1054,-1.1289,-1.1662,-1.1846,-1.1862,-1.1895,-1.1987,-1.202,-1.2036,-1.214,-1.2172,-1.2172,-1.2172,-1.2172,-1.2172,-1.2172,-1.2172,-1.2172,-1.2172,-1.2172,-1.2112,-1.19,-1.177,-1.1661,-1.1542,-1.1514,-1.1514,-1.1514,-1.1514,-1.1509,-1.1487,-1.14,-1.1324,-1.1308,-1.1204,-1.1134,-1.1134,-1.1025,-1.0949,-1.0949,-1.1041,-1.1112,-1.1128,-1.1221,-1.1281,-1.1302,-1.1422,-1.1476,-1.1455,-1.1574,-1.1645,-1.1667,-1.1862,-1.1933,-1.1879,-1.1976,-1.2063,-1.214,-1.2161,-1.2172,-1.2172,-1.2172,-1.2172,-1.2172,-1.2172,-1.2172,-1.2172,-1.2172,-1.2172,-1.2172,-1.2172,-1.2324,-1.2547,0.0,0.0,0.0,0.0,0.0,0.0,0.0,0.0,0.0,0.0,0.0,0.0,0.0,0.0,0.0,0.0,0.0,0.0,0.0,0.0,0.0,0.0,0.0,0.0,0.0,0.0,0.0,0.0,0.0,0.0,0.0,0.0,0.0,0.0,0.0,0.0,0.0,0.0,0.0,0.0,0.0,-0.344,-0.8477,-0.8438,-0.9793,-1.1857,-1.1938,-1.2031,-1.2129,-1.214,-1.2145,-1.215,-1.2167,-1.2172,-1.2172,-1.2172,-1.2172,-1.2172,-1.2172,-1.2172,-1.2172,-1.2172,-1.2172,-1.2134,-1.1998,-1.1955,-1.1906,-1.1792,-1.177,-1.177,-1.177,-1.177,-1.1737,-1.1629,-1.1596,-1.1552,-1.1444,-1.1324,-1.1248,-1.1248,-1.115,-1.1079,-1.1079,-1.109,-1.1145,-1.1243,-1.1264,-1.1319,-1.1422,-1.1547,-1.1563,-1.146,-1.1574,-1.1688,-1.1792,-1.1824,-1.1938,-1.2123,-1.214,-1.2102,-1.2015,-1.2123,-1.2172,-1.2172,-1.2172,-1.2172,-1.2172,-1.2172,-1.2172,-1.2172,-1.2172,-1.2172,-1.2172,-1.2172,-1.2324,-1.2536,0.0,0.0,0.0,0.0,0.0,0.0,0.0,0.0,0.0,0.0,0.0,0.0,0.0,0.0,0.0,0.0,0.0,0.0,0.0,0.0,0.0,0.0,0.0,0.0,0.0,0.0,0.0,0.0,0.0,0.0,0.0,0.0,0.0,0.0,0.0,0.0,0.0,0.0,0.0,0.0,0.0,-0.1466,-0.4026,-0.8594,-1.1111,-1.2063,-1.2085,-1.2123,-1.2172,-1.2172,-1.2172,-1.2172,-1.2172,-1.2172,-1.2172,-1.2172,-1.2172,-1.2172,-1.2172,-1.2172,-1.2172,-1.2172,-1.2172,-1.2156,-1.2102,-1.2091,-1.2036,-1.1857,-1.1819,-1.1819,-1.1819,-1.1819,-1.1803,-1.1748,-1.1683,-1.1618,-1.1563,-1.1449,-1.1351,-1.1281,-1.1286,-1.1275,-1.1204,-1.1259,-1.1319,-1.1373,-1.1373,-1.1395,-1.1455,-1.1504,-1.1542,-1.1558,-1.1607,-1.1726,-1.1911,-1.1911,-1.1998,-1.2172,-1.2172,-1.2145,-1.2091,-1.2145,-1.2172,-1.2172,-1.2172,-1.2172,-1.2172,-1.2172,-1.2172,-1.2172,-1.2172,-1.2172,-1.2188,-1.2324,-1.2444,-1.2553]}]]